GFSGBSN_prec_precacc12_084.txt.gz
Total_Precipitation_Accumulation
0.00 0.00 0.00 0.00 0.00 0.00 0.00 0.01 0.01 0.01 0.02 0.03 0.03 0.02 0.02 0.02 0.01 0.00 0.00 0.00 0.00 0.00 0.00 0.00 0.00 0.01 0.00 0.00 0.00 0.03 0.01 0.03 0.00 0.01 0.07 0.16 0.02 0.01 0.02 0.04 0.04 0.02 0.04 0.07 0.16 0.06 0.03
0.00 0.00 0.00 0.00 0.00 0.00 0.00 0.00 0.01 0.01 0.01 0.03 0.03 0.02 0.02 0.02 0.01 0.00 0.00 0.00 0.00 0.00 0.00 0.00 0.00 0.00 0.00 0.00 0.00 0.01 0.00 0.03 0.03 0.04 0.06 0.19 0.03 0.00 0.03 0.05 0.06 0.01 0.03 0.06 0.06 0.05 0.03
0.00 0.00 0.00 0.00 0.00 0.00 0.00 0.00 0.00 0.00 0.01 0.02 0.03 0.02 0.01 0.01 0.01 0.00 0.00 0.00 0.00 0.00 0.00 0.00 0.00 0.00 0.00 0.00 0.00 0.01 0.00 0.02 0.06 0.06 0.07 0.22 0.04 0.02 0.02 0.06 0.09 0.02 0.04 0.04 0.01 0.03 0.08
0.00 0.00 0.00 0.00 0.00 0.00 0.00 0.00 0.00 0.00 0.01 0.02 0.02 0.02 0.01 0.01 0.01 0.00 0.00 0.00 0.00 0.00 0.00 0.00 0.00 0.00 0.00 0.00 0.00 0.00 0.00 0.00 0.06 0.10 0.08 0.27 0.08 0.03 0.02 0.02 0.11 0.11 0.05 0.02 0.00 0.00 0.02
0.00 0.00 0.00 0.00 0.00 0.00 0.00 0.00 0.00 0.00 0.01 0.01 0.02 0.01 0.01 0.00 0.00 0.00 0.00 0.00 0.00 0.00 0.00 0.00 0.00 0.00 0.00 0.00 0.00 0.00 0.00 0.00 0.05 0.15 0.13 0.40 0.14 0.02 0.02 0.05 0.07 0.07 0.02 0.01 0.00 0.00 0.00
0.00 0.00 0.00 0.00 0.00 0.00 0.00 0.00 0.00 0.00 0.00 0.01 0.01 0.01 0.01 0.00 0.00 0.00 0.00 0.00 0.00 0.00 0.00 0.00 0.00 0.00 0.00 0.00 0.00 0.00 0.00 0.00 0.06 0.17 0.27 0.62 0.15 0.02 0.01 0.02 0.02 0.02 0.01 0.01 0.00 0.00 0.00
0.00 0.00 0.00 0.00 0.00 0.00 0.00 0.00 0.00 0.00 0.01 0.00 0.01 0.01 0.01 0.00 0.00 0.00 0.00 0.00 0.00 0.00 0.00 0.00 0.00 0.00 0.00 0.00 0.00 0.00 0.00 0.01 0.10 0.17 0.47 1.01 0.13 0.01 0.00 0.00 0.00 0.00 0.01 0.00 0.00 0.00 0.00
0.00 0.00 0.00 0.00 0.00 0.00 0.00 0.00 0.00 0.00 0.00 0.00 0.01 0.01 0.01 0.00 0.00 0.00 0.00 0.00 0.00 0.00 0.00 0.00 0.00 0.00 0.00 0.00 0.00 0.00 0.01 0.04 0.15 0.12 0.41 0.79 0.12 0.00 0.00 0.00 0.00 0.00 0.00 0.00 0.00 0.00 0.00
0.00 0.00 0.00 0.00 0.00 0.00 0.00 0.00 0.00 0.00 0.00 0.00 0.00 0.01 0.01 0.00 0.00 0.00 0.00 0.00 0.00 0.00 0.00 0.02 0.03 0.01 0.00 0.00 0.00 0.00 0.03 0.04 0.06 0.11 0.35 0.45 0.08 0.00 0.00 0.01 0.01 0.00 0.00 0.00 0.00 0.00 0.01
0.00 0.00 0.00 0.00 0.00 0.00 0.00 0.00 0.00 0.00 0.00 0.00 0.00 0.01 0.01 0.00 0.00 0.00 0.00 0.00 0.00 0.00 0.03 0.08 0.04 0.02 0.01 0.00 0.00 0.01 0.02 0.02 0.02 0.13 0.35 0.22 0.03 0.00 0.01 0.01 0.00 0.00 0.00 0.00 0.00 0.00 0.01
0.00 0.00 0.00 0.00 0.00 0.00 0.00 0.00 0.00 0.00 0.00 0.00 0.00 0.01 0.00 0.00 0.00 0.00 0.00 0.00 0.00 0.00 0.03 0.13 0.06 0.04 0.02 0.01 0.00 0.02 0.01 0.04 0.02 0.14 0.38 0.23 0.02 0.00 0.01 0.00 0.00 0.00 0.00 0.00 0.00 0.00 0.00
0.00 0.00 0.00 0.00 0.00 0.00 0.00 0.00 0.00 0.00 0.00 0.00 0.00 0.00 0.00 0.00 0.00 0.00 0.00 0.00 0.00 0.00 0.01 0.04 0.06 0.07 0.04 0.02 0.02 0.01 0.01 0.05 0.04 0.12 0.20 0.11 0.01 0.00 0.00 0.00 0.00 0.00 0.00 0.00 0.00 0.00 0.00
0.00 0.00 0.00 0.00 0.00 0.00 0.00 0.00 0.00 0.00 0.00 0.00 0.00 0.00 0.00 0.00 0.00 0.00 0.00 0.00 0.00 0.00 0.00 0.01 0.07 0.04 0.04 0.03 0.01 0.02 0.01 0.03 0.05 0.08 0.27 0.13 0.03 0.00 0.00 0.02 0.02 0.01 0.01 0.06 0.03 0.04 0.01
0.00 0.00 0.00 0.00 0.00 0.00 0.00 0.00 0.00 0.00 0.00 0.00 0.00 0.00 0.00 0.00 0.00 0.00 0.00 0.00 0.00 0.00 0.00 0.00 0.00 0.02 0.02 0.02 0.01 0.04 0.01 0.00 0.00 0.01 0.08 0.11 0.07 0.00 0.00 0.01 0.01 0.01 0.01 0.01 0.01 0.00 0.00
0.00 0.00 0.00 0.00 0.00 0.00 0.00 0.00 0.00 0.00 0.00 0.00 0.00 0.00 0.00 0.00 0.00 0.00 0.00 0.00 0.00 0.00 0.00 0.00 0.00 0.00 0.01 0.02 0.01 0.03 0.02 0.00 0.00 0.00 0.02 0.00 0.00 0.00 0.00 0.00 0.00 0.01 0.01 0.00 0.00 0.00 0.00
0.00 0.00 0.00 0.00 0.00 0.00 0.00 0.00 0.00 0.00 0.00 0.00 0.00 0.00 0.00 0.00 0.00 0.00 0.00 0.00 0.00 0.00 0.00 0.00 0.00 0.00 0.00 0.00 0.00 0.01 0.00 0.00 0.00 0.00 0.00 0.00 0.00 0.00 0.00 0.01 0.01 0.00 0.00 0.03 0.03 0.02 0.00
0.00 0.00 0.00 0.00 0.00 0.00 0.00 0.00 0.00 0.00 0.00 0.00 0.00 0.00 0.00 0.00 0.00 0.00 0.00 0.00 0.00 0.00 0.00 0.00 0.00 0.00 0.00 0.00 0.00 0.00 0.00 0.00 0.00 0.00 0.00 0.00 0.00 0.01 0.02 0.02 0.02 0.00 0.02 0.03 0.02 0.00 0.00
0.00 0.00 0.00 0.00 0.00 0.00 0.00 0.00 0.00 0.00 0.00 0.00 0.00 0.00 0.00 0.00 0.00 0.00 0.00 0.00 0.00 0.00 0.00 0.00 0.00 0.00 0.00 0.00 0.00 0.00 0.00 0.00 0.00 0.00 0.00 0.00 0.00 0.01 0.01 0.00 0.00 0.00 0.01 0.02 0.01 0.00 0.00
0.00 0.00 0.00 0.00 0.00 0.00 0.00 0.00 0.00 0.00 0.00 0.00 0.00 0.00 0.00 0.00 0.00 0.00 0.00 0.00 0.00 0.00 0.00 0.00 0.00 0.00 0.00 0.00 0.00 0.00 0.00 0.00 0.00 0.00 0.00 0.00 0.01 0.03 0.04 0.03 0.01 0.02 0.00 0.01 0.02 0.02 0.01
0.02 0.00 0.00 0.00 0.00 0.00 0.00 0.00 0.00 0.00 0.00 0.00 0.00 0.00 0.00 0.00 0.00 0.00 0.00 0.00 0.00 0.00 0.00 0.00 0.00 0.00 0.00 0.00 0.00 0.00 0.00 0.00 0.00 0.00 0.00 0.02 0.02 0.00 0.00 0.00 0.00 0.00 0.00 0.00 0.02 0.05 0.01
0.04 0.00 0.00 0.00 0.00 0.00 0.00 0.00 0.00 0.00 0.00 0.00 0.00 0.00 0.00 0.00 0.00 0.00 0.00 0.00 0.00 0.00 0.00 0.00 0.00 0.00 0.00 0.00 0.00 0.00 0.00 0.00 0.00 0.00 0.02 0.09 0.15 0.03 0.00 0.00 0.00 0.00 0.00 0.00 0.01 0.01 0.01
0.07 0.01 0.00 0.00 0.00 0.00 0.00 0.00 0.00 0.00 0.00 0.00 0.00 0.00 0.00 0.00 0.00 0.00 0.00 0.00 0.00 0.00 0.00 0.00 0.00 0.00 0.00 0.01 0.03 0.04 0.05 0.05 0.02 0.02 0.01 0.05 0.06 0.05 0.06 0.02 0.00 0.00 0.00 0.00 0.00 0.00 0.00
0.06 0.02 0.00 0.00 0.00 0.00 0.00 0.00 0.00 0.00 0.00 0.00 0.00 0.00 0.00 0.00 0.00 0.00 0.00 0.00 0.00 0.00 0.00 0.00 0.00 0.00 0.01 0.03 0.04 0.04 0.07 0.10 0.11 0.08 0.03 0.00 0.00 0.02 0.02 0.01 0.01 0.01 0.00 0.00 0.00 0.00 0.00
0.05 0.02 0.00 0.00 0.00 0.00 0.00 0.00 0.00 0.00 0.00 0.00 0.00 0.00 0.00 0.00 0.00 0.00 0.00 0.00 0.00 0.00 0.00 0.00 0.00 0.00 0.01 0.03 0.03 0.04 0.06 0.06 0.04 0.04 0.14 0.06 0.01 0.01 0.02 0.00 0.01 0.00 0.00 0.00 0.00 0.00 0.00
0.04 0.00 0.00 0.00 0.00 0.00 0.00 0.00 0.00 0.00 0.00 0.00 0.00 0.00 0.00 0.00 0.00 0.00 0.00 0.00 0.00 0.00 0.00 0.00 0.00 0.00 0.00 0.03 0.06 0.08 0.12 0.14 0.10 0.06 0.01 0.02 0.02 0.04 0.01 0.00 0.00 0.00 0.00 0.00 0.00 0.00 0.00
0.06 0.01 0.00 0.00 0.00 0.00 0.00 0.00 0.00 0.00 0.00 0.00 0.00 0.00 0.00 0.00 0.00 0.00 0.00 0.00 0.00 0.00 0.00 0.00 0.00 0.00 0.02 0.05 0.11 0.18 0.14 0.13 0.08 0.08 0.15 0.02 0.01 0.07 0.06 0.01 0.00 0.00 0.00 0.00 0.00 0.00 0.00
0.07 0.01 0.00 0.00 0.00 0.00 0.00 0.00 0.00 0.00 0.00 0.00 0.00 0.00 0.00 0.00 0.00 0.00 0.00 0.00 0.00 0.00 0.00 0.00 0.00 0.01 0.05 0.15 0.20 0.12 0.07 0.08 0.12 0.06 0.04 0.12 0.08 0.08 0.06 0.04 0.00 0.00 0.00 0.00 0.00 0.00 0.00
0.05 0.02 0.00 0.00 0.00 0.00 0.00 0.00 0.00 0.00 0.00 0.00 0.00 0.00 0.00 0.00 0.00 0.00 0.00 0.00 0.00 0.00 0.00 0.00 0.00 0.01 0.08 0.27 0.41 0.29 0.10 0.04 0.04 0.05 0.01 0.02 0.04 0.06 0.05 0.07 0.01 0.00 0.00 0.00 0.00 0.00 0.00
0.08 0.03 0.01 0.00 0.00 0.00 0.00 0.00 0.00 0.00 0.00 0.00 0.00 0.00 0.00 0.00 0.00 0.00 0.00 0.00 0.00 0.00 0.00 0.00 0.00 0.01 0.06 0.15 0.31 0.31 0.26 0.23 0.09 0.06 0.02 0.02 0.00 0.00 0.00 0.00 0.00 0.00 0.00 0.00 0.00 0.00 0.00

GFSGBSN_prec_precacc12_087.txt.gz
Total_Precipitation_Accumulation
0.00 0.00 0.00 0.00 0.00 0.00 0.00 0.01 0.00 0.00 0.01 0.02 0.03 0.02 0.01 0.02 0.00 0.00 0.00 0.00 0.00 0.00 0.00 0.00 0.00 0.01 0.00 0.00 0.00 0.06 0.03 0.05 0.00 0.02 0.05 0.17 0.03 0.01 0.02 0.04 0.06 0.08 0.12 0.08 0.09 0.01 0.00
0.00 0.00 0.00 0.00 0.00 0.00 0.00 0.00 0.00 0.01 0.01 0.02 0.03 0.02 0.02 0.01 0.01 0.00 0.00 0.00 0.00 0.00 0.00 0.00 0.00 0.00 0.00 0.01 0.00 0.01 0.00 0.04 0.02 0.06 0.03 0.16 0.07 0.00 0.02 0.05 0.05 0.01 0.12 0.10 0.07 0.05 0.02
0.00 0.00 0.00 0.00 0.00 0.00 0.00 0.00 0.00 0.00 0.01 0.01 0.02 0.02 0.01 0.01 0.01 0.00 0.00 0.00 0.00 0.00 0.00 0.00 0.00 0.00 0.00 0.00 0.00 0.00 0.00 0.03 0.06 0.08 0.09 0.20 0.05 0.03 0.01 0.08 0.06 0.00 0.08 0.12 0.06 0.06 0.07
0.00 0.00 0.00 0.00 0.00 0.00 0.00 0.00 0.00 0.01 0.01 0.01 0.02 0.02 0.01 0.01 0.01 0.00 0.00 0.00 0.00 0.00 0.00 0.00 0.00 0.00 0.00 0.00 0.00 0.00 0.00 0.00 0.07 0.11 0.09 0.30 0.07 0.05 0.02 0.02 0.09 0.08 0.07 0.07 0.03 0.01 0.02
0.00 0.00 0.00 0.00 0.00 0.00 0.00 0.00 0.00 0.01 0.01 0.01 0.01 0.01 0.01 0.00 0.00 0.00 0.00 0.00 0.00 0.00 0.00 0.00 0.00 0.00 0.00 0.00 0.00 0.00 0.00 0.01 0.07 0.17 0.13 0.46 0.14 0.06 0.04 0.06 0.09 0.09 0.03 0.01 0.03 0.00 0.00
0.00 0.00 0.00 0.00 0.00 0.00 0.00 0.00 0.00 0.00 0.01 0.01 0.01 0.01 0.01 0.00 0.00 0.00 0.00 0.00 0.00 0.00 0.00 0.00 0.00 0.00 0.00 0.01 0.00 0.00 0.00 0.00 0.06 0.20 0.23 0.73 0.14 0.04 0.02 0.03 0.02 0.02 0.01 0.01 0.01 0.00 0.00
0.00 0.00 0.00 0.00 0.00 0.00 0.00 0.00 0.00 0.00 0.01 0.00 0.01 0.01 0.01 0.00 0.00 0.00 0.00 0.00 0.00 0.00 0.00 0.00 0.00 0.00 0.00 0.00 0.00 0.00 0.00 0.01 0.10 0.13 0.28 0.98 0.12 0.03 0.00 0.01 0.00 0.01 0.01 0.01 0.00 0.00 0.00
0.01 0.00 0.00 0.00 0.00 0.00 0.00 0.00 0.00 0.00 0.01 0.01 0.00 0.01 0.01 0.01 0.00 0.00 0.00 0.00 0.00 0.00 0.00 0.00 0.00 0.00 0.00 0.00 0.00 0.00 0.01 0.04 0.15 0.06 0.19 0.67 0.10 0.01 0.00 0.00 0.00 0.00 0.00 0.01 0.00 0.00 0.00
0.01 0.00 0.00 0.00 0.00 0.00 0.00 0.00 0.00 0.00 0.00 0.00 0.00 0.01 0.01 0.00 0.00 0.00 0.00 0.00 0.00 0.00 0.00 0.01 0.00 0.00 0.00 0.00 0.00 0.01 0.04 0.03 0.05 0.05 0.17 0.42 0.08 0.00 0.01 0.01 0.01 0.00 0.00 0.00 0.00 0.00 0.01
0.00 0.00 0.00 0.00 0.00 0.00 0.00 0.00 0.00 0.00 0.00 0.00 0.00 0.01 0.01 0.00 0.00 0.00 0.00 0.00 0.00 0.00 0.01 0.04 0.01 0.00 0.00 0.00 0.00 0.01 0.02 0.01 0.01 0.08 0.20 0.19 0.03 0.00 0.01 0.01 0.00 0.00 0.00 0.00 0.00 0.00 0.01
0.03 0.00 0.00 0.00 0.00 0.00 0.00 0.00 0.00 0.00 0.00 0.00 0.00 0.01 0.00 0.00 0.00 0.00 0.00 0.00 0.00 0.00 0.01 0.02 0.03 0.03 0.01 0.00 0.00 0.01 0.00 0.01 0.00 0.08 0.23 0.16 0.02 0.00 0.01 0.00 0.00 0.01 0.00 0.00 0.00 0.01 0.01
0.07 0.00 0.00 0.00 0.00 0.00 0.00 0.00 0.00 0.00 0.00 0.00 0.00 0.00 0.00 0.00 0.00 0.00 0.00 0.00 0.00 0.00 0.01 0.01 0.01 0.04 0.02 0.01 0.01 0.01 0.00 0.00 0.00 0.02 0.13 0.09 0.01 0.01 0.00 0.01 0.00 0.00 0.00 0.00 0.00 0.01 0.01
0.15 0.02 0.00 0.00 0.00 0.00 0.00 0.00 0.00 0.00 0.00 0.00 0.00 0.00 0.00 0.00 0.00 0.00 0.00 0.00 0.00 0.00 0.00 0.00 0.03 0.02 0.02 0.01 0.00 0.00 0.01 0.00 0.01 0.02 0.18 0.11 0.04 0.01 0.01 0.03 0.03 0.01 0.02 0.04 0.03 0.03 0.01
0.30 0.09 0.00 0.00 0.00 0.00 0.00 0.00 0.00 0.00 0.00 0.00 0.00 0.00 0.00 0.00 0.00 0.00 0.00 0.00 0.00 0.00 0.00 0.00 0.00 0.01 0.01 0.01 0.00 0.00 0.01 0.00 0.00 0.01 0.09 0.12 0.10 0.01 0.01 0.01 0.02 0.01 0.01 0.01 0.01 0.00 0.00
0.27 0.22 0.03 0.00 0.00 0.00 0.00 0.00 0.00 0.00 0.00 0.00 0.00 0.00 0.00 0.00 0.00 0.00 0.00 0.00 0.00 0.00 0.00 0.00 0.00 0.00 0.01 0.02 0.01 0.03 0.01 0.00 0.00 0.00 0.05 0.06 0.04 0.00 0.00 0.01 0.02 0.04 0.03 0.01 0.01 0.00 0.00
0.30 0.16 0.03 0.00 0.00 0.00 0.00 0.00 0.00 0.00 0.00 0.00 0.00 0.00 0.00 0.00 0.00 0.00 0.00 0.00 0.00 0.00 0.00 0.00 0.00 0.00 0.00 0.01 0.00 0.01 0.00 0.00 0.00 0.00 0.01 0.03 0.04 0.00 0.00 0.01 0.01 0.02 0.01 0.01 0.02 0.02 0.00
0.37 0.22 0.02 0.00 0.00 0.00 0.00 0.00 0.00 0.00 0.00 0.00 0.00 0.00 0.00 0.00 0.00 0.00 0.00 0.00 0.00 0.00 0.00 0.00 0.00 0.00 0.00 0.00 0.00 0.00 0.00 0.00 0.00 0.00 0.00 0.00 0.02 0.03 0.05 0.04 0.02 0.01 0.00 0.00 0.01 0.00 0.00
0.42 0.32 0.06 0.00 0.00 0.00 0.00 0.00 0.00 0.00 0.00 0.00 0.00 0.00 0.00 0.00 0.00 0.00 0.00 0.00 0.00 0.00 0.00 0.00 0.00 0.00 0.00 0.00 0.01 0.00 0.00 0.01 0.00 0.00 0.00 0.00 0.01 0.04 0.02 0.00 0.00 0.01 0.01 0.01 0.01 0.01 0.00
0.33 0.30 0.08 0.00 0.00 0.00 0.00 0.00 0.00 0.00 0.00 0.00 0.00 0.00 0.00 0.00 0.00 0.00 0.00 0.00 0.00 0.00 0.00 0.00 0.00 0.00 0.00 0.00 0.00 0.00 0.01 0.00 0.00 0.01 0.01 0.00 0.03 0.05 0.07 0.04 0.01 0.02 0.01 0.01 0.01 0.03 0.02
0.43 0.26 0.08 0.00 0.00 0.00 0.00 0.00 0.00 0.00 0.00 0.00 0.00 0.00 0.00 0.00 0.00 0.00 0.00 0.00 0.00 0.00 0.00 0.00 0.00 0.00 0.00 0.00 0.00 0.01 0.02 0.03 0.00 0.03 0.09 0.06 0.07 0.01 0.01 0.01 0.00 0.00 0.00 0.00 0.02 0.05 0.02
0.63 0.40 0.18 0.01 0.00 0.00 0.00 0.00 0.00 0.00 0.00 0.00 0.00 0.00 0.00 0.00 0.00 0.00 0.00 0.00 0.00 0.00 0.00 0.00 0.00 0.00 0.00 0.00 0.00 0.00 0.02 0.03 0.04 0.02 0.09 0.30 0.25 0.05 0.01 0.00 0.00 0.00 0.00 0.00 0.01 0.01 0.01
0.51 0.40 0.20 0.03 0.00 0.00 0.00 0.00 0.00 0.00 0.00 0.00 0.00 0.00 0.00 0.00 0.00 0.00 0.00 0.00 0.00 0.00 0.00 0.00 0.00 0.00 0.00 0.01 0.03 0.05 0.07 0.10 0.08 0.06 0.11 0.17 0.17 0.08 0.12 0.07 0.02 0.00 0.00 0.00 0.00 0.00 0.00
0.49 0.33 0.17 0.05 0.00 0.00 0.00 0.00 0.00 0.00 0.00 0.00 0.00 0.00 0.00 0.00 0.00 0.00 0.00 0.00 0.00 0.00 0.00 0.00 0.00 0.00 0.01 0.03 0.04 0.04 0.07 0.11 0.22 0.24 0.13 0.26 0.12 0.09 0.08 0.03 0.10 0.07 0.00 0.00 0.00 0.00 0.00
0.47 0.32 0.11 0.03 0.00 0.00 0.00 0.00 0.00 0.00 0.00 0.00 0.00 0.00 0.00 0.00 0.00 0.00 0.00 0.00 0.00 0.00 0.00 0.00 0.00 0.00 0.01 0.03 0.03 0.04 0.06 0.06 0.05 0.11 0.25 0.18 0.15 0.04 0.05 0.01 0.04 0.00 0.00 0.00 0.00 0.00 0.00
0.47 0.26 0.08 0.02 0.00 0.00 0.00 0.00 0.00 0.00 0.00 0.00 0.00 0.00 0.00 0.00 0.00 0.00 0.00 0.00 0.00 0.00 0.00 0.00 0.00 0.00 0.00 0.01 0.05 0.08 0.13 0.15 0.10 0.06 0.04 0.20 0.21 0.12 0.04 0.01 0.00 0.00 0.00 0.00 0.00 0.00 0.00
0.48 0.20 0.06 0.01 0.00 0.00 0.00 0.00 0.00 0.00 0.00 0.00 0.00 0.00 0.00 0.00 0.00 0.00 0.00 0.00 0.00 0.00 0.00 0.00 0.00 0.00 0.00 0.02 0.09 0.18 0.15 0.15 0.12 0.11 0.16 0.05 0.09 0.17 0.11 0.04 0.00 0.00 0.00 0.00 0.00 0.00 0.00
0.52 0.15 0.05 0.01 0.00 0.00 0.00 0.00 0.00 0.00 0.00 0.00 0.00 0.00 0.00 0.00 0.00 0.00 0.00 0.00 0.00 0.00 0.00 0.00 0.00 0.00 0.01 0.06 0.10 0.12 0.08 0.08 0.13 0.13 0.07 0.22 0.18 0.12 0.10 0.06 0.00 0.00 0.00 0.00 0.00 0.00 0.00
0.47 0.14 0.03 0.00 0.00 0.00 0.00 0.00 0.00 0.00 0.00 0.00 0.00 0.00 0.00 0.00 0.00 0.00 0.00 0.00 0.00 0.00 0.00 0.00 0.00 0.00 0.01 0.10 0.27 0.24 0.11 0.04 0.04 0.07 0.03 0.05 0.14 0.13 0.09 0.09 0.02 0.00 0.00 0.00 0.00 0.00 0.00
0.56 0.18 0.03 0.00 0.00 0.00 0.00 0.00 0.00 0.00 0.00 0.00 0.00 0.00 0.00 0.00 0.00 0.00 0.00 0.00 0.00 0.00 0.00 0.00 0.00 0.00 0.01 0.05 0.17 0.18 0.23 0.23 0.09 0.06 0.02 0.03 0.02 0.04 0.01 0.01 0.00 0.00 0.00 0.00 0.00 0.00 0.00

GFSGBSN_prec_precacc12_090.txt.gz
Total_Precipitation_Accumulation
0.00 0.00 0.00 0.00 0.00 0.00 0.00 0.00 0.00 0.00 0.01 0.02 0.02 0.02 0.02 0.01 0.01 0.00 0.00 0.00 0.00 0.00 0.00 0.00 0.00 0.00 0.00 0.01 0.01 0.06 0.03 0.06 0.03 0.04 0.09 0.23 0.12 0.01 0.01 0.03 0.14 0.22 0.15 0.13 0.06 0.01 0.02
0.00 0.00 0.00 0.00 0.00 0.00 0.00 0.00 0.00 0.00 0.01 0.02 0.03 0.02 0.02 0.02 0.01 0.01 0.00 0.00 0.00 0.00 0.00 0.00 0.00 0.00 0.01 0.01 0.00 0.01 0.01 0.04 0.01 0.12 0.09 0.21 0.13 0.02 0.01 0.05 0.08 0.08 0.20 0.21 0.12 0.02 0.00
0.01 0.01 0.00 0.00 0.00 0.00 0.00 0.00 0.00 0.00 0.00 0.01 0.02 0.02 0.02 0.02 0.01 0.00 0.00 0.00 0.00 0.00 0.00 0.00 0.00 0.00 0.00 0.00 0.00 0.00 0.00 0.01 0.01 0.14 0.18 0.22 0.05 0.02 0.01 0.07 0.04 0.05 0.24 0.29 0.17 0.05 0.02
0.03 0.01 0.00 0.00 0.00 0.00 0.00 0.00 0.00 0.00 0.01 0.01 0.01 0.02 0.02 0.01 0.01 0.00 0.00 0.00 0.00 0.00 0.00 0.00 0.00 0.00 0.01 0.00 0.00 0.00 0.00 0.00 0.04 0.12 0.10 0.27 0.06 0.05 0.02 0.02 0.09 0.09 0.15 0.26 0.13 0.04 0.04
0.03 0.02 0.01 0.00 0.00 0.00 0.00 0.00 0.00 0.00 0.01 0.01 0.01 0.01 0.01 0.01 0.00 0.00 0.00 0.00 0.00 0.00 0.00 0.00 0.00 0.00 0.00 0.00 0.00 0.00 0.00 0.02 0.09 0.16 0.12 0.39 0.13 0.06 0.05 0.06 0.10 0.10 0.04 0.06 0.12 0.06 0.03
0.03 0.01 0.01 0.00 0.00 0.00 0.00 0.00 0.00 0.00 0.01 0.01 0.01 0.01 0.01 0.01 0.00 0.00 0.00 0.00 0.00 0.00 0.00 0.00 0.00 0.00 0.00 0.01 0.00 0.00 0.00 0.00 0.09 0.18 0.14 0.63 0.13 0.06 0.03 0.04 0.03 0.02 0.01 0.01 0.03 0.04 0.01
0.04 0.03 0.03 0.01 0.00 0.00 0.00 0.00 0.00 0.00 0.01 0.00 0.00 0.01 0.01 0.01 0.00 0.00 0.00 0.00 0.00 0.00 0.00 0.00 0.00 0.00 0.00 0.00 0.00 0.00 0.00 0.01 0.10 0.12 0.09 0.67 0.10 0.04 0.00 0.01 0.00 0.01 0.01 0.01 0.00 0.01 0.02
0.06 0.05 0.03 0.01 0.00 0.00 0.00 0.00 0.00 0.00 0.00 0.00 0.00 0.01 0.01 0.01 0.00 0.00 0.00 0.00 0.00 0.00 0.00 0.00 0.00 0.00 0.00 0.00 0.00 0.00 0.01 0.04 0.14 0.04 0.06 0.41 0.10 0.01 0.00 0.00 0.01 0.01 0.00 0.01 0.00 0.00 0.01
0.10 0.07 0.04 0.02 0.00 0.00 0.00 0.00 0.00 0.00 0.00 0.00 0.00 0.01 0.01 0.00 0.00 0.00 0.00 0.00 0.00 0.00 0.00 0.00 0.00 0.00 0.00 0.00 0.01 0.01 0.03 0.02 0.04 0.01 0.05 0.29 0.08 0.00 0.01 0.01 0.01 0.00 0.00 0.01 0.00 0.00 0.00
0.10 0.06 0.05 0.01 0.00 0.00 0.00 0.00 0.00 0.00 0.00 0.00 0.00 0.01 0.01 0.00 0.00 0.00 0.00 0.00 0.00 0.00 0.01 0.02 0.01 0.00 0.00 0.00 0.01 0.01 0.01 0.01 0.01 0.03 0.04 0.09 0.03 0.00 0.01 0.01 0.00 0.01 0.00 0.01 0.00 0.00 0.01
0.15 0.13 0.11 0.05 0.00 0.00 0.00 0.00 0.00 0.00 0.00 0.00 0.00 0.00 0.00 0.00 0.00 0.00 0.00 0.00 0.00 0.00 0.01 0.01 0.02 0.00 0.00 0.00 0.00 0.00 0.00 0.01 0.00 0.04 0.08 0.07 0.01 0.00 0.01 0.00 0.00 0.01 0.00 0.00 0.00 0.01 0.01
0.18 0.12 0.11 0.09 0.01 0.00 0.00 0.00 0.00 0.00 0.00 0.00 0.00 0.00 0.00 0.00 0.00 0.00 0.00 0.00 0.00 0.00 0.00 0.00 0.01 0.01 0.00 0.00 0.00 0.00 0.00 0.00 0.00 0.02 0.07 0.06 0.01 0.01 0.01 0.01 0.00 0.01 0.01 0.00 0.01 0.01 0.01
0.34 0.13 0.07 0.06 0.03 0.00 0.00 0.00 0.00 0.00 0.00 0.00 0.00 0.00 0.00 0.00 0.00 0.00 0.00 0.00 0.00 0.00 0.00 0.00 0.01 0.01 0.01 0.00 0.00 0.00 0.01 0.00 0.01 0.01 0.13 0.08 0.04 0.01 0.01 0.05 0.05 0.01 0.02 0.04 0.03 0.03 0.01
0.46 0.40 0.25 0.19 0.12 0.03 0.00 0.00 0.00 0.00 0.00 0.00 0.00 0.00 0.00 0.00 0.00 0.00 0.00 0.00 0.00 0.00 0.00 0.00 0.00 0.00 0.01 0.00 0.00 0.00 0.01 0.00 0.00 0.01 0.04 0.10 0.10 0.01 0.01 0.02 0.03 0.01 0.02 0.02 0.01 0.00 0.00
0.37 0.39 0.35 0.27 0.21 0.09 0.00 0.00 0.00 0.00 0.00 0.00 0.00 0.00 0.00 0.00 0.00 0.00 0.00 0.00 0.00 0.00 0.00 0.00 0.00 0.01 0.01 0.01 0.01 0.01 0.01 0.00 0.00 0.00 0.05 0.06 0.04 0.00 0.00 0.01 0.03 0.04 0.03 0.01 0.03 0.00 0.00
0.44 0.32 0.29 0.30 0.20 0.06 0.00 0.00 0.00 0.00 0.00 0.00 0.00 0.00 0.00 0.00 0.00 0.00 0.00 0.00 0.00 0.00 0.00 0.00 0.00 0.00 0.00 0.01 0.00 0.01 0.00 0.00 0.00 0.00 0.02 0.07 0.11 0.02 0.00 0.01 0.01 0.03 0.02 0.02 0.03 0.02 0.00
0.56 0.48 0.28 0.23 0.20 0.06 0.00 0.00 0.00 0.00 0.00 0.00 0.00 0.00 0.00 0.00 0.00 0.00 0.00 0.00 0.00 0.00 0.00 0.00 0.00 0.00 0.00 0.00 0.01 0.01 0.00 0.00 0.00 0.00 0.01 0.02 0.05 0.08 0.08 0.04 0.02 0.01 0.02 0.01 0.01 0.00 0.00
0.63 0.65 0.46 0.26 0.20 0.05 0.00 0.00 0.00 0.00 0.00 0.00 0.00 0.00 0.00 0.00 0.00 0.00 0.00 0.00 0.00 0.00 0.00 0.00 0.00 0.00 0.00 0.00 0.01 0.01 0.01 0.03 0.01 0.00 0.01 0.01 0.06 0.06 0.03 0.00 0.00 0.01 0.01 0.03 0.03 0.01 0.00
0.45 0.55 0.48 0.38 0.23 0.06 0.00 0.00 0.00 0.00 0.00 0.00 0.00 0.00 0.00 0.00 0.00 0.00 0.00 0.00 0.00 0.00 0.00 0.00 0.00 0.00 0.00 0.00 0.00 0.00 0.01 0.00 0.03 0.06 0.07 0.02 0.10 0.10 0.13 0.09 0.03 0.03 0.01 0.01 0.01 0.03 0.03
0.68 0.48 0.44 0.37 0.33 0.07 0.00 0.00 0.00 0.00 0.00 0.00 0.00 0.00 0.00 0.00 0.00 0.00 0.00 0.00 0.00 0.00 0.00 0.00 0.00 0.00 0.00 0.00 0.00 0.01 0.02 0.03 0.01 0.07 0.18 0.27 0.12 0.02 0.04 0.02 0.00 0.00 0.00 0.00 0.03 0.06 0.01
0.85 0.68 0.53 0.41 0.33 0.09 0.00 0.00 0.00 0.00 0.00 0.00 0.00 0.00 0.00 0.00 0.00 0.00 0.00 0.00 0.00 0.00 0.00 0.00 0.00 0.00 0.00 0.00 0.00 0.00 0.02 0.03 0.05 0.05 0.17 0.60 0.60 0.10 0.02 0.01 0.01 0.01 0.00 0.00 0.01 0.01 0.01
0.72 0.78 0.57 0.47 0.32 0.08 0.00 0.00 0.00 0.00 0.00 0.00 0.00 0.00 0.00 0.00 0.00 0.00 0.00 0.00 0.00 0.00 0.00 0.00 0.00 0.00 0.00 0.01 0.03 0.05 0.07 0.10 0.09 0.08 0.19 0.33 0.38 0.27 0.22 0.14 0.08 0.02 0.00 0.00 0.00 0.00 0.00
0.68 0.64 0.50 0.44 0.34 0.06 0.00 0.00 0.00 0.00 0.00 0.00 0.00 0.00 0.00 0.00 0.00 0.00 0.00 0.00 0.00 0.00 0.00 0.00 0.00 0.00 0.00 0.02 0.03 0.04 0.07 0.11 0.22 0.25 0.15 0.32 0.36 0.28 0.16 0.05 0.19 0.18 0.00 0.00 0.00 0.00 0.00
0.90 0.77 0.44 0.38 0.28 0.06 0.00 0.00 0.00 0.00 0.00 0.00 0.00 0.00 0.00 0.00 0.00 0.00 0.00 0.00 0.00 0.00 0.00 0.00 0.00 0.00 0.00 0.00 0.01 0.03 0.05 0.06 0.05 0.11 0.25 0.19 0.24 0.29 0.23 0.05 0.07 0.01 0.00 0.00 0.00 0.00 0.00
0.72 0.68 0.55 0.34 0.21 0.04 0.00 0.00 0.00 0.00 0.00 0.00 0.00 0.00 0.00 0.00 0.00 0.00 0.00 0.00 0.00 0.00 0.00 0.00 0.00 0.00 0.00 0.00 0.02 0.05 0.12 0.15 0.11 0.06 0.04 0.20 0.22 0.27 0.19 0.05 0.01 0.00 0.00 0.00 0.00 0.00 0.00
0.67 0.54 0.51 0.38 0.16 0.04 0.00 0.00 0.00 0.00 0.00 0.00 0.00 0.00 0.00 0.00 0.00 0.00 0.00 0.00 0.00 0.00 0.00 0.00 0.00 0.00 0.00 0.01 0.04 0.07 0.12 0.15 0.16 0.13 0.16 0.05 0.12 0.30 0.23 0.10 0.02 0.00 0.00 0.00 0.00 0.00 0.00
0.96 0.55 0.35 0.27 0.13 0.02 0.00 0.00 0.00 0.00 0.00 0.00 0.00 0.00 0.00 0.00 0.00 0.00 0.00 0.00 0.00 0.00 0.00 0.00 0.00 0.00 0.00 0.02 0.05 0.03 0.05 0.08 0.14 0.17 0.08 0.25 0.19 0.12 0.12 0.11 0.01 0.00 0.00 0.00 0.00 0.00 0.00
0.88 0.78 0.48 0.20 0.08 0.01 0.00 0.00 0.00 0.00 0.00 0.00 0.00 0.00 0.00 0.00 0.00 0.00 0.00 0.00 0.00 0.00 0.00 0.00 0.00 0.00 0.00 0.01 0.11 0.10 0.05 0.03 0.04 0.07 0.04 0.06 0.15 0.13 0.10 0.13 0.02 0.00 0.00 0.00 0.00 0.00 0.00
0.93 0.51 0.35 0.19 0.06 0.01 0.00 0.00 0.00 0.00 0.00 0.00 0.00 0.00 0.00 0.00 0.00 0.00 0.00 0.00 0.00 0.00 0.00 0.00 0.00 0.00 0.00 0.00 0.01 0.04 0.11 0.17 0.09 0.06 0.02 0.03 0.03 0.06 0.05 0.03 0.00 0.00 0.00 0.00 0.00 0.00 0.00

GFSGBSN_prec_precacc12_096.txt.gz
Total_Precipitation_Accumulation
0.02 0.02 0.01 0.02 0.03 0.01 0.00 0.00 0.00 0.00 0.00 0.01 0.01 0.01 0.01 0.01 0.01 0.01 0.01 0.01 0.00 0.00 0.00 0.00 0.00 0.00 0.00 0.02 0.01 0.03 0.01 0.03 0.02 0.03 0.13 0.58 0.29 0.06 0.01 0.03 0.44 0.38 0.31 0.19 0.18 0.11 0.03
0.06 0.07 0.06 0.02 0.03 0.03 0.01 0.00 0.00 0.00 0.00 0.00 0.01 0.01 0.01 0.01 0.01 0.00 0.00 0.00 0.00 0.00 0.00 0.00 0.00 0.00 0.01 0.01 0.00 0.00 0.00 0.02 0.01 0.09 0.16 0.50 0.39 0.08 0.00 0.02 0.14 0.23 0.44 0.26 0.21 0.17 0.05
0.08 0.09 0.06 0.04 0.04 0.04 0.02 0.01 0.00 0.00 0.00 0.00 0.01 0.01 0.01 0.01 0.00 0.00 0.00 0.00 0.00 0.00 0.00 0.00 0.00 0.00 0.00 0.00 0.00 0.00 0.00 0.01 0.00 0.13 0.31 0.38 0.24 0.05 0.01 0.03 0.02 0.11 0.41 0.51 0.30 0.27 0.14
0.09 0.08 0.07 0.06 0.04 0.05 0.04 0.03 0.00 0.00 0.00 0.00 0.00 0.01 0.01 0.01 0.00 0.00 0.00 0.00 0.00 0.00 0.00 0.00 0.00 0.00 0.01 0.00 0.00 0.00 0.00 0.00 0.02 0.08 0.09 0.15 0.09 0.04 0.02 0.01 0.03 0.08 0.34 0.52 0.37 0.32 0.26
0.10 0.08 0.08 0.07 0.07 0.07 0.06 0.05 0.01 0.00 0.01 0.00 0.00 0.00 0.00 0.00 0.00 0.00 0.00 0.00 0.00 0.00 0.00 0.00 0.00 0.00 0.00 0.00 0.00 0.00 0.00 0.03 0.05 0.05 0.07 0.16 0.06 0.05 0.04 0.03 0.05 0.05 0.16 0.21 0.26 0.24 0.27
0.08 0.08 0.09 0.10 0.13 0.11 0.08 0.06 0.02 0.00 0.01 0.00 0.00 0.00 0.00 0.00 0.00 0.00 0.00 0.00 0.00 0.00 0.00 0.00 0.00 0.00 0.00 0.00 0.00 0.00 0.00 0.00 0.04 0.07 0.08 0.28 0.07 0.04 0.02 0.02 0.02 0.00 0.00 0.02 0.08 0.15 0.12
0.09 0.09 0.11 0.12 0.13 0.12 0.08 0.06 0.03 0.01 0.00 0.00 0.00 0.00 0.00 0.01 0.00 0.00 0.00 0.00 0.00 0.00 0.00 0.00 0.00 0.00 0.00 0.00 0.00 0.00 0.00 0.01 0.01 0.05 0.06 0.22 0.05 0.03 0.00 0.00 0.00 0.00 0.00 0.01 0.01 0.03 0.05
0.10 0.11 0.12 0.16 0.16 0.16 0.12 0.07 0.04 0.01 0.00 0.00 0.00 0.00 0.00 0.00 0.00 0.00 0.00 0.00 0.00 0.00 0.00 0.00 0.00 0.00 0.00 0.00 0.00 0.00 0.00 0.01 0.01 0.02 0.01 0.10 0.03 0.01 0.00 0.00 0.00 0.00 0.00 0.02 0.02 0.04 0.05
0.16 0.14 0.12 0.13 0.15 0.16 0.15 0.12 0.07 0.02 0.00 0.00 0.00 0.00 0.00 0.00 0.00 0.00 0.00 0.00 0.00 0.00 0.00 0.00 0.00 0.00 0.00 0.00 0.00 0.01 0.00 0.00 0.00 0.00 0.01 0.06 0.02 0.00 0.00 0.00 0.00 0.00 0.00 0.01 0.01 0.02 0.04
0.18 0.16 0.15 0.15 0.16 0.17 0.19 0.22 0.16 0.05 0.01 0.00 0.00 0.00 0.00 0.00 0.00 0.00 0.00 0.00 0.00 0.00 0.00 0.00 0.00 0.00 0.00 0.00 0.00 0.00 0.00 0.01 0.00 0.00 0.00 0.02 0.00 0.00 0.00 0.01 0.00 0.02 0.01 0.01 0.02 0.01 0.01
0.22 0.23 0.23 0.23 0.23 0.24 0.25 0.32 0.30 0.16 0.02 0.00 0.00 0.00 0.00 0.00 0.00 0.00 0.00 0.00 0.00 0.00 0.00 0.00 0.00 0.00 0.00 0.00 0.00 0.00 0.00 0.01 0.00 0.00 0.01 0.01 0.00 0.00 0.00 0.00 0.00 0.01 0.00 0.01 0.02 0.01 0.01
0.24 0.23 0.23 0.24 0.27 0.29 0.29 0.29 0.28 0.17 0.03 0.00 0.00 0.00 0.00 0.00 0.00 0.00 0.00 0.00 0.00 0.00 0.00 0.00 0.00 0.00 0.00 0.00 0.00 0.00 0.00 0.00 0.00 0.00 0.00 0.00 0.00 0.00 0.00 0.01 0.00 0.01 0.02 0.01 0.02 0.03 0.03
0.38 0.28 0.22 0.22 0.24 0.26 0.29 0.35 0.35 0.16 0.04 0.00 0.00 0.00 0.00 0.00 0.00 0.00 0.00 0.00 0.00 0.00 0.00 0.00 0.00 0.00 0.00 0.00 0.00 0.00 0.00 0.00 0.01 0.01 0.00 0.01 0.01 0.01 0.00 0.03 0.02 0.01 0.06 0.07 0.06 0.12 0.04
0.48 0.49 0.40 0.37 0.35 0.35 0.39 0.41 0.41 0.24 0.07 0.00 0.00 0.00 0.00 0.00 0.00 0.00 0.00 0.00 0.00 0.00 0.00 0.00 0.00 0.00 0.00 0.00 0.00 0.00 0.00 0.00 0.00 0.01 0.03 0.03 0.04 0.01 0.00 0.01 0.01 0.01 0.04 0.04 0.01 0.00 0.00
0.38 0.46 0.48 0.43 0.47 0.52 0.55 0.43 0.38 0.23 0.06 0.00 0.00 0.00 0.00 0.00 0.00 0.00 0.00 0.00 0.00 0.00 0.00 0.00 0.00 0.00 0.00 0.00 0.00 0.00 0.00 0.00 0.00 0.00 0.05 0.06 0.04 0.00 0.00 0.01 0.03 0.04 0.03 0.01 0.03 0.00 0.00
0.46 0.38 0.44 0.45 0.43 0.46 0.46 0.45 0.39 0.23 0.07 0.00 0.00 0.00 0.00 0.00 0.00 0.00 0.00 0.00 0.00 0.00 0.00 0.00 0.00 0.00 0.00 0.00 0.00 0.00 0.00 0.00 0.00 0.00 0.03 0.09 0.12 0.02 0.00 0.01 0.01 0.03 0.02 0.03 0.04 0.03 0.00
0.58 0.53 0.40 0.43 0.46 0.42 0.44 0.45 0.39 0.26 0.09 0.00 0.00 0.00 0.00 0.00 0.00 0.00 0.00 0.00 0.00 0.00 0.00 0.00 0.00 0.00 0.00 0.00 0.01 0.01 0.01 0.00 0.00 0.00 0.01 0.07 0.14 0.12 0.10 0.03 0.01 0.01 0.02 0.01 0.01 0.00 0.00
0.65 0.70 0.63 0.47 0.51 0.45 0.51 0.59 0.45 0.23 0.04 0.00 0.00 0.00 0.00 0.00 0.00 0.00 0.00 0.00 0.00 0.00 0.00 0.00 0.00 0.00 0.00 0.00 0.00 0.01 0.01 0.04 0.02 0.03 0.07 0.12 0.21 0.17 0.06 0.03 0.02 0.03 0.02 0.04 0.03 0.01 0.00
0.51 0.64 0.68 0.67 0.53 0.50 0.48 0.69 0.54 0.24 0.03 0.00 0.00 0.01 0.00 0.00 0.00 0.00 0.00 0.00 0.00 0.00 0.00 0.00 0.00 0.00 0.00 0.00 0.00 0.00 0.01 0.00 0.03 0.11 0.17 0.19 0.39 0.31 0.22 0.18 0.17 0.16 0.02 0.02 0.03 0.04 0.03
0.86 0.63 0.67 0.66 0.65 0.58 0.51 0.48 0.42 0.17 0.03 0.00 0.00 0.00 0.00 0.00 0.00 0.00 0.00 0.00 0.00 0.00 0.00 0.00 0.00 0.00 0.00 0.00 0.00 0.01 0.02 0.03 0.01 0.08 0.23 0.45 0.52 0.28 0.19 0.16 0.11 0.10 0.06 0.01 0.07 0.15 0.02
0.95 0.82 0.77 0.72 0.66 0.62 0.62 0.47 0.24 0.10 0.01 0.00 0.00 0.00 0.00 0.00 0.00 0.00 0.00 0.00 0.00 0.00 0.00 0.00 0.00 0.00 0.00 0.00 0.00 0.00 0.01 0.03 0.05 0.05 0.17 0.57 0.55 0.19 0.07 0.05 0.17 0.14 0.05 0.09 0.13 0.04 0.02
0.83 0.96 0.89 1.00 0.78 0.63 0.52 0.54 0.24 0.06 0.00 0.00 0.00 0.00 0.00 0.00 0.00 0.00 0.00 0.00 0.00 0.00 0.00 0.00 0.00 0.00 0.00 0.00 0.00 0.01 0.02 0.05 0.07 0.06 0.19 0.35 0.41 0.30 0.20 0.13 0.10 0.03 0.02 0.05 0.05 0.01 0.01
0.74 0.78 0.73 0.87 0.91 0.71 0.45 0.44 0.26 0.04 0.00 0.00 0.00 0.00 0.00 0.00 0.00 0.00 0.00 0.00 0.00 0.00 0.00 0.00 0.00 0.00 0.00 0.00 0.00 0.00 0.00 0.01 0.12 0.17 0.11 0.34 0.39 0.29 0.20 0.10 0.31 0.31 0.02 0.00 0.00 0.00 0.00
0.90 0.86 0.56 0.59 0.66 0.70 0.60 0.42 0.23 0.03 0.00 0.00 0.00 0.00 0.00 0.00 0.00 0.00 0.00 0.00 0.00 0.00 0.00 0.00 0.00 0.00 0.00 0.00 0.00 0.00 0.00 0.00 0.00 0.06 0.12 0.13 0.23 0.28 0.28 0.21 0.21 0.04 0.00 0.00 0.00 0.00 0.00
0.70 0.72 0.62 0.51 0.51 0.51 0.58 0.45 0.17 0.01 0.00 0.00 0.00 0.00 0.00 0.00 0.00 0.00 0.00 0.00 0.00 0.00 0.00 0.00 0.00 0.00 0.00 0.00 0.00 0.00 0.01 0.01 0.01 0.00 0.03 0.18 0.20 0.23 0.23 0.20 0.06 0.00 0.00 0.00 0.00 0.00 0.00
0.62 0.58 0.65 0.81 0.61 0.44 0.43 0.32 0.17 0.02 0.00 0.00 0.00 0.00 0.00 0.00 0.00 0.00 0.00 0.00 0.00 0.00 0.00 0.00 0.00 0.00 0.00 0.00 0.00 0.01 0.01 0.02 0.08 0.09 0.02 0.03 0.10 0.24 0.20 0.21 0.07 0.00 0.00 0.00 0.00 0.00 0.00
0.93 0.65 0.45 0.54 0.79 0.62 0.47 0.27 0.15 0.04 0.00 0.00 0.00 0.00 0.00 0.00 0.00 0.00 0.00 0.00 0.00 0.00 0.00 0.00 0.00 0.00 0.00 0.00 0.00 0.01 0.01 0.00 0.02 0.12 0.05 0.16 0.13 0.07 0.09 0.11 0.01 0.00 0.00 0.00 0.00 0.00 0.00
0.89 0.93 0.78 0.35 0.36 0.62 0.62 0.33 0.16 0.03 0.00 0.00 0.00 0.00 0.00 0.00 0.00 0.00 0.00 0.00 0.00 0.00 0.00 0.00 0.00 0.00 0.00 0.00 0.00 0.00 0.00 0.00 0.00 0.02 0.03 0.05 0.13 0.12 0.08 0.10 0.02 0.00 0.00 0.00 0.00 0.00 0.00
0.89 0.57 0.57 0.54 0.33 0.28 0.42 0.34 0.18 0.02 0.00 0.00 0.00 0.00 0.00 0.00 0.00 0.00 0.00 0.00 0.00 0.00 0.00 0.00 0.00 0.00 0.00 0.00 0.00 0.00 0.00 0.00 0.00 0.00 0.00 0.01 0.03 0.08 0.07 0.04 0.01 0.01 0.00 0.00 0.00 0.00 0.00

GFSGBSN_prec_precacc12_099.txt.gz
Total_Precipitation_Accumulation
0.07 0.07 0.06 0.06 0.07 0.04 0.03 0.02 0.01 0.01 0.00 0.00 0.00 0.01 0.01 0.01 0.01 0.01 0.01 0.01 0.00 0.00 0.00 0.00 0.00 0.00 0.00 0.01 0.00 0.00 0.00 0.01 0.02 0.02 0.21 0.57 0.30 0.08 0.04 0.18 0.80 0.82 0.62 0.21 0.17 0.12 0.04
0.09 0.10 0.10 0.07 0.07 0.06 0.05 0.02 0.03 0.01 0.00 0.00 0.01 0.01 0.01 0.01 0.00 0.00 0.00 0.00 0.00 0.00 0.00 0.00 0.00 0.00 0.01 0.01 0.00 0.00 0.00 0.01 0.01 0.06 0.15 0.46 0.36 0.08 0.02 0.13 0.36 0.67 0.86 0.28 0.20 0.17 0.06
0.10 0.11 0.09 0.07 0.07 0.07 0.06 0.04 0.03 0.02 0.01 0.00 0.00 0.01 0.00 0.01 0.00 0.00 0.00 0.00 0.00 0.00 0.00 0.00 0.00 0.00 0.00 0.00 0.00 0.00 0.00 0.00 0.00 0.11 0.25 0.33 0.22 0.04 0.01 0.06 0.06 0.37 0.94 0.58 0.27 0.26 0.15
0.10 0.09 0.08 0.08 0.08 0.09 0.09 0.08 0.06 0.05 0.01 0.00 0.00 0.00 0.00 0.01 0.00 0.00 0.00 0.00 0.00 0.00 0.00 0.00 0.00 0.00 0.01 0.00 0.00 0.00 0.00 0.00 0.02 0.07 0.04 0.05 0.07 0.01 0.01 0.01 0.02 0.12 0.58 0.86 0.40 0.35 0.30
0.10 0.09 0.09 0.08 0.10 0.12 0.14 0.13 0.09 0.05 0.03 0.01 0.00 0.00 0.00 0.00 0.00 0.00 0.00 0.00 0.00 0.00 0.00 0.00 0.00 0.00 0.00 0.00 0.00 0.00 0.00 0.02 0.03 0.02 0.00 0.00 0.01 0.01 0.02 0.02 0.02 0.02 0.19 0.45 0.45 0.31 0.44
0.08 0.08 0.09 0.11 0.14 0.15 0.15 0.13 0.12 0.11 0.08 0.01 0.00 0.00 0.00 0.00 0.00 0.00 0.00 0.00 0.00 0.00 0.00 0.00 0.00 0.00 0.00 0.00 0.00 0.00 0.00 0.00 0.03 0.01 0.00 0.05 0.02 0.01 0.01 0.01 0.01 0.00 0.00 0.04 0.18 0.22 0.30
0.09 0.09 0.11 0.12 0.13 0.13 0.12 0.12 0.15 0.13 0.07 0.02 0.00 0.00 0.00 0.00 0.00 0.00 0.00 0.00 0.00 0.00 0.00 0.00 0.00 0.00 0.00 0.00 0.00 0.00 0.00 0.01 0.00 0.02 0.02 0.07 0.02 0.01 0.00 0.00 0.00 0.00 0.00 0.01 0.01 0.06 0.13
0.09 0.10 0.12 0.16 0.16 0.16 0.14 0.13 0.17 0.18 0.12 0.07 0.01 0.00 0.00 0.00 0.00 0.00 0.00 0.00 0.00 0.00 0.00 0.00 0.00 0.00 0.00 0.00 0.00 0.00 0.00 0.01 0.01 0.01 0.01 0.03 0.02 0.00 0.00 0.00 0.00 0.00 0.00 0.00 0.02 0.05 0.07
0.14 0.14 0.12 0.13 0.15 0.16 0.16 0.16 0.20 0.20 0.17 0.13 0.03 0.00 0.00 0.00 0.00 0.00 0.00 0.00 0.00 0.00 0.00 0.00 0.00 0.00 0.00 0.00 0.00 0.00 0.00 0.00 0.00 0.00 0.00 0.00 0.02 0.00 0.00 0.00 0.00 0.00 0.00 0.01 0.01 0.02 0.04
0.18 0.16 0.15 0.15 0.16 0.17 0.19 0.23 0.29 0.31 0.32 0.24 0.07 0.01 0.00 0.00 0.00 0.00 0.00 0.00 0.00 0.00 0.00 0.00 0.00 0.00 0.00 0.00 0.00 0.00 0.00 0.00 0.00 0.00 0.00 0.00 0.00 0.00 0.00 0.01 0.00 0.01 0.01 0.01 0.02 0.01 0.01
0.18 0.23 0.23 0.23 0.23 0.24 0.25 0.33 0.38 0.39 0.40 0.31 0.14 0.02 0.00 0.00 0.00 0.00 0.00 0.00 0.00 0.00 0.00 0.00 0.00 0.00 0.00 0.00 0.00 0.00 0.00 0.00 0.00 0.00 0.00 0.01 0.00 0.00 0.00 0.00 0.00 0.00 0.00 0.01 0.02 0.01 0.00
0.16 0.23 0.23 0.24 0.27 0.29 0.29 0.30 0.34 0.36 0.37 0.32 0.15 0.03 0.00 0.00 0.00 0.00 0.00 0.00 0.00 0.00 0.00 0.00 0.00 0.00 0.00 0.00 0.00 0.00 0.00 0.00 0.00 0.00 0.00 0.00 0.00 0.00 0.00 0.00 0.00 0.00 0.02 0.01 0.02 0.03 0.03
0.23 0.26 0.22 0.22 0.24 0.26 0.29 0.35 0.44 0.38 0.32 0.24 0.12 0.04 0.00 0.00 0.00 0.00 0.00 0.00 0.00 0.00 0.00 0.00 0.00 0.00 0.00 0.00 0.00 0.00 0.00 0.00 0.00 0.00 0.00 0.00 0.00 0.00 0.00 0.02 0.02 0.00 0.06 0.07 0.08 0.19 0.05
0.19 0.41 0.40 0.37 0.35 0.35 0.39 0.41 0.47 0.48 0.41 0.29 0.10 0.02 0.00 0.00 0.00 0.00 0.00 0.00 0.00 0.00 0.00 0.00 0.00 0.00 0.00 0.00 0.00 0.00 0.00 0.00 0.00 0.00 0.01 0.00 0.01 0.00 0.00 0.01 0.01 0.01 0.06 0.09 0.01 0.01 0.02
0.12 0.24 0.46 0.44 0.47 0.52 0.55 0.43 0.44 0.51 0.54 0.37 0.15 0.01 0.00 0.00 0.00 0.00 0.00 0.00 0.00 0.00 0.00 0.00 0.00 0.00 0.00 0.00 0.00 0.00 0.00 0.00 0.00 0.00 0.02 0.00 0.00 0.00 0.00 0.00 0.02 0.02 0.02 0.03 0.08 0.02 0.00
0.19 0.24 0.42 0.46 0.43 0.46 0.46 0.45 0.42 0.46 0.51 0.31 0.15 0.02 0.00 0.00 0.00 0.00 0.00 0.00 0.00 0.00 0.00 0.00 0.00 0.00 0.00 0.00 0.00 0.00 0.00 0.00 0.00 0.00 0.02 0.06 0.09 0.01 0.01 0.03 0.03 0.01 0.02 0.03 0.06 0.07 0.00
0.32 0.40 0.44 0.44 0.46 0.42 0.44 0.45 0.42 0.44 0.52 0.28 0.10 0.05 0.00 0.00 0.00 0.00 0.00 0.00 0.00 0.00 0.00 0.00 0.00 0.00 0.00 0.00 0.00 0.01 0.01 0.00 0.00 0.00 0.01 0.07 0.15 0.11 0.12 0.04 0.01 0.02 0.02 0.01 0.01 0.00 0.00
0.31 0.47 0.62 0.49 0.52 0.46 0.52 0.60 0.52 0.47 0.50 0.35 0.08 0.02 0.00 0.00 0.00 0.00 0.00 0.00 0.00 0.00 0.00 0.00 0.00 0.00 0.00 0.00 0.00 0.00 0.01 0.02 0.02 0.03 0.08 0.14 0.23 0.15 0.06 0.07 0.06 0.05 0.04 0.05 0.03 0.00 0.00
0.27 0.43 0.64 0.69 0.54 0.50 0.48 0.72 0.67 0.55 0.41 0.22 0.09 0.03 0.03 0.00 0.01 0.02 0.00 0.00 0.00 0.00 0.00 0.00 0.00 0.00 0.00 0.00 0.00 0.00 0.00 0.00 0.03 0.09 0.17 0.22 0.40 0.33 0.23 0.19 0.19 0.17 0.02 0.03 0.03 0.04 0.02
0.49 0.40 0.61 0.68 0.66 0.59 0.52 0.54 0.61 0.52 0.36 0.20 0.08 0.01 0.03 0.01 0.01 0.01 0.00 0.00 0.00 0.00 0.00 0.00 0.00 0.00 0.00 0.00 0.00 0.00 0.00 0.00 0.01 0.05 0.15 0.41 0.47 0.29 0.26 0.23 0.20 0.17 0.11 0.03 0.08 0.15 0.01
0.37 0.44 0.61 0.73 0.72 0.66 0.65 0.54 0.45 0.35 0.30 0.21 0.04 0.00 0.00 0.00 0.00 0.01 0.00 0.00 0.00 0.00 0.00 0.00 0.00 0.00 0.00 0.00 0.00 0.00 0.00 0.00 0.01 0.03 0.11 0.36 0.45 0.17 0.06 0.04 0.20 0.18 0.12 0.19 0.28 0.05 0.02
0.39 0.59 0.81 1.17 0.94 0.79 0.69 0.71 0.40 0.30 0.26 0.18 0.01 0.00 0.00 0.00 0.00 0.00 0.00 0.00 0.00 0.00 0.00 0.00 0.00 0.00 0.00 0.00 0.00 0.00 0.00 0.00 0.01 0.02 0.08 0.23 0.30 0.27 0.14 0.08 0.09 0.03 0.04 0.11 0.14 0.14 0.06
0.31 0.51 0.71 0.94 1.05 0.87 0.62 0.68 0.43 0.26 0.27 0.12 0.01 0.00 0.00 0.00 0.00 0.00 0.00 0.00 0.00 0.00 0.00 0.00 0.00 0.00 0.00 0.00 0.00 0.00 0.00 0.00 0.00 0.01 0.02 0.08 0.28 0.22 0.15 0.07 0.23 0.25 0.02 0.00 0.01 0.01 0.04
0.48 0.57 0.47 0.61 0.72 0.85 0.75 0.59 0.43 0.24 0.10 0.01 0.00 0.00 0.00 0.00 0.00 0.00 0.00 0.00 0.00 0.00 0.00 0.00 0.00 0.00 0.00 0.00 0.00 0.00 0.00 0.00 0.00 0.00 0.00 0.00 0.09 0.26 0.25 0.21 0.19 0.04 0.00 0.00 0.00 0.00 0.00
0.28 0.47 0.57 0.50 0.55 0.66 0.70 0.66 0.31 0.13 0.03 0.01 0.00 0.00 0.00 0.00 0.00 0.00 0.00 0.00 0.00 0.00 0.00 0.00 0.00 0.00 0.00 0.00 0.00 0.00 0.00 0.00 0.01 0.00 0.00 0.00 0.01 0.15 0.20 0.20 0.06 0.00 0.00 0.00 0.00 0.00 0.00
0.21 0.41 0.61 0.81 0.63 0.50 0.49 0.47 0.28 0.15 0.05 0.00 0.00 0.00 0.00 0.00 0.00 0.00 0.00 0.00 0.00 0.00 0.00 0.00 0.00 0.00 0.00 0.00 0.00 0.00 0.00 0.00 0.05 0.06 0.00 0.00 0.02 0.14 0.15 0.19 0.07 0.00 0.00 0.00 0.00 0.00 0.00
0.48 0.51 0.41 0.53 0.79 0.64 0.57 0.45 0.29 0.26 0.04 0.00 0.00 0.00 0.00 0.00 0.00 0.00 0.00 0.00 0.00 0.00 0.00 0.00 0.00 0.00 0.00 0.00 0.00 0.00 0.00 0.00 0.00 0.05 0.02 0.05 0.03 0.03 0.05 0.08 0.01 0.00 0.00 0.00 0.00 0.00 0.00
0.48 0.81 0.74 0.34 0.36 0.63 0.76 0.55 0.32 0.22 0.03 0.00 0.00 0.00 0.00 0.00 0.00 0.00 0.00 0.00 0.00 0.00 0.00 0.00 0.00 0.00 0.00 0.00 0.00 0.00 0.00 0.00 0.00 0.00 0.00 0.02 0.03 0.04 0.03 0.06 0.01 0.00 0.00 0.00 0.00 0.00 0.00
0.41 0.42 0.55 0.53 0.33 0.30 0.58 0.58 0.42 0.17 0.03 0.00 0.00 0.00 0.00 0.00 0.00 0.00 0.00 0.00 0.00 0.00 0.00 0.00 0.00 0.00 0.00 0.00 0.00 0.00 0.00 0.00 0.00 0.00 0.00 0.00 0.01 0.04 0.06 0.03 0.01 0.01 0.00 0.00 0.00 0.00 0.00

GFSGBSN_prec_precacc12_102.txt.gz
Total_Precipitation_Accumulation
0.09 0.09 0.08 0.08 0.10 0.09 0.06 0.06 0.03 0.01 0.01 0.00 0.00 0.00 0.01 0.01 0.01 0.00 0.00 0.00 0.00 0.00 0.00 0.00 0.00 0.00 0.00 0.00 0.00 0.00 0.00 0.00 0.00 0.02 0.24 0.55 0.29 0.13 0.06 0.17 0.94 1.10 0.96 0.45 0.36 0.15 0.02
0.10 0.12 0.11 0.08 0.08 0.08 0.08 0.06 0.08 0.04 0.00 0.00 0.00 0.00 0.00 0.01 0.00 0.00 0.00 0.00 0.00 0.00 0.00 0.00 0.00 0.00 0.00 0.00 0.00 0.00 0.00 0.00 0.00 0.01 0.11 0.44 0.35 0.11 0.02 0.14 0.49 0.97 1.19 0.63 0.33 0.21 0.06
0.08 0.10 0.10 0.08 0.08 0.08 0.08 0.11 0.11 0.08 0.04 0.01 0.00 0.00 0.00 0.00 0.00 0.00 0.00 0.00 0.00 0.00 0.00 0.00 0.00 0.00 0.00 0.00 0.00 0.00 0.00 0.00 0.00 0.04 0.16 0.29 0.23 0.05 0.01 0.07 0.11 0.58 1.16 0.83 0.33 0.26 0.15
0.08 0.08 0.09 0.08 0.08 0.09 0.09 0.11 0.12 0.11 0.07 0.04 0.02 0.01 0.00 0.00 0.00 0.00 0.00 0.00 0.00 0.00 0.00 0.00 0.00 0.00 0.00 0.00 0.00 0.00 0.00 0.00 0.01 0.04 0.02 0.05 0.07 0.01 0.01 0.02 0.05 0.19 0.97 1.15 0.51 0.34 0.29
0.07 0.07 0.08 0.08 0.10 0.12 0.14 0.13 0.12 0.11 0.10 0.09 0.06 0.03 0.00 0.00 0.00 0.00 0.00 0.00 0.00 0.00 0.00 0.00 0.00 0.00 0.00 0.00 0.00 0.00 0.00 0.01 0.00 0.00 0.00 0.00 0.00 0.00 0.00 0.01 0.03 0.06 0.38 0.76 0.67 0.37 0.42
0.06 0.07 0.08 0.11 0.14 0.15 0.15 0.14 0.13 0.16 0.16 0.17 0.13 0.06 0.01 0.00 0.00 0.00 0.00 0.00 0.00 0.00 0.00 0.00 0.00 0.00 0.00 0.00 0.00 0.00 0.00 0.00 0.00 0.00 0.00 0.00 0.00 0.00 0.00 0.00 0.00 0.01 0.05 0.16 0.38 0.38 0.39
0.06 0.06 0.07 0.11 0.13 0.13 0.13 0.13 0.15 0.17 0.16 0.12 0.11 0.05 0.02 0.01 0.00 0.00 0.00 0.00 0.00 0.00 0.00 0.00 0.00 0.00 0.00 0.00 0.00 0.00 0.00 0.00 0.00 0.00 0.00 0.00 0.00 0.00 0.00 0.00 0.00 0.00 0.01 0.04 0.08 0.10 0.28
0.05 0.05 0.09 0.15 0.17 0.16 0.14 0.14 0.17 0.19 0.17 0.17 0.16 0.12 0.06 0.01 0.00 0.00 0.00 0.00 0.00 0.00 0.00 0.00 0.00 0.00 0.00 0.00 0.00 0.00 0.00 0.00 0.00 0.00 0.00 0.00 0.00 0.00 0.00 0.00 0.00 0.00 0.00 0.00 0.03 0.05 0.11
0.06 0.07 0.07 0.11 0.15 0.17 0.16 0.17 0.20 0.20 0.19 0.22 0.22 0.18 0.10 0.03 0.00 0.00 0.00 0.00 0.00 0.00 0.00 0.00 0.00 0.00 0.00 0.00 0.00 0.00 0.00 0.00 0.00 0.00 0.00 0.00 0.00 0.00 0.00 0.00 0.00 0.00 0.00 0.00 0.01 0.03 0.04
0.09 0.10 0.10 0.13 0.16 0.17 0.19 0.23 0.29 0.31 0.33 0.35 0.36 0.26 0.14 0.04 0.00 0.00 0.00 0.00 0.00 0.00 0.00 0.00 0.00 0.00 0.00 0.00 0.00 0.00 0.00 0.00 0.00 0.00 0.00 0.00 0.00 0.00 0.00 0.00 0.00 0.01 0.01 0.00 0.01 0.01 0.01
0.08 0.11 0.12 0.18 0.23 0.24 0.25 0.33 0.38 0.39 0.40 0.42 0.42 0.27 0.17 0.06 0.00 0.00 0.00 0.00 0.00 0.00 0.00 0.00 0.00 0.00 0.00 0.00 0.00 0.00 0.00 0.00 0.00 0.00 0.00 0.00 0.00 0.00 0.00 0.00 0.00 0.00 0.00 0.00 0.02 0.00 0.00
0.07 0.13 0.12 0.15 0.26 0.30 0.29 0.31 0.34 0.36 0.37 0.39 0.36 0.24 0.17 0.07 0.00 0.00 0.00 0.00 0.00 0.00 0.00 0.00 0.00 0.00 0.00 0.00 0.00 0.00 0.00 0.00 0.00 0.00 0.00 0.00 0.00 0.00 0.00 0.00 0.00 0.00 0.01 0.01 0.02 0.03 0.03
0.05 0.16 0.16 0.16 0.23 0.26 0.30 0.36 0.44 0.38 0.32 0.29 0.29 0.27 0.19 0.07 0.00 0.00 0.00 0.00 0.00 0.00 0.00 0.00 0.00 0.00 0.00 0.00 0.00 0.00 0.00 0.00 0.00 0.00 0.00 0.00 0.00 0.00 0.00 0.00 0.00 0.00 0.05 0.07 0.09 0.22 0.06
0.04 0.11 0.18 0.19 0.25 0.34 0.41 0.42 0.47 0.48 0.42 0.39 0.26 0.25 0.19 0.05 0.00 0.00 0.00 0.00 0.00 0.00 0.00 0.00 0.00 0.00 0.00 0.00 0.00 0.00 0.00 0.00 0.00 0.00 0.00 0.00 0.00 0.00 0.00 0.00 0.00 0.01 0.07 0.09 0.01 0.02 0.02
0.04 0.09 0.15 0.18 0.28 0.44 0.58 0.45 0.44 0.51 0.59 0.57 0.36 0.16 0.16 0.03 0.00 0.00 0.00 0.00 0.00 0.00 0.00 0.00 0.00 0.00 0.00 0.00 0.00 0.00 0.00 0.00 0.00 0.00 0.01 0.00 0.00 0.00 0.00 0.00 0.02 0.03 0.03 0.04 0.10 0.04 0.00
0.07 0.10 0.20 0.19 0.27 0.42 0.50 0.47 0.42 0.46 0.57 0.55 0.33 0.22 0.16 0.02 0.00 0.00 0.00 0.00 0.00 0.00 0.00 0.00 0.00 0.00 0.00 0.00 0.00 0.00 0.00 0.00 0.00 0.00 0.01 0.02 0.02 0.00 0.00 0.05 0.04 0.01 0.02 0.03 0.08 0.17 0.03
0.15 0.16 0.21 0.26 0.29 0.38 0.47 0.46 0.42 0.44 0.60 0.53 0.27 0.21 0.14 0.01 0.00 0.00 0.00 0.00 0.00 0.00 0.00 0.00 0.00 0.00 0.00 0.00 0.00 0.00 0.00 0.00 0.00 0.00 0.01 0.06 0.13 0.06 0.11 0.07 0.03 0.05 0.04 0.02 0.02 0.01 0.00
0.12 0.19 0.36 0.41 0.46 0.46 0.54 0.60 0.52 0.48 0.59 0.65 0.29 0.20 0.10 0.02 0.01 0.01 0.01 0.00 0.00 0.00 0.00 0.00 0.00 0.00 0.00 0.00 0.00 0.00 0.00 0.01 0.00 0.02 0.07 0.13 0.20 0.15 0.05 0.10 0.09 0.09 0.08 0.10 0.04 0.01 0.00
0.19 0.24 0.37 0.48 0.40 0.48 0.49 0.72 0.67 0.57 0.58 0.42 0.25 0.21 0.16 0.02 0.02 0.02 0.01 0.00 0.00 0.00 0.00 0.00 0.00 0.00 0.00 0.00 0.00 0.00 0.00 0.00 0.00 0.04 0.12 0.21 0.35 0.30 0.15 0.15 0.21 0.20 0.07 0.08 0.12 0.08 0.01
0.28 0.22 0.30 0.35 0.37 0.55 0.54 0.55 0.61 0.55 0.58 0.45 0.28 0.14 0.16 0.03 0.02 0.02 0.01 0.00 0.00 0.00 0.00 0.00 0.00 0.00 0.00 0.00 0.00 0.00 0.00 0.00 0.00 0.01 0.05 0.20 0.42 0.28 0.24 0.25 0.23 0.20 0.16 0.12 0.17 0.28 0.03
0.16 0.16 0.27 0.38 0.44 0.62 0.67 0.55 0.45 0.41 0.52 0.47 0.19 0.04 0.03 0.01 0.01 0.02 0.01 0.00 0.00 0.00 0.00 0.00 0.00 0.00 0.00 0.00 0.00 0.00 0.00 0.00 0.00 0.00 0.02 0.06 0.11 0.13 0.05 0.04 0.19 0.17 0.13 0.21 0.34 0.08 0.02
0.19 0.22 0.47 0.87 0.83 1.10 0.92 0.81 0.47 0.41 0.52 0.47 0.09 0.00 0.00 0.01 0.01 0.01 0.01 0.00 0.00 0.00 0.00 0.00 0.00 0.00 0.00 0.00 0.00 0.00 0.00 0.00 0.00 0.00 0.01 0.08 0.09 0.08 0.04 0.01 0.02 0.01 0.04 0.11 0.15 0.18 0.14
0.14 0.20 0.40 0.61 0.82 0.95 0.74 0.80 0.55 0.41 0.55 0.37 0.05 0.00 0.00 0.01 0.00 0.00 0.01 0.00 0.00 0.00 0.00 0.00 0.00 0.00 0.00 0.00 0.00 0.00 0.00 0.00 0.00 0.00 0.00 0.02 0.03 0.03 0.07 0.06 0.13 0.15 0.02 0.00 0.01 0.01 0.05
0.06 0.12 0.14 0.28 0.50 0.90 0.97 0.86 0.64 0.37 0.22 0.07 0.01 0.00 0.00 0.00 0.00 0.00 0.00 0.00 0.00 0.00 0.00 0.00 0.00 0.00 0.00 0.00 0.00 0.00 0.00 0.00 0.00 0.00 0.00 0.00 0.00 0.00 0.07 0.16 0.16 0.03 0.00 0.00 0.00 0.00 0.00
0.04 0.04 0.10 0.19 0.36 0.66 0.85 0.88 0.36 0.14 0.06 0.04 0.00 0.00 0.00 0.00 0.00 0.00 0.00 0.00 0.00 0.00 0.00 0.00 0.00 0.00 0.00 0.00 0.00 0.00 0.00 0.00 0.00 0.00 0.00 0.00 0.00 0.00 0.06 0.16 0.06 0.00 0.00 0.00 0.00 0.02 0.00
0.04 0.07 0.16 0.44 0.47 0.47 0.58 0.64 0.31 0.16 0.09 0.03 0.00 0.00 0.00 0.00 0.00 0.00 0.00 0.00 0.00 0.00 0.00 0.00 0.00 0.00 0.00 0.00 0.00 0.00 0.00 0.00 0.01 0.05 0.00 0.00 0.00 0.01 0.02 0.12 0.05 0.00 0.00 0.00 0.00 0.00 0.00
0.06 0.12 0.10 0.27 0.67 0.62 0.62 0.66 0.41 0.31 0.12 0.01 0.00 0.00 0.00 0.00 0.00 0.00 0.00 0.00 0.00 0.00 0.00 0.00 0.00 0.00 0.00 0.00 0.00 0.00 0.00 0.00 0.00 0.01 0.01 0.02 0.01 0.01 0.01 0.04 0.00 0.00 0.00 0.00 0.00 0.00 0.00
0.08 0.17 0.30 0.15 0.28 0.63 0.78 0.75 0.58 0.32 0.13 0.01 0.00 0.00 0.00 0.00 0.00 0.00 0.00 0.00 0.00 0.00 0.00 0.00 0.00 0.00 0.00 0.00 0.00 0.00 0.00 0.00 0.00 0.00 0.00 0.00 0.01 0.02 0.01 0.01 0.00 0.00 0.00 0.00 0.00 0.00 0.00
0.06 0.09 0.22 0.35 0.28 0.29 0.60 0.66 0.68 0.32 0.13 0.00 0.00 0.00 0.00 0.00 0.00 0.00 0.00 0.00 0.00 0.00 0.00 0.00 0.00 0.00 0.00 0.00 0.00 0.00 0.00 0.00 0.00 0.00 0.00 0.00 0.01 0.02 0.02 0.01 0.01 0.01 0.00 0.00 0.00 0.00 0.00

GFSGBSN_prec_precacc12_105.txt.gz
Total_Precipitation_Accumulation
0.09 0.09 0.08 0.08 0.10 0.09 0.06 0.06 0.07 0.06 0.07 0.10 0.06 0.02 0.01 0.00 0.00 0.00 0.00 0.00 0.00 0.00 0.00 0.00 0.00 0.00 0.00 0.00 0.00 0.00 0.00 0.00 0.00 0.03 0.20 0.21 0.14 0.14 0.07 0.17 0.89 1.05 1.00 0.46 0.41 0.22 0.15
0.10 0.11 0.10 0.08 0.08 0.08 0.08 0.06 0.08 0.09 0.08 0.08 0.09 0.08 0.02 0.01 0.00 0.00 0.00 0.00 0.00 0.00 0.00 0.00 0.00 0.00 0.00 0.00 0.00 0.00 0.00 0.00 0.00 0.01 0.05 0.21 0.11 0.08 0.02 0.13 0.46 0.99 1.28 0.65 0.53 0.38 0.11
0.07 0.08 0.09 0.08 0.08 0.08 0.08 0.11 0.11 0.09 0.08 0.08 0.09 0.09 0.05 0.02 0.00 0.00 0.00 0.00 0.00 0.00 0.00 0.00 0.00 0.00 0.00 0.00 0.00 0.00 0.00 0.00 0.00 0.01 0.07 0.16 0.07 0.02 0.00 0.06 0.11 0.62 1.29 0.92 0.52 0.60 0.15
0.05 0.06 0.07 0.08 0.08 0.09 0.09 0.11 0.12 0.12 0.09 0.08 0.10 0.11 0.05 0.02 0.00 0.00 0.00 0.00 0.00 0.00 0.00 0.00 0.00 0.00 0.00 0.00 0.00 0.00 0.00 0.00 0.00 0.00 0.01 0.04 0.06 0.01 0.00 0.02 0.05 0.20 0.99 1.27 0.64 0.56 0.37
0.03 0.05 0.06 0.07 0.09 0.12 0.14 0.13 0.12 0.11 0.11 0.12 0.15 0.13 0.06 0.03 0.01 0.00 0.00 0.00 0.00 0.00 0.00 0.00 0.00 0.00 0.00 0.00 0.00 0.00 0.00 0.00 0.00 0.00 0.00 0.00 0.00 0.00 0.01 0.02 0.04 0.06 0.34 0.80 0.88 0.56 0.53
0.02 0.04 0.07 0.08 0.08 0.12 0.15 0.14 0.13 0.16 0.17 0.18 0.19 0.15 0.08 0.03 0.02 0.01 0.00 0.00 0.00 0.00 0.00 0.00 0.00 0.00 0.00 0.00 0.00 0.00 0.00 0.00 0.00 0.00 0.00 0.00 0.00 0.00 0.00 0.00 0.01 0.02 0.07 0.20 0.48 0.59 0.47
0.01 0.02 0.05 0.06 0.08 0.09 0.11 0.13 0.15 0.17 0.16 0.13 0.14 0.13 0.11 0.04 0.03 0.00 0.00 0.00 0.00 0.00 0.00 0.00 0.00 0.00 0.00 0.00 0.00 0.00 0.00 0.00 0.00 0.00 0.00 0.00 0.00 0.00 0.00 0.00 0.00 0.00 0.01 0.05 0.14 0.22 0.38
0.01 0.01 0.02 0.08 0.10 0.11 0.14 0.14 0.17 0.19 0.17 0.17 0.16 0.17 0.12 0.04 0.02 0.00 0.00 0.00 0.00 0.00 0.00 0.00 0.00 0.00 0.00 0.00 0.00 0.00 0.00 0.00 0.00 0.00 0.00 0.00 0.00 0.00 0.00 0.00 0.00 0.00 0.00 0.01 0.05 0.09 0.12
0.01 0.01 0.01 0.05 0.10 0.13 0.15 0.17 0.20 0.20 0.19 0.22 0.23 0.22 0.15 0.08 0.05 0.03 0.01 0.00 0.00 0.00 0.00 0.00 0.00 0.00 0.00 0.00 0.00 0.00 0.00 0.00 0.00 0.00 0.00 0.00 0.00 0.00 0.00 0.00 0.00 0.00 0.00 0.00 0.01 0.06 0.06
0.02 0.02 0.02 0.03 0.10 0.13 0.16 0.23 0.29 0.31 0.33 0.35 0.36 0.38 0.23 0.15 0.05 0.00 0.00 0.00 0.00 0.00 0.00 0.00 0.00 0.00 0.00 0.00 0.00 0.00 0.00 0.00 0.00 0.00 0.00 0.00 0.00 0.00 0.00 0.00 0.00 0.00 0.00 0.00 0.00 0.02 0.02
0.02 0.02 0.02 0.03 0.10 0.18 0.20 0.31 0.39 0.39 0.40 0.42 0.43 0.39 0.28 0.20 0.14 0.04 0.00 0.00 0.00 0.00 0.00 0.00 0.00 0.00 0.00 0.00 0.00 0.00 0.00 0.00 0.00 0.00 0.00 0.00 0.00 0.00 0.00 0.00 0.00 0.00 0.00 0.00 0.01 0.00 0.00
0.02 0.02 0.02 0.01 0.05 0.17 0.22 0.30 0.36 0.36 0.37 0.39 0.36 0.27 0.24 0.16 0.09 0.03 0.00 0.00 0.00 0.00 0.00 0.00 0.00 0.00 0.00 0.00 0.00 0.00 0.00 0.00 0.00 0.00 0.00 0.00 0.00 0.00 0.00 0.00 0.00 0.00 0.01 0.01 0.02 0.04 0.04
0.03 0.02 0.02 0.03 0.06 0.14 0.18 0.34 0.47 0.38 0.32 0.29 0.29 0.30 0.26 0.16 0.09 0.01 0.00 0.00 0.00 0.01 0.00 0.00 0.00 0.00 0.00 0.00 0.00 0.00 0.00 0.00 0.00 0.00 0.00 0.00 0.00 0.00 0.00 0.00 0.00 0.00 0.04 0.06 0.10 0.23 0.06
0.03 0.03 0.03 0.03 0.06 0.15 0.21 0.35 0.48 0.48 0.42 0.39 0.27 0.27 0.24 0.10 0.04 0.00 0.00 0.00 0.01 0.02 0.00 0.00 0.00 0.00 0.00 0.00 0.00 0.00 0.00 0.00 0.00 0.00 0.00 0.00 0.00 0.00 0.00 0.00 0.01 0.03 0.08 0.09 0.01 0.02 0.02
0.04 0.03 0.04 0.03 0.05 0.16 0.29 0.34 0.45 0.51 0.59 0.62 0.54 0.23 0.21 0.08 0.01 0.00 0.00 0.00 0.02 0.01 0.00 0.00 0.00 0.00 0.00 0.00 0.00 0.00 0.00 0.00 0.00 0.00 0.01 0.00 0.00 0.00 0.00 0.00 0.03 0.06 0.06 0.05 0.09 0.03 0.00
0.05 0.06 0.06 0.06 0.07 0.16 0.28 0.36 0.45 0.47 0.57 0.59 0.54 0.33 0.23 0.07 0.00 0.00 0.00 0.00 0.00 0.00 0.00 0.00 0.00 0.00 0.00 0.00 0.00 0.00 0.00 0.00 0.00 0.00 0.00 0.00 0.02 0.00 0.00 0.05 0.06 0.05 0.07 0.09 0.11 0.18 0.04
0.16 0.13 0.13 0.09 0.08 0.14 0.29 0.42 0.44 0.45 0.60 0.56 0.37 0.29 0.21 0.07 0.01 0.01 0.01 0.00 0.00 0.00 0.00 0.00 0.00 0.00 0.00 0.00 0.00 0.00 0.00 0.00 0.00 0.00 0.00 0.02 0.10 0.03 0.09 0.07 0.05 0.09 0.08 0.06 0.05 0.03 0.00
0.12 0.18 0.23 0.23 0.21 0.20 0.33 0.51 0.54 0.48 0.60 0.70 0.37 0.27 0.13 0.08 0.03 0.02 0.02 0.00 0.00 0.00 0.00 0.00 0.00 0.00 0.00 0.00 0.00 0.00 0.00 0.00 0.00 0.00 0.02 0.09 0.17 0.10 0.01 0.09 0.11 0.12 0.16 0.27 0.12 0.03 0.00
0.16 0.21 0.19 0.23 0.18 0.19 0.22 0.56 0.68 0.57 0.59 0.48 0.33 0.33 0.27 0.12 0.02 0.04 0.03 0.00 0.00 0.00 0.00 0.00 0.00 0.00 0.00 0.00 0.00 0.00 0.00 0.00 0.00 0.00 0.04 0.08 0.24 0.20 0.08 0.10 0.17 0.19 0.10 0.15 0.36 0.24 0.02
0.13 0.13 0.11 0.11 0.15 0.21 0.22 0.43 0.62 0.55 0.60 0.59 0.42 0.29 0.32 0.18 0.03 0.02 0.01 0.00 0.00 0.00 0.00 0.00 0.00 0.00 0.00 0.00 0.00 0.00 0.00 0.00 0.00 0.00 0.01 0.03 0.07 0.20 0.19 0.23 0.23 0.19 0.16 0.13 0.22 0.40 0.13
0.07 0.09 0.13 0.15 0.22 0.31 0.63 0.51 0.46 0.41 0.53 0.68 0.47 0.15 0.06 0.06 0.03 0.02 0.01 0.00 0.00 0.00 0.00 0.00 0.00 0.00 0.00 0.00 0.00 0.00 0.00 0.00 0.00 0.00 0.00 0.01 0.01 0.02 0.02 0.02 0.14 0.15 0.12 0.19 0.31 0.15 0.10
0.10 0.15 0.31 0.48 0.54 0.91 1.13 0.81 0.51 0.42 0.57 0.65 0.29 0.05 0.01 0.02 0.02 0.02 0.01 0.00 0.00 0.00 0.00 0.00 0.00 0.00 0.00 0.00 0.00 0.00 0.00 0.00 0.00 0.00 0.00 0.00 0.00 0.03 0.02 0.00 0.00 0.01 0.04 0.10 0.14 0.18 0.14
0.09 0.14 0.27 0.33 0.38 0.57 0.61 0.81 0.77 0.50 0.61 0.51 0.18 0.02 0.01 0.01 0.00 0.01 0.01 0.00 0.00 0.00 0.00 0.00 0.00 0.00 0.00 0.00 0.00 0.00 0.00 0.00 0.00 0.00 0.00 0.00 0.00 0.01 0.00 0.00 0.04 0.03 0.00 0.00 0.01 0.01 0.05
0.04 0.05 0.07 0.15 0.20 0.43 0.73 0.92 0.73 0.45 0.30 0.13 0.06 0.00 0.00 0.00 0.00 0.00 0.00 0.00 0.00 0.00 0.00 0.00 0.00 0.00 0.00 0.00 0.00 0.00 0.00 0.00 0.00 0.00 0.00 0.00 0.00 0.00 0.00 0.02 0.08 0.02 0.00 0.00 0.00 0.00 0.00
0.03 0.03 0.04 0.04 0.12 0.30 0.60 0.96 0.47 0.24 0.11 0.08 0.02 0.00 0.00 0.01 0.00 0.00 0.00 0.00 0.00 0.00 0.00 0.00 0.00 0.00 0.00 0.00 0.00 0.00 0.00 0.00 0.00 0.00 0.00 0.00 0.00 0.00 0.00 0.02 0.04 0.00 0.00 0.00 0.00 0.04 0.01
0.02 0.02 0.04 0.03 0.08 0.18 0.38 0.66 0.38 0.17 0.09 0.04 0.01 0.00 0.00 0.00 0.00 0.00 0.00 0.00 0.00 0.00 0.00 0.00 0.00 0.00 0.00 0.00 0.00 0.00 0.00 0.00 0.00 0.01 0.00 0.00 0.00 0.00 0.00 0.02 0.01 0.00 0.00 0.00 0.00 0.01 0.03
0.03 0.01 0.02 0.01 0.06 0.21 0.40 0.64 0.54 0.32 0.12 0.02 0.01 0.00 0.00 0.00 0.00 0.00 0.00 0.00 0.00 0.00 0.00 0.00 0.00 0.00 0.00 0.00 0.00 0.00 0.00 0.00 0.00 0.00 0.00 0.00 0.00 0.00 0.00 0.00 0.00 0.00 0.00 0.00 0.01 0.00 0.00
0.03 0.01 0.01 0.01 0.02 0.21 0.53 0.76 0.78 0.46 0.15 0.01 0.00 0.00 0.00 0.00 0.00 0.00 0.00 0.00 0.00 0.00 0.00 0.00 0.00 0.00 0.00 0.00 0.00 0.00 0.00 0.00 0.00 0.00 0.00 0.00 0.00 0.01 0.00 0.00 0.00 0.00 0.00 0.00 0.00 0.00 0.00
0.03 0.02 0.01 0.00 0.02 0.09 0.45 0.65 0.78 0.50 0.20 0.02 0.00 0.00 0.00 0.00 0.00 0.00 0.00 0.00 0.00 0.00 0.00 0.00 0.00 0.00 0.00 0.00 0.00 0.00 0.00 0.00 0.00 0.00 0.00 0.00 0.00 0.01 0.01 0.00 0.00 0.00 0.00 0.00 0.00 0.00 0.00

GFSGBSN_prec_precacc12_108.txt.gz
Total_Precipitation_Accumulation
0.07 0.08 0.07 0.07 0.08 0.08 0.07 0.06 0.07 0.06 0.08 0.11 0.08 0.07 0.03 0.02 0.01 0.00 0.00 0.00 0.00 0.00 0.00 0.00 0.00 0.00 0.00 0.00 0.00 0.00 0.00 0.00 0.00 0.03 0.17 0.10 0.20 0.23 0.11 0.16 0.63 0.95 0.82 0.46 0.44 0.38 0.30
0.05 0.05 0.06 0.06 0.05 0.05 0.08 0.06 0.08 0.10 0.08 0.08 0.09 0.11 0.06 0.04 0.01 0.00 0.00 0.00 0.00 0.00 0.00 0.00 0.00 0.00 0.00 0.00 0.00 0.00 0.00 0.00 0.00 0.01 0.03 0.05 0.08 0.12 0.03 0.12 0.40 0.88 1.05 0.57 0.47 0.42 0.17
0.02 0.03 0.04 0.04 0.04 0.04 0.05 0.10 0.11 0.10 0.08 0.08 0.09 0.10 0.10 0.04 0.00 0.00 0.00 0.00 0.00 0.00 0.00 0.00 0.00 0.00 0.00 0.00 0.00 0.00 0.00 0.00 0.00 0.00 0.00 0.01 0.02 0.03 0.01 0.06 0.10 0.56 1.16 0.75 0.46 0.53 0.17
0.02 0.02 0.02 0.03 0.04 0.05 0.05 0.08 0.12 0.12 0.09 0.08 0.10 0.13 0.10 0.07 0.01 0.00 0.00 0.00 0.00 0.00 0.00 0.00 0.00 0.00 0.00 0.00 0.00 0.00 0.00 0.00 0.00 0.00 0.00 0.00 0.01 0.01 0.01 0.02 0.05 0.17 0.85 1.10 0.57 0.59 0.41
0.02 0.01 0.01 0.02 0.04 0.06 0.08 0.09 0.11 0.11 0.11 0.12 0.15 0.14 0.10 0.07 0.02 0.01 0.00 0.00 0.00 0.00 0.00 0.00 0.00 0.00 0.00 0.00 0.00 0.00 0.00 0.00 0.00 0.00 0.00 0.00 0.01 0.01 0.02 0.03 0.03 0.06 0.29 0.74 0.82 0.57 0.60
0.02 0.02 0.02 0.02 0.02 0.05 0.07 0.08 0.11 0.16 0.17 0.18 0.19 0.15 0.11 0.06 0.02 0.01 0.00 0.00 0.00 0.00 0.00 0.00 0.00 0.00 0.00 0.00 0.00 0.00 0.00 0.00 0.00 0.00 0.00 0.00 0.00 0.02 0.00 0.00 0.00 0.02 0.07 0.20 0.47 0.56 0.56
0.03 0.02 0.02 0.02 0.02 0.02 0.05 0.08 0.12 0.16 0.16 0.13 0.14 0.13 0.11 0.05 0.03 0.00 0.00 0.00 0.00 0.00 0.00 0.00 0.00 0.00 0.00 0.00 0.00 0.00 0.00 0.00 0.00 0.00 0.00 0.00 0.00 0.00 0.00 0.00 0.00 0.00 0.01 0.05 0.14 0.22 0.46
0.03 0.02 0.02 0.02 0.02 0.03 0.04 0.08 0.13 0.17 0.17 0.17 0.16 0.17 0.12 0.05 0.02 0.00 0.00 0.00 0.00 0.00 0.00 0.00 0.00 0.00 0.00 0.00 0.00 0.00 0.00 0.00 0.00 0.00 0.00 0.00 0.00 0.00 0.00 0.00 0.00 0.00 0.00 0.01 0.05 0.11 0.16
0.02 0.02 0.02 0.02 0.02 0.03 0.03 0.07 0.14 0.18 0.19 0.22 0.23 0.22 0.19 0.10 0.05 0.04 0.01 0.00 0.00 0.00 0.00 0.00 0.00 0.00 0.00 0.00 0.00 0.00 0.00 0.00 0.00 0.00 0.00 0.00 0.00 0.00 0.00 0.00 0.00 0.00 0.00 0.00 0.01 0.06 0.05
0.02 0.02 0.02 0.02 0.02 0.03 0.03 0.05 0.16 0.26 0.32 0.35 0.36 0.40 0.29 0.18 0.06 0.01 0.00 0.00 0.00 0.00 0.00 0.00 0.00 0.00 0.00 0.00 0.00 0.00 0.00 0.00 0.00 0.00 0.00 0.00 0.00 0.00 0.00 0.00 0.00 0.00 0.00 0.00 0.00 0.02 0.03
0.02 0.02 0.02 0.02 0.03 0.03 0.03 0.06 0.12 0.23 0.38 0.42 0.43 0.39 0.30 0.22 0.15 0.05 0.00 0.00 0.00 0.00 0.01 0.00 0.00 0.00 0.00 0.00 0.00 0.00 0.00 0.00 0.00 0.00 0.00 0.00 0.00 0.00 0.00 0.00 0.00 0.00 0.00 0.00 0.01 0.00 0.00
0.02 0.02 0.02 0.02 0.03 0.04 0.04 0.05 0.10 0.19 0.34 0.40 0.36 0.27 0.25 0.18 0.09 0.04 0.00 0.00 0.00 0.01 0.02 0.00 0.00 0.00 0.00 0.00 0.00 0.00 0.00 0.00 0.00 0.00 0.00 0.00 0.00 0.00 0.00 0.00 0.00 0.00 0.00 0.01 0.01 0.02 0.03
0.03 0.02 0.03 0.04 0.04 0.04 0.05 0.06 0.14 0.23 0.29 0.31 0.29 0.30 0.27 0.17 0.11 0.01 0.00 0.00 0.01 0.04 0.01 0.00 0.00 0.00 0.00 0.00 0.00 0.00 0.00 0.00 0.00 0.00 0.00 0.00 0.00 0.00 0.00 0.00 0.00 0.01 0.03 0.05 0.08 0.15 0.03
0.04 0.04 0.04 0.04 0.05 0.04 0.07 0.08 0.12 0.29 0.38 0.40 0.27 0.29 0.25 0.11 0.10 0.02 0.00 0.00 0.02 0.04 0.00 0.00 0.00 0.00 0.00 0.00 0.00 0.00 0.00 0.00 0.00 0.00 0.00 0.00 0.00 0.00 0.00 0.01 0.03 0.06 0.08 0.08 0.01 0.02 0.02
0.05 0.04 0.04 0.05 0.06 0.07 0.10 0.11 0.18 0.38 0.58 0.62 0.59 0.34 0.23 0.10 0.04 0.01 0.00 0.01 0.03 0.01 0.00 0.00 0.00 0.00 0.00 0.00 0.00 0.00 0.00 0.00 0.00 0.00 0.00 0.00 0.00 0.00 0.00 0.01 0.05 0.09 0.10 0.07 0.11 0.04 0.00
0.06 0.07 0.08 0.09 0.07 0.07 0.11 0.16 0.17 0.33 0.52 0.59 0.58 0.49 0.32 0.15 0.01 0.00 0.00 0.00 0.00 0.00 0.00 0.00 0.00 0.00 0.00 0.00 0.00 0.00 0.00 0.00 0.00 0.00 0.00 0.00 0.01 0.00 0.00 0.04 0.09 0.09 0.11 0.17 0.16 0.21 0.05
0.16 0.14 0.16 0.11 0.07 0.06 0.10 0.18 0.21 0.23 0.51 0.56 0.39 0.38 0.37 0.20 0.06 0.02 0.02 0.00 0.00 0.00 0.00 0.00 0.00 0.00 0.00 0.00 0.00 0.00 0.00 0.00 0.00 0.00 0.00 0.01 0.06 0.02 0.07 0.08 0.06 0.10 0.11 0.12 0.19 0.14 0.02
0.12 0.19 0.25 0.26 0.19 0.12 0.11 0.11 0.12 0.26 0.55 0.71 0.38 0.30 0.20 0.19 0.11 0.03 0.02 0.01 0.00 0.00 0.00 0.00 0.00 0.00 0.00 0.00 0.00 0.00 0.00 0.00 0.00 0.00 0.00 0.03 0.08 0.03 0.01 0.08 0.11 0.13 0.21 0.36 0.20 0.09 0.03
0.16 0.20 0.21 0.25 0.13 0.06 0.05 0.08 0.16 0.33 0.56 0.50 0.37 0.42 0.34 0.25 0.06 0.04 0.03 0.00 0.00 0.00 0.00 0.00 0.00 0.00 0.00 0.00 0.00 0.00 0.00 0.00 0.00 0.00 0.01 0.04 0.06 0.08 0.04 0.06 0.08 0.09 0.09 0.17 0.44 0.35 0.03
0.11 0.11 0.10 0.11 0.11 0.07 0.07 0.13 0.21 0.38 0.57 0.60 0.50 0.40 0.43 0.38 0.07 0.03 0.01 0.00 0.00 0.00 0.00 0.00 0.00 0.00 0.00 0.00 0.00 0.00 0.00 0.00 0.00 0.00 0.00 0.01 0.00 0.02 0.08 0.12 0.14 0.10 0.10 0.12 0.21 0.41 0.22
0.05 0.06 0.06 0.12 0.17 0.18 0.47 0.30 0.22 0.32 0.52 0.69 0.55 0.20 0.08 0.11 0.05 0.02 0.01 0.00 0.00 0.00 0.00 0.00 0.00 0.00 0.00 0.00 0.00 0.00 0.00 0.00 0.00 0.00 0.00 0.00 0.00 0.00 0.00 0.00 0.03 0.04 0.07 0.12 0.24 0.14 0.11
0.03 0.06 0.19 0.36 0.42 0.76 1.05 0.49 0.30 0.37 0.58 0.65 0.35 0.13 0.02 0.02 0.03 0.02 0.01 0.00 0.00 0.00 0.00 0.00 0.00 0.00 0.00 0.00 0.00 0.00 0.00 0.00 0.00 0.00 0.00 0.00 0.00 0.00 0.00 0.00 0.00 0.00 0.02 0.05 0.09 0.16 0.13
0.02 0.07 0.21 0.19 0.27 0.41 0.47 0.51 0.59 0.53 0.63 0.51 0.19 0.08 0.07 0.03 0.01 0.01 0.01 0.00 0.00 0.00 0.00 0.00 0.00 0.00 0.00 0.00 0.00 0.00 0.00 0.00 0.00 0.00 0.00 0.00 0.00 0.01 0.00 0.00 0.01 0.00 0.00 0.00 0.00 0.01 0.05
0.02 0.03 0.06 0.10 0.13 0.30 0.46 0.56 0.54 0.45 0.32 0.14 0.07 0.08 0.10 0.01 0.00 0.00 0.00 0.00 0.00 0.00 0.00 0.00 0.00 0.00 0.00 0.00 0.00 0.00 0.00 0.00 0.00 0.00 0.00 0.00 0.00 0.00 0.00 0.00 0.01 0.01 0.00 0.00 0.00 0.00 0.00
0.02 0.02 0.05 0.03 0.06 0.19 0.31 0.55 0.31 0.24 0.12 0.10 0.03 0.05 0.01 0.01 0.00 0.00 0.00 0.00 0.00 0.00 0.00 0.00 0.00 0.00 0.00 0.00 0.00 0.00 0.00 0.00 0.00 0.00 0.00 0.00 0.00 0.00 0.00 0.00 0.00 0.00 0.00 0.00 0.01 0.04 0.02
0.02 0.02 0.04 0.02 0.03 0.07 0.17 0.39 0.22 0.16 0.10 0.04 0.01 0.01 0.00 0.00 0.00 0.00 0.00 0.00 0.00 0.00 0.00 0.00 0.00 0.00 0.00 0.00 0.00 0.00 0.00 0.00 0.00 0.00 0.00 0.00 0.00 0.00 0.00 0.00 0.00 0.00 0.00 0.00 0.00 0.01 0.04
0.02 0.01 0.02 0.01 0.01 0.02 0.16 0.45 0.40 0.29 0.12 0.02 0.01 0.00 0.00 0.00 0.00 0.00 0.00 0.00 0.00 0.00 0.00 0.00 0.00 0.00 0.00 0.00 0.00 0.00 0.00 0.00 0.00 0.00 0.00 0.00 0.00 0.00 0.00 0.00 0.00 0.00 0.00 0.00 0.01 0.00 0.00
0.03 0.02 0.01 0.01 0.00 0.02 0.17 0.48 0.62 0.50 0.16 0.02 0.00 0.00 0.00 0.00 0.00 0.00 0.00 0.00 0.00 0.00 0.00 0.00 0.00 0.00 0.00 0.00 0.00 0.00 0.00 0.00 0.00 0.00 0.00 0.00 0.00 0.00 0.00 0.00 0.00 0.00 0.00 0.00 0.00 0.00 0.00
0.02 0.02 0.01 0.00 0.00 0.02 0.18 0.33 0.60 0.54 0.20 0.02 0.00 0.00 0.00 0.00 0.00 0.00 0.00 0.00 0.00 0.00 0.00 0.00 0.00 0.00 0.00 0.00 0.00 0.00 0.00 0.00 0.00 0.00 0.00 0.00 0.00 0.00 0.00 0.00 0.00 0.00 0.00 0.00 0.00 0.00 0.00

GFSGBSN_prec_precacc12_111.txt.gz
Total_Precipitation_Accumulation
0.02 0.03 0.03 0.03 0.04 0.05 0.04 0.04 0.06 0.05 0.08 0.11 0.08 0.07 0.04 0.02 0.02 0.00 0.00 0.00 0.00 0.00 0.00 0.00 0.00 0.00 0.00 0.00 0.00 0.00 0.00 0.00 0.00 0.02 0.09 0.11 0.22 0.24 0.17 0.06 0.25 0.47 0.49 0.46 0.46 0.42 0.40
0.02 0.02 0.02 0.02 0.01 0.02 0.04 0.04 0.06 0.08 0.08 0.08 0.09 0.11 0.07 0.06 0.03 0.00 0.00 0.00 0.00 0.00 0.00 0.00 0.00 0.00 0.00 0.00 0.00 0.00 0.00 0.00 0.00 0.01 0.02 0.07 0.12 0.18 0.10 0.05 0.20 0.45 0.54 0.52 0.46 0.42 0.25
0.01 0.01 0.02 0.02 0.02 0.01 0.01 0.06 0.08 0.07 0.08 0.08 0.09 0.10 0.10 0.07 0.02 0.01 0.00 0.00 0.00 0.00 0.00 0.00 0.00 0.00 0.00 0.00 0.00 0.00 0.00 0.00 0.00 0.00 0.00 0.01 0.02 0.08 0.05 0.02 0.06 0.31 0.58 0.59 0.45 0.51 0.17
0.02 0.02 0.02 0.02 0.01 0.01 0.00 0.03 0.06 0.06 0.08 0.08 0.10 0.13 0.11 0.09 0.04 0.02 0.01 0.00 0.00 0.00 0.00 0.00 0.00 0.00 0.00 0.00 0.00 0.00 0.00 0.00 0.00 0.00 0.00 0.00 0.02 0.06 0.04 0.03 0.04 0.12 0.58 0.72 0.51 0.55 0.38
0.02 0.02 0.02 0.03 0.03 0.02 0.02 0.01 0.03 0.06 0.08 0.11 0.15 0.14 0.10 0.08 0.05 0.02 0.00 0.00 0.00 0.00 0.00 0.00 0.00 0.00 0.00 0.00 0.00 0.00 0.00 0.00 0.00 0.00 0.00 0.01 0.03 0.03 0.03 0.04 0.04 0.06 0.25 0.50 0.61 0.50 0.44
0.03 0.03 0.03 0.03 0.03 0.03 0.03 0.03 0.04 0.06 0.09 0.17 0.19 0.15 0.11 0.06 0.03 0.01 0.00 0.00 0.00 0.00 0.00 0.00 0.00 0.00 0.00 0.00 0.00 0.00 0.00 0.00 0.00 0.00 0.00 0.00 0.01 0.04 0.01 0.03 0.02 0.02 0.07 0.18 0.35 0.48 0.38
0.03 0.03 0.03 0.03 0.03 0.03 0.03 0.04 0.04 0.07 0.10 0.11 0.14 0.13 0.11 0.05 0.03 0.01 0.00 0.00 0.00 0.00 0.00 0.00 0.00 0.00 0.00 0.00 0.00 0.00 0.00 0.00 0.00 0.00 0.00 0.00 0.02 0.02 0.00 0.00 0.00 0.00 0.01 0.05 0.13 0.20 0.37
0.03 0.03 0.03 0.03 0.04 0.03 0.04 0.05 0.04 0.03 0.06 0.11 0.16 0.17 0.12 0.06 0.04 0.01 0.00 0.00 0.00 0.00 0.00 0.00 0.00 0.00 0.00 0.00 0.00 0.00 0.00 0.00 0.00 0.00 0.00 0.00 0.01 0.00 0.00 0.00 0.00 0.00 0.00 0.01 0.05 0.10 0.14
0.03 0.03 0.03 0.03 0.04 0.04 0.04 0.04 0.04 0.03 0.03 0.12 0.23 0.23 0.20 0.13 0.09 0.05 0.01 0.00 0.00 0.00 0.00 0.00 0.00 0.00 0.00 0.00 0.00 0.00 0.00 0.00 0.00 0.00 0.00 0.00 0.00 0.00 0.00 0.00 0.00 0.00 0.00 0.00 0.01 0.06 0.05
0.03 0.03 0.03 0.03 0.04 0.04 0.04 0.05 0.05 0.02 0.01 0.12 0.32 0.41 0.29 0.19 0.07 0.01 0.00 0.00 0.00 0.00 0.00 0.00 0.00 0.00 0.00 0.00 0.00 0.00 0.00 0.00 0.00 0.00 0.00 0.00 0.00 0.00 0.00 0.00 0.00 0.00 0.00 0.00 0.00 0.02 0.03
0.03 0.03 0.03 0.03 0.04 0.03 0.04 0.06 0.05 0.01 0.00 0.13 0.34 0.40 0.30 0.22 0.16 0.07 0.00 0.00 0.00 0.00 0.01 0.00 0.00 0.00 0.00 0.00 0.00 0.00 0.00 0.00 0.00 0.00 0.00 0.00 0.00 0.00 0.00 0.00 0.00 0.00 0.00 0.00 0.01 0.00 0.00
0.02 0.03 0.03 0.03 0.03 0.04 0.05 0.05 0.05 0.01 0.01 0.13 0.30 0.29 0.25 0.19 0.10 0.04 0.01 0.00 0.00 0.01 0.02 0.00 0.00 0.00 0.00 0.00 0.00 0.00 0.00 0.00 0.00 0.00 0.00 0.00 0.00 0.00 0.00 0.00 0.00 0.00 0.01 0.02 0.02 0.03 0.02
0.03 0.03 0.04 0.04 0.06 0.06 0.06 0.07 0.07 0.03 0.07 0.17 0.26 0.30 0.28 0.18 0.11 0.02 0.00 0.00 0.01 0.04 0.01 0.00 0.00 0.00 0.00 0.00 0.00 0.00 0.00 0.00 0.00 0.00 0.00 0.00 0.00 0.00 0.00 0.00 0.01 0.02 0.06 0.07 0.06 0.07 0.01
0.03 0.04 0.04 0.05 0.07 0.05 0.07 0.08 0.09 0.09 0.14 0.19 0.20 0.28 0.27 0.11 0.12 0.07 0.00 0.00 0.02 0.05 0.00 0.00 0.00 0.00 0.00 0.00 0.00 0.00 0.00 0.00 0.00 0.00 0.00 0.00 0.00 0.00 0.00 0.01 0.05 0.08 0.10 0.07 0.04 0.02 0.00
0.04 0.04 0.05 0.07 0.08 0.07 0.10 0.12 0.14 0.15 0.15 0.28 0.44 0.44 0.29 0.12 0.13 0.12 0.00 0.01 0.03 0.01 0.00 0.00 0.00 0.00 0.00 0.00 0.00 0.00 0.00 0.00 0.00 0.00 0.00 0.00 0.00 0.00 0.00 0.01 0.06 0.11 0.15 0.11 0.09 0.03 0.01
0.03 0.05 0.07 0.10 0.08 0.07 0.11 0.17 0.16 0.12 0.10 0.27 0.44 0.56 0.36 0.20 0.07 0.02 0.01 0.01 0.00 0.00 0.00 0.00 0.00 0.00 0.00 0.00 0.00 0.00 0.00 0.00 0.00 0.00 0.00 0.00 0.00 0.00 0.00 0.02 0.09 0.11 0.15 0.22 0.20 0.21 0.06
0.04 0.06 0.10 0.12 0.09 0.06 0.10 0.19 0.19 0.05 0.07 0.28 0.30 0.41 0.47 0.33 0.11 0.03 0.02 0.00 0.00 0.00 0.00 0.00 0.00 0.00 0.00 0.00 0.00 0.00 0.00 0.00 0.00 0.00 0.00 0.01 0.03 0.01 0.02 0.06 0.06 0.10 0.13 0.16 0.39 0.22 0.06
0.05 0.10 0.20 0.26 0.20 0.12 0.10 0.09 0.06 0.01 0.10 0.37 0.31 0.36 0.36 0.31 0.16 0.04 0.03 0.01 0.00 0.00 0.00 0.00 0.00 0.00 0.00 0.00 0.00 0.00 0.00 0.00 0.00 0.00 0.00 0.01 0.04 0.02 0.00 0.03 0.08 0.11 0.19 0.35 0.24 0.19 0.05
0.07 0.11 0.17 0.24 0.16 0.06 0.05 0.05 0.03 0.02 0.18 0.28 0.29 0.47 0.41 0.31 0.08 0.03 0.03 0.00 0.00 0.00 0.00 0.00 0.00 0.00 0.00 0.00 0.00 0.00 0.00 0.00 0.00 0.00 0.00 0.01 0.03 0.02 0.00 0.03 0.05 0.07 0.08 0.16 0.44 0.35 0.06
0.07 0.09 0.08 0.10 0.14 0.10 0.06 0.07 0.02 0.02 0.23 0.40 0.43 0.47 0.44 0.45 0.10 0.03 0.01 0.00 0.00 0.00 0.00 0.00 0.00 0.00 0.00 0.00 0.00 0.00 0.00 0.00 0.00 0.00 0.00 0.00 0.00 0.00 0.00 0.03 0.05 0.03 0.05 0.10 0.19 0.39 0.23
0.05 0.05 0.04 0.10 0.14 0.19 0.45 0.24 0.02 0.07 0.23 0.47 0.52 0.22 0.09 0.12 0.06 0.02 0.01 0.00 0.00 0.00 0.00 0.00 0.00 0.00 0.00 0.00 0.00 0.00 0.00 0.00 0.00 0.00 0.00 0.00 0.00 0.00 0.00 0.00 0.00 0.00 0.00 0.01 0.09 0.12 0.11
0.03 0.04 0.06 0.16 0.27 0.62 0.89 0.37 0.15 0.13 0.32 0.47 0.34 0.17 0.04 0.05 0.03 0.02 0.01 0.00 0.00 0.00 0.00 0.00 0.00 0.00 0.00 0.00 0.00 0.00 0.00 0.00 0.00 0.00 0.00 0.00 0.00 0.00 0.00 0.00 0.00 0.00 0.00 0.00 0.00 0.04 0.08
0.02 0.03 0.06 0.07 0.13 0.26 0.31 0.28 0.41 0.32 0.37 0.39 0.18 0.08 0.08 0.04 0.01 0.01 0.01 0.00 0.00 0.00 0.00 0.00 0.00 0.00 0.00 0.00 0.00 0.00 0.00 0.00 0.00 0.00 0.00 0.00 0.00 0.00 0.00 0.00 0.00 0.00 0.00 0.00 0.00 0.00 0.01
0.01 0.02 0.03 0.05 0.07 0.15 0.31 0.39 0.35 0.24 0.22 0.13 0.07 0.08 0.12 0.02 0.00 0.00 0.00 0.00 0.00 0.00 0.00 0.00 0.00 0.00 0.00 0.00 0.00 0.00 0.00 0.00 0.00 0.00 0.00 0.00 0.00 0.00 0.00 0.00 0.00 0.01 0.00 0.00 0.00 0.00 0.00
0.01 0.01 0.03 0.03 0.02 0.05 0.18 0.34 0.18 0.14 0.10 0.10 0.03 0.05 0.01 0.00 0.00 0.00 0.00 0.00 0.00 0.00 0.00 0.00 0.00 0.00 0.00 0.00 0.00 0.00 0.00 0.00 0.00 0.00 0.00 0.00 0.00 0.00 0.00 0.00 0.00 0.00 0.00 0.00 0.01 0.04 0.02
0.01 0.01 0.02 0.02 0.01 0.01 0.11 0.25 0.11 0.03 0.05 0.05 0.02 0.01 0.00 0.00 0.00 0.00 0.00 0.00 0.00 0.00 0.00 0.00 0.00 0.00 0.00 0.00 0.00 0.00 0.00 0.00 0.00 0.00 0.00 0.00 0.00 0.00 0.00 0.00 0.00 0.00 0.00 0.00 0.00 0.01 0.04
0.02 0.01 0.01 0.01 0.01 0.00 0.06 0.28 0.26 0.07 0.08 0.03 0.01 0.00 0.00 0.00 0.00 0.00 0.00 0.00 0.00 0.00 0.00 0.00 0.00 0.00 0.00 0.00 0.00 0.00 0.00 0.00 0.00 0.00 0.00 0.00 0.00 0.00 0.00 0.00 0.00 0.00 0.00 0.00 0.01 0.00 0.00
0.02 0.01 0.01 0.01 0.01 0.00 0.03 0.26 0.46 0.32 0.13 0.02 0.01 0.00 0.00 0.00 0.00 0.00 0.00 0.00 0.00 0.00 0.00 0.00 0.00 0.00 0.00 0.00 0.00 0.00 0.00 0.00 0.00 0.00 0.00 0.00 0.00 0.00 0.00 0.00 0.00 0.00 0.00 0.00 0.00 0.00 0.00
0.02 0.01 0.01 0.01 0.01 0.00 0.02 0.09 0.37 0.42 0.20 0.03 0.00 0.00 0.00 0.00 0.00 0.00 0.00 0.00 0.00 0.00 0.00 0.00 0.00 0.00 0.00 0.00 0.00 0.00 0.00 0.00 0.00 0.00 0.00 0.00 0.00 0.00 0.00 0.00 0.00 0.00 0.00 0.00 0.00 0.00 0.00

GFSGBSN_prec_precacc12_114.txt.gz
Total_Precipitation_Accumulation
0.01 0.01 0.01 0.01 0.01 0.00 0.00 0.00 0.04 0.05 0.07 0.11 0.08 0.07 0.04 0.02 0.03 0.04 0.03 0.02 0.01 0.00 0.00 0.00 0.00 0.00 0.00 0.00 0.00 0.00 0.00 0.00 0.00 0.00 0.01 0.07 0.16 0.21 0.17 0.09 0.08 0.09 0.14 0.17 0.28 0.42 0.41
0.02 0.01 0.02 0.01 0.02 0.01 0.01 0.00 0.00 0.05 0.08 0.08 0.10 0.11 0.07 0.06 0.04 0.06 0.05 0.01 0.00 0.00 0.00 0.00 0.00 0.00 0.00 0.00 0.00 0.00 0.00 0.00 0.00 0.00 0.00 0.03 0.08 0.16 0.14 0.08 0.09 0.13 0.16 0.09 0.26 0.38 0.24
0.02 0.02 0.02 0.02 0.02 0.02 0.01 0.01 0.00 0.01 0.04 0.07 0.09 0.10 0.10 0.08 0.03 0.04 0.06 0.03 0.00 0.00 0.00 0.00 0.00 0.00 0.00 0.00 0.00 0.00 0.00 0.00 0.00 0.00 0.00 0.02 0.01 0.09 0.09 0.02 0.00 0.08 0.21 0.18 0.28 0.49 0.15
0.02 0.02 0.03 0.03 0.02 0.02 0.02 0.02 0.01 0.01 0.01 0.04 0.08 0.12 0.11 0.09 0.04 0.04 0.07 0.06 0.01 0.00 0.00 0.00 0.00 0.00 0.00 0.00 0.00 0.00 0.00 0.00 0.00 0.00 0.00 0.00 0.02 0.09 0.07 0.03 0.02 0.03 0.10 0.24 0.30 0.53 0.37
0.03 0.03 0.03 0.03 0.03 0.03 0.03 0.03 0.02 0.02 0.02 0.04 0.09 0.11 0.10 0.08 0.05 0.02 0.03 0.03 0.01 0.00 0.00 0.00 0.00 0.00 0.00 0.00 0.00 0.00 0.00 0.00 0.00 0.00 0.00 0.01 0.03 0.06 0.04 0.04 0.03 0.02 0.05 0.14 0.30 0.38 0.43
0.04 0.04 0.03 0.03 0.03 0.03 0.03 0.04 0.04 0.03 0.03 0.04 0.07 0.09 0.10 0.06 0.03 0.02 0.01 0.01 0.00 0.00 0.00 0.00 0.00 0.00 0.00 0.00 0.00 0.00 0.00 0.00 0.00 0.00 0.00 0.00 0.01 0.06 0.01 0.07 0.08 0.03 0.04 0.06 0.14 0.29 0.29
0.04 0.03 0.03 0.03 0.04 0.04 0.04 0.05 0.05 0.04 0.02 0.02 0.06 0.12 0.10 0.04 0.04 0.03 0.00 0.00 0.00 0.00 0.00 0.00 0.00 0.00 0.00 0.00 0.00 0.00 0.00 0.00 0.00 0.00 0.00 0.00 0.03 0.06 0.05 0.00 0.00 0.00 0.00 0.02 0.07 0.15 0.21
0.04 0.03 0.03 0.04 0.05 0.05 0.05 0.06 0.05 0.03 0.02 0.03 0.06 0.10 0.08 0.05 0.06 0.05 0.01 0.01 0.00 0.00 0.00 0.00 0.00 0.00 0.00 0.00 0.00 0.00 0.00 0.00 0.00 0.00 0.00 0.00 0.01 0.00 0.00 0.00 0.00 0.00 0.00 0.01 0.04 0.10 0.09
0.04 0.04 0.03 0.04 0.05 0.06 0.06 0.06 0.06 0.04 0.03 0.04 0.08 0.11 0.14 0.10 0.09 0.06 0.02 0.00 0.00 0.00 0.00 0.00 0.00 0.00 0.00 0.00 0.00 0.00 0.00 0.00 0.00 0.00 0.00 0.00 0.00 0.00 0.00 0.00 0.00 0.00 0.00 0.00 0.01 0.06 0.05
0.03 0.04 0.03 0.04 0.05 0.06 0.07 0.08 0.06 0.03 0.02 0.04 0.10 0.25 0.21 0.15 0.07 0.01 0.00 0.00 0.00 0.00 0.00 0.00 0.00 0.00 0.00 0.00 0.00 0.00 0.00 0.00 0.00 0.00 0.00 0.00 0.00 0.00 0.00 0.00 0.00 0.00 0.00 0.00 0.01 0.02 0.04
0.03 0.02 0.03 0.04 0.04 0.04 0.06 0.06 0.06 0.02 0.02 0.06 0.16 0.26 0.19 0.17 0.16 0.07 0.02 0.00 0.00 0.00 0.02 0.00 0.00 0.00 0.00 0.00 0.00 0.00 0.00 0.00 0.00 0.00 0.00 0.00 0.00 0.00 0.00 0.00 0.00 0.00 0.00 0.00 0.01 0.00 0.00
0.01 0.02 0.02 0.03 0.04 0.06 0.06 0.05 0.06 0.03 0.03 0.12 0.18 0.19 0.18 0.12 0.10 0.05 0.03 0.00 0.00 0.02 0.03 0.00 0.00 0.00 0.00 0.00 0.00 0.00 0.00 0.00 0.00 0.00 0.00 0.00 0.00 0.00 0.00 0.00 0.00 0.00 0.01 0.02 0.02 0.02 0.01
0.01 0.01 0.02 0.04 0.06 0.07 0.05 0.08 0.09 0.06 0.11 0.19 0.17 0.20 0.14 0.11 0.12 0.03 0.01 0.00 0.03 0.07 0.02 0.00 0.00 0.00 0.00 0.00 0.00 0.00 0.00 0.00 0.00 0.00 0.00 0.00 0.00 0.00 0.00 0.00 0.01 0.02 0.08 0.09 0.06 0.04 0.01
0.01 0.02 0.03 0.04 0.07 0.06 0.05 0.09 0.12 0.11 0.16 0.12 0.07 0.06 0.09 0.08 0.12 0.08 0.01 0.01 0.08 0.06 0.00 0.00 0.00 0.00 0.00 0.00 0.00 0.00 0.00 0.00 0.00 0.00 0.00 0.00 0.00 0.00 0.00 0.01 0.06 0.09 0.13 0.14 0.17 0.07 0.03
0.03 0.03 0.03 0.06 0.08 0.06 0.06 0.12 0.16 0.16 0.10 0.08 0.23 0.33 0.16 0.12 0.14 0.16 0.02 0.06 0.06 0.01 0.00 0.00 0.00 0.00 0.00 0.00 0.00 0.00 0.00 0.00 0.00 0.00 0.00 0.00 0.00 0.00 0.00 0.01 0.05 0.10 0.16 0.13 0.11 0.02 0.01
0.05 0.03 0.05 0.07 0.06 0.05 0.07 0.15 0.17 0.12 0.03 0.04 0.26 0.37 0.27 0.29 0.11 0.06 0.02 0.04 0.01 0.00 0.00 0.00 0.00 0.00 0.00 0.00 0.00 0.00 0.00 0.00 0.00 0.00 0.00 0.00 0.00 0.00 0.00 0.01 0.09 0.12 0.16 0.24 0.21 0.13 0.06
0.07 0.04 0.07 0.08 0.06 0.04 0.08 0.18 0.20 0.05 0.00 0.03 0.15 0.27 0.40 0.40 0.12 0.03 0.04 0.01 0.00 0.00 0.00 0.00 0.00 0.00 0.00 0.00 0.00 0.00 0.00 0.00 0.00 0.00 0.00 0.01 0.02 0.00 0.00 0.02 0.04 0.07 0.11 0.15 0.43 0.23 0.16
0.07 0.06 0.06 0.08 0.07 0.06 0.08 0.09 0.06 0.00 0.00 0.06 0.13 0.28 0.35 0.33 0.20 0.04 0.03 0.00 0.00 0.00 0.00 0.00 0.00 0.00 0.00 0.00 0.00 0.00 0.00 0.00 0.00 0.00 0.00 0.00 0.02 0.00 0.00 0.00 0.04 0.08 0.15 0.28 0.21 0.22 0.07
0.07 0.05 0.05 0.07 0.06 0.02 0.04 0.05 0.03 0.00 0.01 0.08 0.15 0.37 0.39 0.32 0.09 0.04 0.03 0.00 0.00 0.00 0.00 0.00 0.00 0.00 0.00 0.00 0.00 0.00 0.00 0.00 0.00 0.00 0.00 0.00 0.01 0.00 0.00 0.01 0.02 0.02 0.04 0.10 0.35 0.31 0.07
0.06 0.04 0.04 0.06 0.09 0.06 0.05 0.07 0.02 0.00 0.01 0.16 0.23 0.35 0.33 0.45 0.10 0.03 0.01 0.00 0.00 0.00 0.00 0.00 0.00 0.00 0.00 0.00 0.00 0.00 0.00 0.00 0.00 0.00 0.00 0.00 0.00 0.00 0.00 0.00 0.01 0.00 0.00 0.01 0.08 0.24 0.22
0.07 0.04 0.04 0.06 0.09 0.14 0.43 0.24 0.02 0.00 0.01 0.22 0.37 0.18 0.07 0.12 0.06 0.01 0.00 0.00 0.00 0.00 0.00 0.00 0.00 0.00 0.00 0.00 0.00 0.00 0.00 0.00 0.00 0.00 0.00 0.00 0.00 0.00 0.00 0.00 0.00 0.00 0.00 0.00 0.02 0.08 0.10
0.04 0.03 0.03 0.03 0.06 0.23 0.66 0.26 0.08 0.02 0.06 0.18 0.26 0.17 0.04 0.04 0.02 0.01 0.00 0.00 0.00 0.00 0.00 0.00 0.00 0.00 0.00 0.00 0.00 0.00 0.00 0.00 0.00 0.00 0.00 0.00 0.00 0.00 0.00 0.00 0.00 0.00 0.00 0.00 0.00 0.00 0.00
0.02 0.03 0.04 0.02 0.02 0.11 0.19 0.16 0.30 0.17 0.09 0.14 0.14 0.08 0.07 0.04 0.01 0.00 0.00 0.00 0.00 0.00 0.00 0.00 0.00 0.00 0.00 0.00 0.00 0.00 0.00 0.00 0.00 0.00 0.00 0.00 0.00 0.00 0.00 0.00 0.00 0.00 0.00 0.00 0.00 0.00 0.00
0.01 0.02 0.03 0.03 0.02 0.03 0.09 0.13 0.14 0.11 0.11 0.07 0.06 0.08 0.12 0.02 0.00 0.00 0.00 0.00 0.00 0.00 0.00 0.00 0.00 0.00 0.00 0.00 0.00 0.00 0.00 0.00 0.00 0.00 0.00 0.00 0.00 0.00 0.00 0.00 0.00 0.01 0.00 0.00 0.00 0.00 0.00
0.01 0.01 0.02 0.01 0.01 0.01 0.03 0.12 0.13 0.13 0.07 0.08 0.03 0.05 0.01 0.00 0.00 0.00 0.00 0.00 0.00 0.00 0.00 0.00 0.00 0.00 0.00 0.00 0.00 0.00 0.00 0.00 0.00 0.00 0.00 0.00 0.00 0.00 0.00 0.00 0.00 0.00 0.00 0.00 0.00 0.02 0.02
0.01 0.01 0.02 0.01 0.01 0.01 0.02 0.08 0.08 0.02 0.02 0.03 0.02 0.01 0.00 0.00 0.00 0.00 0.00 0.00 0.00 0.00 0.00 0.00 0.00 0.00 0.00 0.00 0.00 0.00 0.00 0.00 0.00 0.00 0.00 0.00 0.00 0.00 0.00 0.00 0.00 0.00 0.00 0.00 0.00 0.01 0.04
0.01 0.00 0.01 0.01 0.01 0.00 0.01 0.06 0.14 0.02 0.01 0.02 0.02 0.00 0.00 0.00 0.00 0.00 0.00 0.00 0.00 0.00 0.00 0.00 0.00 0.00 0.00 0.00 0.00 0.00 0.00 0.00 0.00 0.00 0.00 0.00 0.00 0.00 0.00 0.00 0.00 0.00 0.00 0.00 0.01 0.00 0.00
0.01 0.01 0.01 0.01 0.01 0.00 0.00 0.06 0.20 0.22 0.03 0.03 0.01 0.00 0.00 0.00 0.00 0.00 0.00 0.00 0.00 0.00 0.00 0.00 0.00 0.00 0.00 0.00 0.00 0.00 0.00 0.00 0.00 0.00 0.00 0.00 0.00 0.00 0.00 0.00 0.00 0.00 0.00 0.00 0.00 0.00 0.00
0.01 0.01 0.00 0.01 0.01 0.00 0.00 0.01 0.10 0.27 0.12 0.05 0.02 0.01 0.00 0.00 0.00 0.00 0.00 0.00 0.00 0.00 0.00 0.00 0.00 0.00 0.00 0.00 0.00 0.00 0.00 0.00 0.00 0.00 0.00 0.00 0.00 0.00 0.00 0.00 0.00 0.00 0.00 0.00 0.00 0.00 0.00

GFSGBSN_prec_precacc12_117.txt.gz
Total_Precipitation_Accumulation
0.02 0.02 0.02 0.02 0.02 0.01 0.01 0.01 0.01 0.00 0.01 0.02 0.03 0.05 0.03 0.02 0.03 0.05 0.13 0.15 0.05 0.01 0.01 0.01 0.00 0.00 0.00 0.00 0.00 0.00 0.00 0.00 0.00 0.00 0.01 0.07 0.15 0.17 0.16 0.10 0.10 0.08 0.08 0.10 0.16 0.29 0.29
0.03 0.02 0.03 0.03 0.03 0.02 0.02 0.01 0.01 0.01 0.01 0.01 0.02 0.04 0.05 0.05 0.04 0.06 0.09 0.09 0.04 0.01 0.00 0.00 0.00 0.00 0.00 0.00 0.00 0.00 0.00 0.00 0.00 0.00 0.00 0.02 0.08 0.16 0.14 0.08 0.10 0.09 0.04 0.03 0.03 0.09 0.16
0.02 0.03 0.03 0.03 0.03 0.03 0.02 0.02 0.01 0.01 0.01 0.02 0.02 0.03 0.06 0.05 0.03 0.04 0.07 0.08 0.06 0.01 0.00 0.00 0.00 0.00 0.00 0.00 0.00 0.00 0.00 0.00 0.00 0.00 0.00 0.02 0.01 0.08 0.09 0.02 0.00 0.03 0.03 0.02 0.02 0.07 0.09
0.03 0.04 0.04 0.03 0.03 0.03 0.03 0.03 0.02 0.01 0.01 0.02 0.02 0.04 0.07 0.07 0.04 0.04 0.07 0.07 0.05 0.03 0.00 0.00 0.00 0.01 0.00 0.00 0.00 0.00 0.00 0.00 0.00 0.00 0.00 0.00 0.02 0.09 0.07 0.04 0.01 0.01 0.01 0.03 0.01 0.22 0.23
0.03 0.05 0.04 0.04 0.04 0.03 0.04 0.04 0.03 0.03 0.02 0.03 0.03 0.01 0.06 0.06 0.03 0.02 0.03 0.04 0.01 0.01 0.00 0.00 0.00 0.00 0.00 0.00 0.00 0.00 0.00 0.00 0.00 0.00 0.00 0.01 0.03 0.06 0.04 0.04 0.02 0.01 0.01 0.01 0.00 0.09 0.25
0.04 0.04 0.03 0.04 0.04 0.04 0.04 0.04 0.05 0.04 0.03 0.04 0.03 0.03 0.07 0.05 0.01 0.01 0.02 0.01 0.00 0.00 0.00 0.00 0.00 0.00 0.00 0.00 0.00 0.00 0.00 0.00 0.00 0.00 0.00 0.00 0.01 0.05 0.02 0.09 0.10 0.07 0.07 0.02 0.00 0.01 0.14
0.04 0.03 0.03 0.04 0.04 0.04 0.05 0.06 0.07 0.05 0.04 0.03 0.04 0.07 0.08 0.04 0.02 0.03 0.01 0.00 0.00 0.00 0.00 0.00 0.00 0.00 0.00 0.00 0.00 0.00 0.00 0.00 0.00 0.00 0.00 0.00 0.03 0.06 0.07 0.04 0.01 0.01 0.00 0.00 0.00 0.02 0.08
0.03 0.03 0.04 0.04 0.05 0.06 0.06 0.08 0.07 0.04 0.04 0.04 0.07 0.11 0.11 0.04 0.05 0.04 0.01 0.01 0.00 0.00 0.00 0.00 0.00 0.00 0.00 0.00 0.00 0.00 0.00 0.00 0.00 0.00 0.00 0.01 0.01 0.01 0.01 0.01 0.00 0.00 0.00 0.01 0.03 0.02 0.04
0.02 0.03 0.03 0.04 0.05 0.07 0.09 0.09 0.06 0.06 0.06 0.08 0.11 0.15 0.17 0.09 0.06 0.02 0.01 0.00 0.00 0.00 0.00 0.00 0.00 0.00 0.00 0.00 0.00 0.00 0.00 0.00 0.00 0.00 0.00 0.01 0.00 0.00 0.00 0.00 0.00 0.00 0.01 0.01 0.03 0.02 0.02
0.02 0.02 0.03 0.03 0.04 0.07 0.10 0.08 0.07 0.07 0.06 0.08 0.14 0.20 0.17 0.07 0.03 0.01 0.00 0.00 0.00 0.00 0.01 0.00 0.00 0.00 0.00 0.00 0.00 0.00 0.00 0.00 0.00 0.00 0.00 0.00 0.00 0.00 0.00 0.00 0.01 0.00 0.01 0.00 0.00 0.01 0.03
0.03 0.01 0.03 0.02 0.03 0.06 0.06 0.05 0.08 0.05 0.05 0.09 0.20 0.20 0.14 0.08 0.02 0.05 0.05 0.00 0.00 0.00 0.03 0.00 0.00 0.00 0.00 0.00 0.00 0.00 0.00 0.00 0.00 0.00 0.00 0.00 0.00 0.00 0.00 0.00 0.00 0.00 0.00 0.00 0.01 0.00 0.00
0.04 0.02 0.03 0.02 0.03 0.06 0.04 0.04 0.08 0.06 0.05 0.15 0.20 0.18 0.16 0.05 0.02 0.03 0.05 0.00 0.00 0.03 0.04 0.00 0.00 0.00 0.00 0.00 0.00 0.00 0.00 0.00 0.00 0.00 0.00 0.00 0.00 0.00 0.00 0.00 0.00 0.00 0.01 0.02 0.02 0.02 0.01
0.05 0.02 0.03 0.02 0.05 0.08 0.04 0.05 0.08 0.07 0.11 0.20 0.18 0.17 0.08 0.02 0.03 0.03 0.02 0.00 0.05 0.07 0.02 0.00 0.00 0.00 0.00 0.00 0.00 0.00 0.00 0.00 0.00 0.00 0.00 0.00 0.00 0.00 0.00 0.00 0.01 0.02 0.08 0.09 0.06 0.04 0.01
0.05 0.04 0.04 0.03 0.07 0.06 0.03 0.05 0.09 0.12 0.16 0.13 0.09 0.04 0.06 0.04 0.08 0.08 0.02 0.04 0.12 0.04 0.00 0.00 0.00 0.00 0.00 0.00 0.00 0.00 0.00 0.00 0.00 0.00 0.00 0.00 0.00 0.00 0.00 0.01 0.05 0.08 0.12 0.23 0.40 0.16 0.07
0.05 0.06 0.04 0.04 0.07 0.04 0.02 0.06 0.12 0.16 0.10 0.04 0.08 0.25 0.12 0.08 0.13 0.17 0.03 0.12 0.07 0.01 0.00 0.00 0.00 0.00 0.00 0.00 0.00 0.00 0.00 0.00 0.00 0.00 0.00 0.00 0.00 0.00 0.00 0.01 0.04 0.08 0.13 0.12 0.16 0.06 0.07
0.06 0.05 0.04 0.06 0.04 0.02 0.02 0.07 0.13 0.11 0.03 0.00 0.06 0.26 0.23 0.25 0.11 0.07 0.04 0.07 0.00 0.00 0.00 0.00 0.00 0.00 0.00 0.00 0.00 0.00 0.00 0.00 0.00 0.00 0.00 0.00 0.00 0.00 0.00 0.01 0.07 0.09 0.11 0.18 0.17 0.11 0.11
0.07 0.03 0.04 0.05 0.03 0.01 0.01 0.08 0.17 0.04 0.00 0.00 0.05 0.20 0.38 0.36 0.12 0.03 0.05 0.01 0.00 0.00 0.00 0.00 0.00 0.00 0.00 0.00 0.00 0.00 0.00 0.00 0.00 0.00 0.00 0.00 0.01 0.00 0.00 0.02 0.02 0.04 0.07 0.11 0.40 0.21 0.26
0.06 0.02 0.04 0.05 0.03 0.00 0.01 0.03 0.04 0.00 0.00 0.01 0.04 0.22 0.33 0.29 0.19 0.03 0.02 0.00 0.00 0.00 0.00 0.00 0.00 0.00 0.00 0.00 0.00 0.00 0.00 0.00 0.00 0.00 0.00 0.00 0.01 0.00 0.00 0.00 0.02 0.04 0.07 0.09 0.13 0.19 0.10
0.06 0.02 0.04 0.05 0.05 0.01 0.01 0.02 0.02 0.00 0.00 0.02 0.07 0.26 0.29 0.23 0.09 0.03 0.01 0.00 0.00 0.00 0.00 0.00 0.00 0.00 0.00 0.00 0.00 0.00 0.00 0.00 0.00 0.00 0.00 0.00 0.00 0.00 0.00 0.01 0.01 0.01 0.00 0.02 0.08 0.13 0.06
0.05 0.01 0.03 0.05 0.07 0.04 0.04 0.06 0.01 0.00 0.00 0.01 0.09 0.20 0.16 0.29 0.09 0.02 0.00 0.00 0.00 0.00 0.00 0.00 0.00 0.00 0.00 0.00 0.00 0.00 0.00 0.00 0.00 0.00 0.00 0.00 0.00 0.00 0.00 0.00 0.00 0.00 0.00 0.00 0.00 0.06 0.11
0.05 0.02 0.02 0.04 0.06 0.06 0.18 0.17 0.01 0.00 0.00 0.01 0.09 0.08 0.04 0.07 0.04 0.01 0.00 0.00 0.00 0.00 0.00 0.00 0.00 0.00 0.00 0.00 0.00 0.00 0.00 0.00 0.00 0.00 0.00 0.00 0.00 0.00 0.00 0.00 0.00 0.00 0.00 0.00 0.00 0.00 0.02
0.03 0.01 0.01 0.02 0.04 0.05 0.15 0.19 0.04 0.01 0.01 0.00 0.07 0.13 0.03 0.03 0.01 0.01 0.00 0.00 0.00 0.00 0.00 0.00 0.00 0.00 0.00 0.00 0.00 0.00 0.00 0.00 0.00 0.00 0.00 0.00 0.00 0.00 0.00 0.00 0.00 0.00 0.00 0.00 0.00 0.00 0.00
0.01 0.01 0.01 0.01 0.02 0.02 0.06 0.12 0.08 0.08 0.03 0.00 0.01 0.06 0.06 0.03 0.01 0.00 0.00 0.00 0.00 0.00 0.00 0.00 0.00 0.00 0.00 0.00 0.00 0.00 0.00 0.00 0.00 0.00 0.00 0.00 0.00 0.00 0.00 0.00 0.00 0.00 0.00 0.00 0.00 0.00 0.00
0.01 0.01 0.01 0.02 0.01 0.01 0.02 0.04 0.05 0.03 0.03 0.01 0.01 0.07 0.12 0.02 0.00 0.00 0.00 0.00 0.00 0.00 0.00 0.00 0.00 0.00 0.00 0.00 0.00 0.00 0.00 0.00 0.00 0.00 0.00 0.00 0.00 0.00 0.00 0.00 0.00 0.00 0.00 0.00 0.00 0.00 0.00
0.00 0.00 0.01 0.01 0.01 0.01 0.01 0.01 0.01 0.02 0.02 0.03 0.02 0.05 0.01 0.00 0.00 0.00 0.00 0.00 0.00 0.00 0.00 0.00 0.00 0.00 0.00 0.00 0.00 0.00 0.00 0.00 0.00 0.00 0.00 0.00 0.00 0.00 0.00 0.00 0.00 0.00 0.00 0.00 0.00 0.00 0.01
0.00 0.00 0.01 0.01 0.00 0.00 0.00 0.01 0.01 0.01 0.01 0.02 0.01 0.01 0.00 0.00 0.00 0.00 0.00 0.00 0.00 0.00 0.00 0.00 0.00 0.00 0.00 0.00 0.00 0.00 0.00 0.00 0.00 0.00 0.00 0.00 0.00 0.00 0.00 0.00 0.00 0.00 0.00 0.00 0.00 0.00 0.01
0.01 0.00 0.00 0.01 0.01 0.00 0.00 0.00 0.00 0.01 0.01 0.01 0.01 0.01 0.00 0.00 0.00 0.00 0.00 0.00 0.00 0.00 0.00 0.00 0.00 0.00 0.00 0.00 0.00 0.00 0.00 0.00 0.00 0.00 0.00 0.00 0.00 0.00 0.00 0.00 0.00 0.00 0.00 0.00 0.00 0.00 0.00
0.00 0.00 0.01 0.01 0.01 0.00 0.00 0.00 0.01 0.08 0.02 0.02 0.01 0.00 0.00 0.00 0.00 0.00 0.00 0.00 0.00 0.00 0.00 0.00 0.00 0.00 0.00 0.00 0.00 0.00 0.00 0.00 0.00 0.00 0.00 0.00 0.00 0.00 0.00 0.00 0.00 0.00 0.00 0.00 0.00 0.00 0.00
0.01 0.00 0.00 0.01 0.01 0.00 0.00 0.00 0.01 0.10 0.05 0.03 0.02 0.01 0.00 0.00 0.00 0.00 0.00 0.00 0.00 0.00 0.00 0.00 0.00 0.00 0.00 0.00 0.00 0.00 0.00 0.00 0.00 0.00 0.00 0.00 0.00 0.00 0.00 0.00 0.00 0.00 0.00 0.00 0.00 0.00 0.00

GFSGBSN_prec_precacc12_120.txt.gz
Total_Precipitation_Accumulation
0.04 0.03 0.04 0.03 0.03 0.02 0.02 0.02 0.01 0.01 0.02 0.02 0.03 0.04 0.03 0.01 0.02 0.05 0.13 0.24 0.22 0.06 0.01 0.01 0.00 0.00 0.00 0.00 0.00 0.00 0.00 0.00 0.00 0.00 0.01 0.04 0.08 0.08 0.12 0.09 0.10 0.08 0.07 0.07 0.08 0.10 0.13
0.03 0.04 0.06 0.03 0.03 0.03 0.02 0.02 0.02 0.02 0.02 0.02 0.03 0.03 0.05 0.06 0.03 0.06 0.09 0.09 0.10 0.11 0.01 0.01 0.00 0.00 0.00 0.00 0.00 0.00 0.00 0.00 0.00 0.00 0.00 0.02 0.06 0.12 0.14 0.09 0.10 0.09 0.04 0.03 0.01 0.01 0.08
0.03 0.05 0.05 0.03 0.05 0.03 0.03 0.03 0.03 0.02 0.02 0.03 0.04 0.03 0.05 0.11 0.05 0.04 0.07 0.08 0.08 0.05 0.00 0.00 0.00 0.00 0.00 0.00 0.00 0.00 0.00 0.00 0.00 0.00 0.00 0.00 0.00 0.07 0.09 0.02 0.00 0.03 0.03 0.02 0.00 0.00 0.01
0.03 0.05 0.04 0.04 0.04 0.03 0.04 0.05 0.05 0.04 0.04 0.04 0.05 0.05 0.04 0.08 0.08 0.04 0.07 0.08 0.06 0.05 0.02 0.00 0.00 0.01 0.00 0.00 0.00 0.00 0.00 0.00 0.00 0.00 0.00 0.00 0.01 0.08 0.06 0.03 0.01 0.01 0.01 0.01 0.00 0.00 0.02
0.03 0.05 0.04 0.05 0.03 0.03 0.05 0.07 0.07 0.05 0.04 0.05 0.05 0.04 0.06 0.08 0.06 0.02 0.03 0.04 0.02 0.03 0.02 0.01 0.00 0.00 0.00 0.00 0.00 0.00 0.00 0.00 0.00 0.00 0.00 0.00 0.02 0.05 0.03 0.04 0.02 0.01 0.01 0.01 0.00 0.00 0.01
0.03 0.03 0.03 0.03 0.03 0.03 0.06 0.08 0.07 0.06 0.06 0.06 0.05 0.05 0.11 0.06 0.04 0.01 0.03 0.05 0.03 0.02 0.00 0.00 0.00 0.00 0.00 0.00 0.00 0.00 0.00 0.00 0.00 0.00 0.00 0.00 0.01 0.04 0.02 0.10 0.11 0.07 0.07 0.02 0.00 0.00 0.01
0.03 0.03 0.03 0.02 0.02 0.04 0.07 0.09 0.08 0.07 0.07 0.07 0.08 0.12 0.16 0.07 0.06 0.03 0.01 0.01 0.01 0.00 0.00 0.00 0.00 0.00 0.00 0.00 0.00 0.00 0.00 0.00 0.00 0.00 0.00 0.00 0.02 0.06 0.07 0.05 0.02 0.01 0.00 0.00 0.00 0.00 0.00
0.04 0.05 0.05 0.03 0.03 0.05 0.08 0.09 0.08 0.09 0.09 0.10 0.13 0.18 0.16 0.06 0.08 0.05 0.01 0.01 0.00 0.00 0.00 0.00 0.00 0.00 0.00 0.00 0.00 0.00 0.00 0.00 0.00 0.00 0.00 0.01 0.01 0.01 0.01 0.02 0.02 0.02 0.01 0.02 0.04 0.01 0.00
0.07 0.08 0.06 0.05 0.03 0.07 0.09 0.08 0.08 0.10 0.10 0.16 0.19 0.20 0.17 0.10 0.08 0.02 0.02 0.01 0.00 0.00 0.00 0.00 0.00 0.00 0.00 0.00 0.00 0.00 0.00 0.00 0.00 0.00 0.00 0.01 0.00 0.00 0.00 0.00 0.00 0.00 0.02 0.01 0.03 0.00 0.00
0.10 0.11 0.07 0.06 0.04 0.07 0.10 0.06 0.07 0.12 0.10 0.13 0.19 0.24 0.15 0.06 0.04 0.01 0.04 0.01 0.00 0.00 0.02 0.00 0.00 0.00 0.00 0.00 0.00 0.00 0.00 0.00 0.00 0.00 0.00 0.00 0.00 0.00 0.00 0.00 0.01 0.00 0.01 0.00 0.00 0.00 0.02
0.13 0.11 0.08 0.04 0.04 0.06 0.06 0.03 0.07 0.08 0.06 0.10 0.25 0.23 0.15 0.07 0.01 0.05 0.07 0.00 0.00 0.00 0.02 0.01 0.00 0.00 0.00 0.00 0.00 0.00 0.00 0.00 0.00 0.00 0.00 0.00 0.00 0.00 0.00 0.00 0.00 0.00 0.00 0.00 0.00 0.00 0.00
0.13 0.09 0.07 0.02 0.03 0.05 0.03 0.02 0.06 0.07 0.05 0.16 0.22 0.19 0.16 0.03 0.02 0.02 0.05 0.00 0.00 0.01 0.02 0.00 0.00 0.00 0.00 0.00 0.00 0.00 0.00 0.00 0.00 0.00 0.00 0.00 0.00 0.00 0.00 0.00 0.00 0.00 0.01 0.01 0.01 0.01 0.01
0.10 0.08 0.06 0.02 0.04 0.06 0.03 0.02 0.06 0.07 0.10 0.19 0.19 0.17 0.07 0.01 0.02 0.03 0.02 0.00 0.04 0.05 0.01 0.00 0.00 0.00 0.00 0.00 0.00 0.00 0.00 0.00 0.00 0.00 0.00 0.00 0.00 0.00 0.00 0.00 0.00 0.02 0.06 0.07 0.05 0.03 0.05
0.08 0.07 0.04 0.02 0.05 0.04 0.01 0.02 0.05 0.07 0.12 0.12 0.09 0.02 0.05 0.03 0.03 0.07 0.02 0.04 0.12 0.03 0.00 0.00 0.00 0.00 0.00 0.00 0.00 0.00 0.00 0.00 0.00 0.00 0.00 0.00 0.00 0.00 0.00 0.01 0.03 0.05 0.10 0.28 0.48 0.20 0.11
0.06 0.07 0.03 0.02 0.04 0.03 0.01 0.02 0.05 0.06 0.05 0.04 0.03 0.14 0.10 0.06 0.10 0.16 0.04 0.12 0.07 0.00 0.00 0.00 0.00 0.00 0.00 0.00 0.00 0.00 0.00 0.00 0.00 0.00 0.00 0.00 0.00 0.00 0.00 0.00 0.03 0.04 0.09 0.11 0.22 0.14 0.09
0.08 0.05 0.02 0.03 0.03 0.02 0.00 0.02 0.04 0.02 0.01 0.00 0.01 0.10 0.14 0.18 0.10 0.07 0.04 0.07 0.00 0.00 0.00 0.00 0.00 0.00 0.00 0.00 0.00 0.00 0.00 0.00 0.00 0.00 0.00 0.00 0.00 0.00 0.00 0.00 0.04 0.05 0.07 0.10 0.12 0.08 0.14
0.08 0.03 0.02 0.03 0.03 0.01 0.00 0.01 0.02 0.00 0.00 0.00 0.02 0.11 0.22 0.23 0.07 0.03 0.05 0.01 0.00 0.00 0.00 0.00 0.00 0.00 0.00 0.00 0.00 0.00 0.00 0.00 0.00 0.00 0.00 0.00 0.00 0.00 0.00 0.00 0.01 0.02 0.03 0.05 0.26 0.11 0.26
0.07 0.01 0.01 0.02 0.03 0.00 0.00 0.00 0.01 0.00 0.00 0.00 0.03 0.19 0.26 0.18 0.11 0.03 0.01 0.00 0.00 0.00 0.00 0.00 0.00 0.00 0.00 0.00 0.00 0.00 0.00 0.00 0.00 0.00 0.00 0.00 0.00 0.00 0.00 0.00 0.00 0.02 0.01 0.00 0.04 0.14 0.07
0.05 0.01 0.01 0.01 0.04 0.01 0.00 0.00 0.00 0.00 0.00 0.00 0.03 0.16 0.21 0.10 0.05 0.03 0.00 0.00 0.00 0.00 0.00 0.00 0.00 0.00 0.00 0.00 0.00 0.00 0.00 0.00 0.00 0.00 0.00 0.00 0.00 0.00 0.00 0.01 0.01 0.00 0.00 0.00 0.00 0.01 0.04
0.05 0.00 0.00 0.01 0.04 0.03 0.00 0.00 0.01 0.00 0.00 0.00 0.01 0.08 0.06 0.09 0.05 0.02 0.00 0.00 0.00 0.00 0.00 0.00 0.00 0.00 0.00 0.00 0.00 0.00 0.00 0.00 0.00 0.00 0.00 0.00 0.00 0.00 0.00 0.00 0.00 0.00 0.00 0.00 0.00 0.01 0.01
0.05 0.00 0.00 0.00 0.03 0.04 0.01 0.01 0.00 0.00 0.00 0.00 0.00 0.02 0.02 0.02 0.02 0.01 0.00 0.00 0.00 0.00 0.00 0.00 0.00 0.00 0.00 0.00 0.00 0.00 0.00 0.00 0.00 0.00 0.00 0.00 0.00 0.00 0.00 0.00 0.00 0.00 0.00 0.00 0.00 0.00 0.00
0.03 0.00 0.00 0.00 0.01 0.03 0.01 0.04 0.01 0.00 0.00 0.00 0.00 0.04 0.02 0.03 0.00 0.00 0.00 0.00 0.00 0.00 0.00 0.00 0.00 0.00 0.00 0.00 0.00 0.00 0.00 0.00 0.00 0.00 0.00 0.00 0.00 0.00 0.00 0.00 0.00 0.00 0.00 0.00 0.00 0.00 0.00
0.02 0.00 0.00 0.00 0.00 0.01 0.01 0.02 0.00 0.00 0.01 0.00 0.00 0.00 0.01 0.01 0.01 0.00 0.00 0.00 0.00 0.00 0.00 0.00 0.00 0.00 0.00 0.00 0.00 0.00 0.00 0.00 0.00 0.00 0.00 0.00 0.00 0.00 0.00 0.00 0.00 0.00 0.00 0.00 0.00 0.00 0.00
0.01 0.00 0.00 0.00 0.00 0.00 0.00 0.01 0.01 0.01 0.01 0.01 0.00 0.00 0.02 0.01 0.00 0.00 0.00 0.00 0.00 0.00 0.00 0.00 0.00 0.00 0.00 0.00 0.00 0.00 0.00 0.00 0.00 0.00 0.00 0.00 0.00 0.00 0.00 0.00 0.00 0.00 0.00 0.00 0.00 0.00 0.00
0.00 0.01 0.00 0.00 0.00 0.00 0.00 0.00 0.00 0.01 0.01 0.02 0.01 0.00 0.00 0.00 0.00 0.00 0.00 0.00 0.00 0.00 0.00 0.00 0.00 0.00 0.00 0.00 0.00 0.00 0.00 0.00 0.00 0.00 0.00 0.00 0.00 0.00 0.00 0.00 0.00 0.00 0.00 0.00 0.00 0.00 0.00
0.00 0.01 0.00 0.00 0.00 0.00 0.00 0.00 0.00 0.00 0.01 0.02 0.01 0.00 0.00 0.00 0.00 0.00 0.00 0.00 0.00 0.00 0.00 0.00 0.00 0.00 0.00 0.00 0.00 0.00 0.00 0.00 0.00 0.00 0.00 0.00 0.00 0.00 0.00 0.00 0.00 0.00 0.00 0.00 0.00 0.00 0.00
0.01 0.00 0.01 0.00 0.00 0.00 0.00 0.00 0.00 0.00 0.00 0.01 0.01 0.01 0.00 0.00 0.00 0.00 0.00 0.00 0.00 0.00 0.00 0.00 0.00 0.00 0.00 0.00 0.00 0.00 0.00 0.00 0.00 0.00 0.00 0.00 0.00 0.00 0.00 0.00 0.00 0.00 0.00 0.00 0.00 0.00 0.00
0.00 0.00 0.01 0.00 0.00 0.00 0.00 0.00 0.00 0.01 0.01 0.02 0.01 0.00 0.00 0.00 0.00 0.00 0.00 0.00 0.00 0.00 0.00 0.00 0.00 0.00 0.00 0.00 0.00 0.00 0.00 0.00 0.00 0.00 0.00 0.00 0.00 0.00 0.00 0.00 0.00 0.00 0.00 0.00 0.00 0.00 0.00
0.01 0.00 0.00 0.00 0.00 0.00 0.00 0.00 0.00 0.03 0.04 0.03 0.02 0.01 0.00 0.00 0.00 0.00 0.00 0.00 0.00 0.00 0.00 0.00 0.00 0.00 0.00 0.00 0.00 0.00 0.00 0.00 0.00 0.00 0.00 0.00 0.00 0.00 0.00 0.00 0.00 0.00 0.00 0.00 0.00 0.00 0.00

GFSGBSN_prec_precacc12_123.txt.gz
Total_Precipitation_Accumulation
0.03 0.04 0.07 0.04 0.03 0.03 0.02 0.03 0.03 0.04 0.06 0.11 0.13 0.12 0.11 0.12 0.13 0.08 0.13 0.24 0.31 0.17 0.02 0.01 0.00 0.00 0.00 0.00 0.00 0.00 0.00 0.00 0.00 0.00 0.00 0.02 0.02 0.04 0.04 0.05 0.08 0.05 0.02 0.03 0.04 0.04 0.02
0.03 0.05 0.06 0.03 0.04 0.03 0.02 0.03 0.05 0.10 0.15 0.16 0.17 0.17 0.16 0.15 0.17 0.16 0.09 0.09 0.12 0.30 0.10 0.01 0.01 0.00 0.00 0.00 0.00 0.00 0.00 0.00 0.00 0.00 0.00 0.00 0.03 0.08 0.07 0.07 0.08 0.07 0.03 0.02 0.01 0.00 0.00
0.03 0.05 0.05 0.04 0.04 0.03 0.04 0.05 0.08 0.13 0.14 0.14 0.15 0.16 0.15 0.16 0.17 0.18 0.10 0.08 0.09 0.16 0.04 0.00 0.00 0.00 0.00 0.00 0.00 0.00 0.00 0.00 0.00 0.00 0.00 0.00 0.00 0.03 0.05 0.01 0.00 0.02 0.03 0.02 0.00 0.00 0.01
0.03 0.05 0.04 0.05 0.03 0.03 0.06 0.09 0.11 0.11 0.10 0.08 0.10 0.09 0.14 0.19 0.10 0.10 0.07 0.08 0.06 0.09 0.03 0.00 0.00 0.01 0.00 0.00 0.00 0.00 0.00 0.00 0.00 0.00 0.00 0.00 0.02 0.04 0.05 0.02 0.01 0.00 0.00 0.01 0.00 0.00 0.00
0.05 0.07 0.06 0.06 0.02 0.02 0.07 0.11 0.10 0.09 0.09 0.10 0.11 0.11 0.13 0.17 0.09 0.07 0.03 0.05 0.04 0.07 0.02 0.01 0.01 0.00 0.00 0.00 0.00 0.00 0.00 0.00 0.00 0.00 0.01 0.02 0.03 0.03 0.03 0.04 0.03 0.01 0.02 0.01 0.00 0.00 0.00
0.07 0.09 0.09 0.04 0.01 0.03 0.07 0.10 0.09 0.11 0.12 0.12 0.10 0.13 0.21 0.13 0.10 0.06 0.03 0.07 0.06 0.06 0.01 0.00 0.00 0.00 0.00 0.00 0.00 0.00 0.00 0.00 0.00 0.00 0.01 0.02 0.02 0.02 0.02 0.10 0.12 0.07 0.07 0.02 0.00 0.00 0.00
0.07 0.13 0.11 0.03 0.01 0.03 0.08 0.09 0.07 0.12 0.11 0.13 0.13 0.20 0.23 0.11 0.07 0.05 0.01 0.03 0.02 0.00 0.00 0.00 0.00 0.00 0.00 0.00 0.00 0.00 0.00 0.00 0.00 0.00 0.00 0.01 0.01 0.04 0.07 0.05 0.03 0.03 0.02 0.00 0.00 0.00 0.00
0.09 0.15 0.10 0.03 0.02 0.05 0.09 0.09 0.07 0.12 0.12 0.16 0.17 0.21 0.19 0.11 0.10 0.04 0.01 0.01 0.00 0.00 0.00 0.00 0.00 0.00 0.00 0.00 0.00 0.00 0.00 0.00 0.00 0.00 0.01 0.02 0.01 0.01 0.01 0.03 0.03 0.04 0.02 0.02 0.04 0.01 0.00
0.11 0.15 0.07 0.05 0.02 0.07 0.09 0.08 0.07 0.12 0.12 0.19 0.20 0.21 0.17 0.09 0.05 0.00 0.02 0.01 0.00 0.00 0.00 0.00 0.00 0.00 0.00 0.00 0.00 0.00 0.00 0.00 0.00 0.00 0.00 0.01 0.00 0.00 0.00 0.00 0.00 0.00 0.02 0.01 0.03 0.00 0.00
0.14 0.13 0.07 0.06 0.02 0.06 0.09 0.06 0.06 0.11 0.10 0.15 0.19 0.23 0.15 0.06 0.03 0.01 0.04 0.01 0.00 0.00 0.02 0.00 0.00 0.00 0.00 0.00 0.00 0.00 0.00 0.00 0.00 0.00 0.00 0.00 0.00 0.00 0.00 0.00 0.01 0.00 0.02 0.01 0.00 0.00 0.01
0.16 0.11 0.07 0.04 0.02 0.05 0.06 0.02 0.06 0.08 0.06 0.11 0.20 0.20 0.15 0.07 0.00 0.05 0.07 0.00 0.00 0.00 0.02 0.01 0.00 0.00 0.00 0.00 0.00 0.00 0.00 0.00 0.00 0.00 0.00 0.00 0.00 0.00 0.00 0.00 0.00 0.00 0.00 0.00 0.00 0.00 0.00
0.14 0.09 0.07 0.01 0.02 0.05 0.03 0.01 0.05 0.06 0.04 0.12 0.13 0.15 0.16 0.03 0.01 0.01 0.04 0.00 0.00 0.01 0.02 0.00 0.00 0.00 0.00 0.00 0.00 0.00 0.00 0.00 0.00 0.00 0.00 0.00 0.00 0.00 0.00 0.00 0.00 0.00 0.00 0.00 0.00 0.01 0.03
0.11 0.07 0.05 0.01 0.03 0.04 0.02 0.02 0.04 0.05 0.04 0.08 0.10 0.15 0.07 0.00 0.01 0.02 0.02 0.00 0.04 0.05 0.00 0.00 0.00 0.00 0.00 0.00 0.00 0.00 0.00 0.00 0.00 0.00 0.00 0.00 0.00 0.00 0.00 0.00 0.00 0.01 0.03 0.04 0.04 0.05 0.10
0.09 0.06 0.04 0.01 0.03 0.03 0.01 0.02 0.03 0.03 0.03 0.04 0.06 0.01 0.03 0.02 0.00 0.02 0.02 0.04 0.12 0.03 0.00 0.00 0.00 0.00 0.00 0.00 0.00 0.00 0.00 0.00 0.00 0.00 0.00 0.00 0.00 0.00 0.00 0.00 0.01 0.02 0.06 0.24 0.47 0.29 0.13
0.07 0.07 0.02 0.01 0.02 0.03 0.01 0.01 0.03 0.01 0.00 0.02 0.03 0.03 0.05 0.04 0.01 0.05 0.03 0.11 0.07 0.00 0.00 0.00 0.00 0.00 0.00 0.00 0.00 0.00 0.00 0.00 0.00 0.00 0.00 0.00 0.00 0.00 0.00 0.00 0.01 0.01 0.04 0.08 0.22 0.14 0.09
0.08 0.05 0.01 0.01 0.01 0.01 0.00 0.00 0.02 0.00 0.00 0.00 0.01 0.01 0.10 0.12 0.05 0.04 0.03 0.07 0.00 0.00 0.00 0.00 0.00 0.00 0.00 0.00 0.00 0.00 0.00 0.00 0.00 0.00 0.00 0.00 0.00 0.00 0.00 0.00 0.02 0.03 0.02 0.03 0.05 0.03 0.12
0.08 0.02 0.01 0.01 0.01 0.01 0.00 0.00 0.00 0.00 0.00 0.00 0.01 0.03 0.11 0.10 0.02 0.02 0.04 0.01 0.00 0.00 0.00 0.00 0.00 0.00 0.00 0.00 0.00 0.00 0.00 0.00 0.00 0.00 0.00 0.00 0.00 0.00 0.00 0.00 0.00 0.01 0.01 0.00 0.06 0.02 0.22
0.07 0.01 0.01 0.00 0.00 0.00 0.00 0.00 0.00 0.00 0.00 0.00 0.02 0.10 0.09 0.06 0.05 0.01 0.01 0.00 0.00 0.00 0.00 0.00 0.00 0.00 0.00 0.00 0.00 0.00 0.00 0.00 0.00 0.00 0.00 0.00 0.00 0.00 0.00 0.00 0.00 0.00 0.00 0.00 0.00 0.03 0.05
0.05 0.01 0.00 0.00 0.00 0.00 0.00 0.00 0.00 0.00 0.00 0.00 0.02 0.09 0.12 0.03 0.02 0.02 0.00 0.00 0.00 0.00 0.00 0.00 0.00 0.00 0.00 0.00 0.00 0.00 0.00 0.00 0.00 0.00 0.00 0.00 0.00 0.00 0.00 0.00 0.00 0.00 0.00 0.00 0.00 0.00 0.01
0.04 0.00 0.00 0.00 0.00 0.00 0.00 0.00 0.00 0.00 0.00 0.00 0.00 0.01 0.02 0.02 0.01 0.01 0.00 0.00 0.00 0.00 0.00 0.00 0.00 0.00 0.00 0.00 0.00 0.00 0.00 0.00 0.00 0.00 0.00 0.00 0.00 0.00 0.00 0.00 0.00 0.00 0.00 0.00 0.00 0.00 0.00
0.04 0.00 0.00 0.00 0.00 0.00 0.00 0.00 0.00 0.00 0.00 0.00 0.00 0.00 0.01 0.01 0.00 0.00 0.00 0.00 0.00 0.00 0.00 0.00 0.00 0.00 0.00 0.00 0.00 0.00 0.00 0.00 0.00 0.00 0.00 0.00 0.00 0.00 0.00 0.00 0.00 0.00 0.00 0.00 0.00 0.00 0.00
0.02 0.00 0.00 0.00 0.00 0.00 0.00 0.00 0.00 0.00 0.00 0.00 0.00 0.00 0.00 0.00 0.00 0.00 0.00 0.00 0.00 0.00 0.00 0.00 0.00 0.00 0.00 0.00 0.00 0.00 0.00 0.00 0.00 0.00 0.00 0.00 0.00 0.00 0.00 0.00 0.00 0.00 0.00 0.00 0.00 0.00 0.00
0.02 0.00 0.00 0.00 0.00 0.00 0.00 0.00 0.00 0.00 0.00 0.00 0.00 0.00 0.00 0.00 0.00 0.00 0.00 0.00 0.00 0.00 0.00 0.00 0.00 0.00 0.00 0.00 0.00 0.00 0.00 0.00 0.00 0.00 0.00 0.00 0.00 0.00 0.00 0.00 0.00 0.00 0.00 0.00 0.00 0.00 0.00
0.01 0.00 0.00 0.00 0.00 0.00 0.00 0.00 0.00 0.00 0.00 0.00 0.00 0.00 0.00 0.00 0.00 0.00 0.00 0.00 0.00 0.00 0.00 0.00 0.00 0.00 0.00 0.00 0.00 0.00 0.00 0.00 0.00 0.00 0.00 0.00 0.00 0.00 0.00 0.00 0.00 0.00 0.00 0.00 0.00 0.00 0.00
0.00 0.01 0.00 0.00 0.00 0.00 0.00 0.00 0.00 0.00 0.00 0.01 0.01 0.00 0.00 0.00 0.00 0.00 0.00 0.00 0.00 0.00 0.00 0.00 0.00 0.00 0.00 0.00 0.00 0.00 0.00 0.00 0.00 0.00 0.00 0.00 0.00 0.00 0.00 0.00 0.00 0.00 0.00 0.00 0.00 0.00 0.00
0.00 0.01 0.01 0.00 0.00 0.00 0.00 0.00 0.00 0.00 0.00 0.01 0.01 0.00 0.00 0.00 0.00 0.00 0.00 0.00 0.00 0.00 0.00 0.00 0.00 0.00 0.00 0.00 0.00 0.00 0.00 0.00 0.00 0.00 0.00 0.00 0.00 0.00 0.00 0.00 0.00 0.00 0.00 0.00 0.00 0.00 0.00
0.01 0.00 0.01 0.00 0.00 0.00 0.00 0.00 0.00 0.00 0.00 0.00 0.00 0.01 0.00 0.00 0.00 0.00 0.00 0.00 0.00 0.00 0.00 0.00 0.00 0.00 0.00 0.00 0.00 0.00 0.00 0.00 0.00 0.00 0.00 0.00 0.00 0.00 0.00 0.00 0.00 0.00 0.00 0.00 0.00 0.00 0.00
0.00 0.00 0.00 0.00 0.00 0.00 0.00 0.00 0.00 0.00 0.00 0.01 0.00 0.00 0.00 0.00 0.00 0.00 0.00 0.00 0.00 0.00 0.00 0.00 0.00 0.00 0.00 0.00 0.00 0.00 0.00 0.00 0.00 0.00 0.00 0.00 0.00 0.00 0.00 0.00 0.00 0.00 0.00 0.00 0.00 0.00 0.00
0.01 0.00 0.00 0.00 0.00 0.00 0.00 0.00 0.00 0.00 0.01 0.02 0.02 0.01 0.00 0.00 0.00 0.00 0.00 0.00 0.00 0.00 0.00 0.00 0.00 0.00 0.00 0.00 0.00 0.00 0.00 0.00 0.00 0.00 0.00 0.00 0.00 0.00 0.00 0.00 0.00 0.00 0.00 0.00 0.00 0.00 0.00

GFSGBSN_prec_precacc12_126.txt.gz
Total_Precipitation_Accumulation
0.03 0.04 0.07 0.06 0.04 0.03 0.03 0.06 0.09 0.16 0.18 0.22 0.27 0.26 0.22 0.21 0.35 0.35 0.23 0.23 0.33 0.27 0.06 0.02 0.01 0.00 0.00 0.00 0.00 0.00 0.00 0.00 0.00 0.00 0.00 0.00 0.01 0.02 0.01 0.00 0.02 0.02 0.00 0.00 0.00 0.00 0.01
0.04 0.07 0.09 0.08 0.05 0.02 0.03 0.07 0.11 0.16 0.19 0.22 0.24 0.25 0.23 0.19 0.26 0.34 0.21 0.08 0.13 0.40 0.16 0.02 0.01 0.00 0.00 0.00 0.00 0.00 0.00 0.00 0.00 0.00 0.00 0.00 0.02 0.07 0.03 0.03 0.03 0.01 0.01 0.00 0.00 0.00 0.00
0.05 0.11 0.12 0.11 0.06 0.02 0.05 0.08 0.11 0.15 0.17 0.17 0.20 0.19 0.20 0.20 0.21 0.26 0.13 0.06 0.16 0.51 0.13 0.02 0.01 0.00 0.00 0.00 0.00 0.00 0.00 0.00 0.00 0.00 0.00 0.00 0.00 0.05 0.03 0.00 0.00 0.00 0.01 0.00 0.00 0.00 0.01
0.07 0.13 0.16 0.11 0.04 0.02 0.07 0.10 0.12 0.13 0.13 0.12 0.16 0.10 0.19 0.23 0.14 0.11 0.03 0.02 0.11 0.28 0.09 0.01 0.00 0.00 0.00 0.00 0.00 0.00 0.00 0.00 0.00 0.00 0.00 0.00 0.05 0.04 0.03 0.01 0.01 0.01 0.00 0.00 0.00 0.00 0.00
0.09 0.14 0.15 0.09 0.02 0.02 0.08 0.12 0.10 0.11 0.14 0.15 0.16 0.14 0.18 0.18 0.11 0.08 0.00 0.02 0.07 0.11 0.03 0.01 0.00 0.00 0.00 0.00 0.00 0.00 0.00 0.00 0.00 0.00 0.01 0.04 0.06 0.02 0.02 0.04 0.03 0.02 0.02 0.01 0.00 0.00 0.00
0.10 0.15 0.13 0.06 0.01 0.03 0.09 0.12 0.08 0.13 0.16 0.18 0.13 0.15 0.24 0.14 0.11 0.07 0.04 0.09 0.08 0.06 0.01 0.00 0.00 0.00 0.00 0.00 0.00 0.00 0.00 0.00 0.00 0.00 0.01 0.04 0.04 0.03 0.03 0.10 0.13 0.07 0.07 0.03 0.00 0.00 0.00
0.10 0.16 0.11 0.04 0.01 0.03 0.09 0.12 0.08 0.14 0.14 0.19 0.13 0.17 0.22 0.12 0.09 0.03 0.02 0.04 0.02 0.00 0.00 0.00 0.00 0.00 0.00 0.00 0.00 0.00 0.00 0.00 0.00 0.00 0.01 0.04 0.04 0.01 0.03 0.06 0.04 0.05 0.07 0.06 0.01 0.00 0.00
0.11 0.16 0.09 0.04 0.01 0.04 0.08 0.10 0.07 0.14 0.15 0.19 0.15 0.16 0.17 0.11 0.08 0.01 0.00 0.00 0.00 0.00 0.00 0.00 0.00 0.00 0.00 0.00 0.00 0.00 0.00 0.00 0.00 0.00 0.01 0.04 0.02 0.01 0.02 0.04 0.05 0.07 0.04 0.02 0.04 0.01 0.00
0.13 0.15 0.08 0.05 0.01 0.05 0.08 0.07 0.06 0.12 0.15 0.21 0.17 0.15 0.13 0.09 0.05 0.00 0.01 0.01 0.00 0.00 0.00 0.00 0.00 0.00 0.00 0.00 0.00 0.00 0.00 0.00 0.00 0.00 0.00 0.02 0.00 0.01 0.02 0.00 0.00 0.00 0.01 0.01 0.03 0.00 0.00
0.16 0.13 0.07 0.05 0.01 0.05 0.07 0.03 0.05 0.11 0.10 0.15 0.12 0.13 0.09 0.05 0.03 0.01 0.04 0.01 0.00 0.00 0.01 0.00 0.00 0.00 0.00 0.00 0.00 0.00 0.00 0.00 0.00 0.00 0.00 0.00 0.00 0.00 0.00 0.00 0.00 0.00 0.02 0.01 0.00 0.00 0.00
0.16 0.11 0.07 0.03 0.02 0.04 0.04 0.02 0.05 0.07 0.05 0.07 0.11 0.10 0.09 0.06 0.00 0.05 0.06 0.00 0.00 0.00 0.02 0.01 0.00 0.00 0.00 0.00 0.00 0.00 0.00 0.00 0.00 0.00 0.00 0.00 0.00 0.00 0.00 0.00 0.00 0.00 0.00 0.00 0.00 0.00 0.00
0.15 0.09 0.07 0.01 0.01 0.03 0.02 0.01 0.04 0.04 0.02 0.05 0.04 0.03 0.07 0.03 0.01 0.01 0.02 0.00 0.00 0.00 0.01 0.00 0.00 0.00 0.00 0.00 0.00 0.00 0.00 0.00 0.00 0.00 0.00 0.00 0.00 0.00 0.00 0.00 0.00 0.00 0.00 0.00 0.00 0.02 0.03
0.11 0.08 0.06 0.01 0.02 0.02 0.01 0.01 0.02 0.02 0.00 0.02 0.02 0.01 0.01 0.00 0.01 0.00 0.00 0.00 0.02 0.02 0.00 0.00 0.00 0.00 0.00 0.00 0.00 0.00 0.00 0.00 0.00 0.00 0.00 0.00 0.00 0.00 0.00 0.00 0.00 0.00 0.00 0.01 0.02 0.12 0.11
0.09 0.07 0.04 0.01 0.01 0.02 0.01 0.00 0.01 0.01 0.00 0.02 0.03 0.00 0.02 0.01 0.00 0.01 0.01 0.03 0.06 0.02 0.00 0.00 0.00 0.00 0.00 0.00 0.00 0.00 0.00 0.00 0.00 0.00 0.00 0.00 0.00 0.00 0.00 0.00 0.00 0.00 0.02 0.17 0.36 0.26 0.11
0.06 0.06 0.02 0.00 0.01 0.01 0.00 0.00 0.00 0.00 0.00 0.02 0.03 0.00 0.01 0.01 0.00 0.00 0.02 0.07 0.03 0.00 0.00 0.00 0.00 0.00 0.00 0.00 0.00 0.00 0.00 0.00 0.00 0.00 0.00 0.00 0.00 0.00 0.00 0.00 0.01 0.00 0.02 0.05 0.16 0.13 0.09
0.04 0.04 0.01 0.00 0.00 0.00 0.00 0.00 0.00 0.00 0.00 0.00 0.00 0.00 0.03 0.01 0.00 0.01 0.02 0.03 0.00 0.00 0.00 0.00 0.00 0.00 0.00 0.00 0.00 0.00 0.00 0.00 0.00 0.00 0.00 0.00 0.00 0.00 0.00 0.00 0.00 0.00 0.00 0.00 0.00 0.01 0.11
0.03 0.02 0.01 0.00 0.00 0.00 0.00 0.00 0.00 0.00 0.00 0.00 0.00 0.01 0.05 0.01 0.00 0.01 0.02 0.00 0.00 0.00 0.00 0.00 0.00 0.00 0.00 0.00 0.00 0.00 0.00 0.00 0.00 0.00 0.00 0.00 0.00 0.00 0.00 0.00 0.00 0.00 0.00 0.00 0.00 0.00 0.12
0.02 0.01 0.01 0.00 0.00 0.00 0.00 0.00 0.00 0.00 0.00 0.00 0.00 0.01 0.01 0.02 0.00 0.00 0.00 0.00 0.00 0.00 0.00 0.00 0.00 0.00 0.00 0.00 0.00 0.00 0.00 0.00 0.00 0.00 0.00 0.00 0.00 0.00 0.00 0.00 0.00 0.00 0.00 0.00 0.00 0.00 0.03
0.01 0.00 0.00 0.00 0.00 0.00 0.00 0.00 0.00 0.00 0.00 0.00 0.00 0.01 0.00 0.00 0.00 0.00 0.00 0.00 0.00 0.00 0.00 0.00 0.00 0.00 0.00 0.00 0.00 0.00 0.00 0.00 0.00 0.00 0.00 0.00 0.00 0.00 0.00 0.00 0.00 0.00 0.00 0.00 0.00 0.00 0.00
0.01 0.00 0.00 0.00 0.00 0.00 0.00 0.00 0.00 0.00 0.00 0.00 0.00 0.00 0.00 0.00 0.00 0.00 0.00 0.00 0.00 0.00 0.00 0.00 0.00 0.00 0.00 0.00 0.00 0.00 0.00 0.00 0.00 0.00 0.00 0.00 0.00 0.00 0.00 0.00 0.00 0.00 0.00 0.00 0.00 0.00 0.00
0.01 0.00 0.00 0.00 0.00 0.00 0.00 0.00 0.00 0.00 0.00 0.00 0.00 0.00 0.00 0.00 0.00 0.00 0.00 0.00 0.00 0.00 0.00 0.00 0.00 0.00 0.00 0.00 0.00 0.00 0.00 0.00 0.00 0.00 0.00 0.00 0.00 0.00 0.00 0.00 0.00 0.00 0.00 0.00 0.00 0.00 0.00
0.01 0.00 0.00 0.00 0.00 0.00 0.00 0.00 0.00 0.00 0.00 0.00 0.00 0.00 0.00 0.00 0.00 0.00 0.00 0.00 0.00 0.00 0.00 0.00 0.00 0.00 0.00 0.00 0.00 0.00 0.00 0.00 0.00 0.00 0.00 0.00 0.00 0.00 0.00 0.00 0.00 0.00 0.00 0.00 0.00 0.00 0.00
0.01 0.00 0.00 0.00 0.00 0.00 0.00 0.00 0.00 0.00 0.00 0.00 0.00 0.00 0.00 0.00 0.00 0.00 0.00 0.00 0.00 0.00 0.00 0.00 0.00 0.00 0.00 0.00 0.00 0.00 0.00 0.00 0.00 0.00 0.00 0.00 0.00 0.00 0.00 0.00 0.00 0.00 0.00 0.00 0.00 0.00 0.00
0.01 0.00 0.01 0.00 0.00 0.00 0.00 0.00 0.00 0.00 0.00 0.00 0.00 0.00 0.00 0.00 0.00 0.00 0.00 0.00 0.00 0.00 0.00 0.00 0.00 0.00 0.00 0.00 0.00 0.00 0.00 0.00 0.00 0.00 0.00 0.00 0.00 0.00 0.00 0.00 0.00 0.00 0.00 0.00 0.00 0.00 0.00
0.00 0.01 0.00 0.00 0.00 0.00 0.00 0.00 0.00 0.00 0.00 0.00 0.00 0.00 0.00 0.00 0.00 0.00 0.00 0.00 0.00 0.00 0.00 0.00 0.00 0.00 0.00 0.00 0.00 0.00 0.00 0.00 0.00 0.00 0.00 0.00 0.00 0.00 0.00 0.00 0.00 0.00 0.00 0.00 0.00 0.00 0.00
0.00 0.01 0.01 0.00 0.00 0.00 0.00 0.00 0.00 0.00 0.00 0.00 0.00 0.00 0.00 0.00 0.00 0.00 0.00 0.00 0.00 0.00 0.00 0.00 0.00 0.00 0.00 0.00 0.00 0.00 0.00 0.00 0.00 0.00 0.00 0.00 0.00 0.00 0.00 0.00 0.00 0.00 0.00 0.00 0.00 0.00 0.00
0.00 0.01 0.01 0.00 0.00 0.00 0.00 0.00 0.00 0.00 0.00 0.00 0.00 0.00 0.00 0.00 0.00 0.00 0.00 0.00 0.00 0.00 0.00 0.00 0.00 0.00 0.00 0.00 0.00 0.00 0.00 0.00 0.00 0.00 0.00 0.00 0.00 0.00 0.00 0.00 0.00 0.00 0.00 0.00 0.00 0.00 0.00
0.00 0.00 0.01 0.01 0.00 0.00 0.00 0.00 0.00 0.00 0.00 0.00 0.00 0.00 0.00 0.00 0.00 0.00 0.00 0.00 0.00 0.00 0.00 0.00 0.00 0.00 0.00 0.00 0.00 0.00 0.00 0.00 0.00 0.00 0.00 0.00 0.00 0.00 0.00 0.00 0.00 0.00 0.00 0.00 0.00 0.00 0.00
0.01 0.01 0.01 0.01 0.01 0.00 0.00 0.00 0.00 0.00 0.00 0.00 0.00 0.00 0.00 0.00 0.00 0.00 0.00 0.00 0.00 0.00 0.00 0.00 0.00 0.00 0.00 0.00 0.00 0.00 0.00 0.00 0.00 0.00 0.00 0.00 0.00 0.00 0.00 0.00 0.00 0.00 0.00 0.00 0.00 0.00 0.00

GFSGBSN_prec_precacc12_129.txt.gz
Total_Precipitation_Accumulation
0.07 0.10 0.15 0.17 0.08 0.04 0.04 0.08 0.11 0.17 0.21 0.28 0.32 0.31 0.29 0.28 0.41 0.47 0.21 0.10 0.30 0.32 0.17 0.04 0.00 0.00 0.00 0.00 0.00 0.00 0.01 0.02 0.00 0.00 0.00 0.00 0.00 0.01 0.00 0.00 0.00 0.00 0.00 0.00 0.00 0.00 0.00
0.08 0.12 0.16 0.15 0.08 0.02 0.06 0.10 0.11 0.17 0.24 0.26 0.30 0.28 0.28 0.25 0.28 0.38 0.20 0.01 0.10 0.44 0.22 0.04 0.00 0.00 0.00 0.00 0.00 0.00 0.00 0.00 0.00 0.00 0.00 0.00 0.01 0.06 0.03 0.03 0.03 0.00 0.00 0.00 0.00 0.00 0.00
0.08 0.14 0.17 0.13 0.07 0.02 0.08 0.11 0.13 0.19 0.25 0.21 0.24 0.20 0.21 0.22 0.21 0.26 0.12 0.01 0.25 0.70 0.16 0.02 0.00 0.00 0.00 0.00 0.00 0.00 0.00 0.00 0.00 0.00 0.00 0.00 0.00 0.06 0.04 0.00 0.00 0.00 0.00 0.00 0.00 0.00 0.00
0.10 0.14 0.16 0.12 0.04 0.02 0.09 0.13 0.14 0.18 0.23 0.17 0.18 0.11 0.19 0.22 0.14 0.11 0.03 0.05 0.32 0.47 0.12 0.01 0.00 0.00 0.00 0.00 0.00 0.00 0.00 0.00 0.00 0.00 0.00 0.00 0.05 0.05 0.04 0.01 0.01 0.01 0.01 0.00 0.00 0.00 0.00
0.12 0.13 0.15 0.09 0.02 0.02 0.09 0.14 0.12 0.15 0.22 0.19 0.15 0.15 0.17 0.17 0.11 0.08 0.01 0.06 0.18 0.11 0.02 0.01 0.00 0.00 0.00 0.00 0.00 0.00 0.00 0.00 0.00 0.00 0.01 0.04 0.06 0.03 0.02 0.05 0.03 0.02 0.01 0.00 0.00 0.00 0.00
0.12 0.14 0.13 0.06 0.01 0.03 0.09 0.14 0.10 0.14 0.19 0.18 0.12 0.14 0.20 0.12 0.11 0.07 0.04 0.09 0.08 0.06 0.01 0.00 0.00 0.00 0.00 0.00 0.00 0.00 0.00 0.00 0.00 0.00 0.02 0.04 0.05 0.04 0.03 0.09 0.14 0.07 0.05 0.02 0.01 0.00 0.00
0.12 0.16 0.11 0.04 0.01 0.03 0.09 0.12 0.08 0.15 0.15 0.19 0.13 0.15 0.16 0.09 0.09 0.02 0.01 0.04 0.02 0.00 0.00 0.00 0.00 0.00 0.00 0.00 0.00 0.00 0.00 0.00 0.00 0.00 0.01 0.04 0.04 0.01 0.01 0.03 0.04 0.08 0.10 0.10 0.02 0.00 0.00
0.13 0.17 0.09 0.04 0.01 0.04 0.08 0.07 0.07 0.15 0.15 0.19 0.13 0.10 0.09 0.09 0.08 0.00 0.00 0.00 0.00 0.00 0.00 0.00 0.00 0.00 0.00 0.00 0.00 0.00 0.00 0.00 0.00 0.00 0.01 0.03 0.02 0.01 0.02 0.04 0.05 0.07 0.04 0.01 0.01 0.00 0.00
0.15 0.15 0.08 0.05 0.00 0.04 0.05 0.04 0.06 0.11 0.13 0.17 0.14 0.07 0.04 0.05 0.04 0.00 0.01 0.01 0.00 0.00 0.00 0.00 0.00 0.00 0.00 0.00 0.00 0.00 0.00 0.00 0.00 0.00 0.00 0.01 0.00 0.01 0.02 0.01 0.00 0.00 0.01 0.01 0.00 0.00 0.00
0.16 0.14 0.07 0.05 0.01 0.02 0.03 0.02 0.04 0.07 0.07 0.11 0.08 0.06 0.04 0.03 0.02 0.01 0.04 0.01 0.00 0.00 0.00 0.00 0.00 0.00 0.00 0.00 0.00 0.00 0.00 0.00 0.00 0.00 0.00 0.00 0.00 0.00 0.00 0.00 0.00 0.00 0.01 0.01 0.00 0.00 0.00
0.16 0.12 0.06 0.03 0.01 0.01 0.01 0.01 0.02 0.04 0.02 0.04 0.05 0.04 0.03 0.01 0.00 0.03 0.03 0.00 0.00 0.00 0.01 0.01 0.00 0.00 0.00 0.00 0.00 0.00 0.00 0.00 0.00 0.00 0.00 0.00 0.00 0.00 0.00 0.01 0.00 0.00 0.00 0.00 0.00 0.00 0.00
0.12 0.08 0.06 0.01 0.00 0.00 0.01 0.01 0.01 0.01 0.00 0.03 0.02 0.01 0.01 0.00 0.00 0.00 0.00 0.00 0.00 0.00 0.00 0.00 0.00 0.00 0.00 0.00 0.00 0.00 0.00 0.00 0.00 0.00 0.00 0.00 0.00 0.00 0.00 0.00 0.00 0.01 0.00 0.00 0.00 0.02 0.03
0.07 0.06 0.04 0.00 0.00 0.00 0.00 0.00 0.00 0.00 0.00 0.01 0.01 0.00 0.00 0.00 0.00 0.00 0.00 0.00 0.00 0.00 0.00 0.00 0.00 0.00 0.00 0.00 0.00 0.00 0.00 0.00 0.00 0.00 0.00 0.00 0.00 0.00 0.00 0.00 0.00 0.00 0.00 0.00 0.01 0.13 0.11
0.04 0.04 0.01 0.00 0.00 0.00 0.00 0.00 0.00 0.00 0.00 0.01 0.01 0.00 0.00 0.00 0.00 0.00 0.01 0.00 0.01 0.02 0.00 0.00 0.00 0.00 0.00 0.00 0.00 0.00 0.00 0.00 0.00 0.00 0.00 0.00 0.00 0.00 0.00 0.00 0.00 0.00 0.00 0.08 0.14 0.17 0.07
0.02 0.02 0.00 0.00 0.00 0.00 0.00 0.00 0.00 0.00 0.00 0.00 0.00 0.00 0.00 0.00 0.00 0.00 0.00 0.00 0.01 0.00 0.00 0.00 0.00 0.00 0.00 0.00 0.00 0.00 0.00 0.00 0.00 0.00 0.00 0.00 0.00 0.00 0.00 0.00 0.00 0.00 0.01 0.04 0.11 0.09 0.02
0.02 0.01 0.00 0.00 0.00 0.00 0.00 0.00 0.00 0.00 0.00 0.00 0.00 0.00 0.00 0.00 0.00 0.00 0.00 0.00 0.00 0.00 0.00 0.00 0.00 0.00 0.00 0.00 0.00 0.00 0.00 0.00 0.00 0.00 0.00 0.00 0.00 0.00 0.00 0.00 0.00 0.00 0.00 0.00 0.00 0.01 0.03
0.02 0.00 0.00 0.00 0.00 0.00 0.00 0.00 0.00 0.00 0.00 0.00 0.00 0.00 0.00 0.00 0.00 0.00 0.00 0.00 0.00 0.00 0.00 0.00 0.00 0.00 0.00 0.00 0.00 0.00 0.00 0.00 0.00 0.00 0.00 0.00 0.00 0.00 0.00 0.00 0.00 0.00 0.00 0.00 0.00 0.00 0.02
0.01 0.00 0.00 0.00 0.00 0.00 0.00 0.00 0.00 0.00 0.00 0.00 0.00 0.00 0.00 0.00 0.00 0.00 0.00 0.00 0.00 0.00 0.00 0.00 0.00 0.00 0.00 0.00 0.00 0.00 0.00 0.00 0.00 0.00 0.00 0.00 0.00 0.00 0.00 0.00 0.00 0.00 0.00 0.00 0.00 0.00 0.00
0.01 0.00 0.00 0.00 0.00 0.00 0.00 0.00 0.00 0.00 0.00 0.00 0.00 0.00 0.00 0.00 0.00 0.00 0.00 0.00 0.00 0.00 0.00 0.00 0.00 0.00 0.00 0.00 0.00 0.00 0.00 0.00 0.00 0.00 0.00 0.00 0.00 0.00 0.00 0.00 0.00 0.00 0.00 0.00 0.00 0.00 0.00
0.01 0.00 0.00 0.00 0.00 0.00 0.00 0.00 0.00 0.00 0.00 0.00 0.00 0.00 0.00 0.00 0.00 0.00 0.00 0.00 0.00 0.00 0.00 0.00 0.00 0.00 0.00 0.00 0.00 0.00 0.00 0.00 0.00 0.00 0.00 0.00 0.00 0.00 0.00 0.00 0.00 0.00 0.00 0.00 0.00 0.00 0.00
0.01 0.00 0.00 0.00 0.00 0.00 0.00 0.00 0.00 0.00 0.00 0.00 0.00 0.00 0.00 0.00 0.00 0.00 0.00 0.00 0.00 0.00 0.00 0.00 0.00 0.00 0.00 0.00 0.00 0.00 0.00 0.00 0.00 0.00 0.00 0.00 0.00 0.00 0.00 0.00 0.00 0.00 0.00 0.00 0.00 0.00 0.00
0.01 0.00 0.00 0.00 0.00 0.00 0.00 0.00 0.00 0.00 0.00 0.00 0.00 0.00 0.00 0.00 0.00 0.00 0.00 0.00 0.00 0.00 0.00 0.00 0.00 0.00 0.00 0.00 0.00 0.00 0.00 0.00 0.00 0.00 0.00 0.00 0.00 0.00 0.00 0.00 0.00 0.00 0.00 0.00 0.00 0.00 0.00
0.01 0.00 0.00 0.00 0.00 0.00 0.00 0.00 0.00 0.00 0.00 0.00 0.00 0.00 0.00 0.00 0.00 0.00 0.00 0.00 0.00 0.00 0.00 0.00 0.00 0.00 0.00 0.00 0.00 0.00 0.00 0.00 0.00 0.00 0.00 0.00 0.00 0.00 0.00 0.00 0.00 0.00 0.00 0.00 0.00 0.00 0.00
0.01 0.00 0.01 0.00 0.00 0.00 0.00 0.00 0.00 0.00 0.00 0.00 0.00 0.00 0.00 0.00 0.00 0.00 0.00 0.00 0.00 0.00 0.00 0.00 0.00 0.00 0.00 0.00 0.00 0.00 0.00 0.00 0.00 0.00 0.00 0.00 0.00 0.00 0.00 0.00 0.00 0.00 0.00 0.00 0.00 0.00 0.00
0.01 0.01 0.01 0.00 0.00 0.00 0.00 0.00 0.00 0.00 0.00 0.00 0.00 0.00 0.00 0.00 0.00 0.00 0.00 0.00 0.00 0.00 0.00 0.00 0.00 0.00 0.00 0.00 0.00 0.00 0.00 0.00 0.00 0.00 0.00 0.00 0.00 0.00 0.00 0.00 0.00 0.00 0.00 0.00 0.00 0.00 0.00
0.01 0.02 0.01 0.01 0.00 0.00 0.00 0.00 0.00 0.00 0.00 0.00 0.00 0.00 0.00 0.00 0.00 0.00 0.00 0.00 0.00 0.00 0.00 0.00 0.00 0.00 0.00 0.00 0.00 0.00 0.00 0.00 0.00 0.00 0.00 0.00 0.00 0.00 0.00 0.00 0.00 0.00 0.00 0.00 0.00 0.00 0.00
0.01 0.02 0.02 0.02 0.01 0.01 0.01 0.00 0.00 0.00 0.00 0.00 0.00 0.00 0.00 0.00 0.00 0.00 0.00 0.00 0.00 0.00 0.00 0.00 0.00 0.00 0.00 0.00 0.00 0.00 0.00 0.00 0.00 0.00 0.00 0.00 0.00 0.00 0.00 0.00 0.00 0.00 0.00 0.00 0.00 0.00 0.00
0.01 0.01 0.03 0.03 0.03 0.02 0.02 0.01 0.00 0.00 0.00 0.00 0.00 0.00 0.00 0.00 0.00 0.00 0.00 0.00 0.00 0.00 0.00 0.00 0.00 0.00 0.00 0.00 0.00 0.00 0.00 0.00 0.00 0.00 0.00 0.00 0.00 0.00 0.00 0.00 0.00 0.00 0.00 0.00 0.00 0.00 0.00
0.01 0.01 0.03 0.06 0.04 0.03 0.02 0.02 0.02 0.02 0.01 0.00 0.00 0.00 0.00 0.00 0.00 0.00 0.00 0.00 0.00 0.00 0.00 0.00 0.00 0.00 0.00 0.00 0.00 0.00 0.00 0.00 0.00 0.00 0.00 0.00 0.00 0.00 0.00 0.00 0.00 0.00 0.00 0.00 0.00 0.00 0.00

GFSGBSN_prec_precacc12_132.txt.gz
Total_Precipitation_Accumulation
0.09 0.10 0.14 0.17 0.08 0.05 0.07 0.12 0.15 0.23 0.28 0.31 0.33 0.29 0.28 0.29 0.43 0.48 0.21 0.01 0.12 0.31 0.26 0.04 0.00 0.00 0.00 0.00 0.00 0.00 0.02 0.05 0.02 0.00 0.00 0.00 0.00 0.00 0.00 0.00 0.00 0.00 0.00 0.00 0.00 0.00 0.00
0.09 0.11 0.13 0.15 0.08 0.04 0.09 0.14 0.15 0.22 0.36 0.31 0.29 0.26 0.25 0.23 0.29 0.38 0.20 0.01 0.04 0.44 0.26 0.04 0.00 0.00 0.00 0.00 0.00 0.00 0.01 0.00 0.00 0.00 0.00 0.00 0.01 0.04 0.02 0.02 0.03 0.00 0.00 0.00 0.00 0.00 0.00
0.09 0.11 0.15 0.13 0.06 0.03 0.10 0.13 0.13 0.21 0.29 0.21 0.22 0.17 0.18 0.16 0.19 0.26 0.12 0.03 0.32 0.70 0.16 0.02 0.00 0.00 0.00 0.00 0.00 0.00 0.00 0.00 0.00 0.00 0.00 0.00 0.00 0.06 0.05 0.01 0.00 0.00 0.00 0.00 0.00 0.00 0.00
0.11 0.12 0.16 0.10 0.04 0.03 0.09 0.12 0.12 0.17 0.22 0.16 0.17 0.09 0.17 0.16 0.09 0.11 0.04 0.08 0.38 0.49 0.11 0.01 0.00 0.00 0.00 0.00 0.00 0.00 0.00 0.00 0.00 0.00 0.00 0.00 0.05 0.06 0.05 0.01 0.01 0.01 0.01 0.00 0.00 0.00 0.00
0.12 0.13 0.15 0.08 0.02 0.03 0.09 0.12 0.09 0.13 0.21 0.18 0.14 0.13 0.15 0.12 0.07 0.09 0.04 0.08 0.18 0.11 0.01 0.00 0.00 0.00 0.00 0.00 0.00 0.00 0.00 0.00 0.00 0.00 0.01 0.04 0.07 0.05 0.04 0.04 0.03 0.02 0.02 0.00 0.00 0.00 0.00
0.12 0.15 0.12 0.05 0.02 0.04 0.08 0.10 0.08 0.13 0.17 0.17 0.11 0.12 0.13 0.08 0.08 0.08 0.03 0.06 0.05 0.04 0.01 0.00 0.00 0.00 0.00 0.00 0.00 0.00 0.00 0.00 0.00 0.00 0.02 0.06 0.09 0.06 0.05 0.09 0.14 0.09 0.08 0.02 0.00 0.00 0.00
0.13 0.16 0.09 0.04 0.01 0.03 0.07 0.08 0.07 0.13 0.12 0.15 0.08 0.10 0.08 0.05 0.05 0.02 0.01 0.03 0.01 0.00 0.00 0.00 0.00 0.00 0.00 0.00 0.00 0.00 0.00 0.00 0.00 0.00 0.01 0.05 0.05 0.02 0.02 0.03 0.05 0.09 0.12 0.12 0.02 0.00 0.00
0.12 0.14 0.06 0.03 0.01 0.02 0.05 0.05 0.05 0.10 0.10 0.14 0.07 0.03 0.04 0.07 0.04 0.00 0.00 0.00 0.00 0.00 0.00 0.00 0.00 0.00 0.00 0.00 0.00 0.00 0.00 0.00 0.00 0.00 0.01 0.03 0.02 0.01 0.02 0.04 0.05 0.06 0.04 0.00 0.00 0.00 0.00
0.10 0.10 0.03 0.02 0.00 0.01 0.03 0.03 0.03 0.06 0.08 0.10 0.05 0.01 0.01 0.02 0.01 0.00 0.00 0.00 0.00 0.00 0.00 0.00 0.00 0.00 0.00 0.00 0.00 0.00 0.00 0.00 0.00 0.00 0.01 0.02 0.00 0.01 0.03 0.02 0.00 0.00 0.00 0.00 0.00 0.00 0.00
0.09 0.05 0.02 0.01 0.00 0.00 0.02 0.02 0.01 0.02 0.03 0.06 0.02 0.00 0.00 0.00 0.00 0.00 0.00 0.00 0.00 0.00 0.00 0.00 0.00 0.00 0.00 0.00 0.00 0.00 0.00 0.00 0.00 0.00 0.00 0.00 0.00 0.00 0.00 0.01 0.00 0.00 0.01 0.01 0.00 0.00 0.00
0.07 0.02 0.01 0.00 0.00 0.00 0.01 0.01 0.01 0.01 0.01 0.02 0.01 0.00 0.00 0.00 0.00 0.01 0.00 0.00 0.00 0.00 0.00 0.00 0.00 0.00 0.00 0.00 0.00 0.00 0.00 0.00 0.00 0.00 0.00 0.00 0.00 0.00 0.00 0.01 0.00 0.02 0.01 0.00 0.00 0.00 0.00
0.03 0.01 0.01 0.00 0.00 0.00 0.00 0.00 0.00 0.00 0.00 0.01 0.00 0.00 0.00 0.00 0.00 0.00 0.00 0.00 0.00 0.00 0.00 0.00 0.00 0.00 0.00 0.00 0.00 0.00 0.00 0.00 0.00 0.00 0.00 0.00 0.00 0.00 0.00 0.00 0.00 0.01 0.00 0.00 0.00 0.02 0.03
0.01 0.01 0.01 0.00 0.00 0.00 0.00 0.00 0.00 0.00 0.00 0.00 0.00 0.00 0.00 0.00 0.00 0.00 0.00 0.00 0.00 0.00 0.00 0.00 0.00 0.00 0.00 0.00 0.00 0.00 0.00 0.00 0.00 0.00 0.00 0.00 0.00 0.00 0.00 0.00 0.00 0.00 0.00 0.00 0.01 0.12 0.07
0.01 0.00 0.00 0.00 0.00 0.00 0.00 0.00 0.00 0.00 0.00 0.00 0.00 0.00 0.00 0.00 0.00 0.00 0.00 0.00 0.00 0.00 0.00 0.00 0.00 0.00 0.00 0.00 0.00 0.00 0.00 0.00 0.00 0.00 0.00 0.00 0.00 0.00 0.00 0.00 0.00 0.00 0.00 0.02 0.05 0.13 0.03
0.00 0.00 0.00 0.00 0.00 0.00 0.00 0.00 0.00 0.00 0.00 0.00 0.00 0.00 0.00 0.00 0.00 0.00 0.00 0.00 0.00 0.00 0.00 0.00 0.00 0.00 0.00 0.00 0.00 0.00 0.00 0.00 0.00 0.00 0.00 0.00 0.00 0.00 0.00 0.00 0.00 0.00 0.01 0.03 0.04 0.01 0.00
0.00 0.00 0.00 0.00 0.00 0.00 0.00 0.00 0.00 0.00 0.00 0.00 0.00 0.00 0.00 0.00 0.00 0.00 0.00 0.00 0.00 0.00 0.00 0.00 0.00 0.00 0.00 0.00 0.00 0.00 0.00 0.00 0.00 0.00 0.00 0.00 0.00 0.00 0.00 0.00 0.00 0.00 0.00 0.00 0.00 0.00 0.00
0.00 0.00 0.00 0.00 0.00 0.00 0.00 0.00 0.00 0.00 0.00 0.00 0.00 0.00 0.00 0.00 0.00 0.00 0.00 0.00 0.00 0.00 0.00 0.00 0.00 0.00 0.00 0.00 0.00 0.00 0.00 0.00 0.00 0.00 0.00 0.00 0.00 0.00 0.00 0.00 0.00 0.00 0.00 0.00 0.00 0.00 0.00
0.00 0.00 0.00 0.00 0.00 0.00 0.00 0.00 0.00 0.00 0.00 0.00 0.00 0.00 0.00 0.00 0.00 0.00 0.00 0.00 0.00 0.00 0.00 0.00 0.00 0.00 0.00 0.00 0.00 0.00 0.00 0.00 0.00 0.00 0.00 0.00 0.00 0.00 0.00 0.00 0.00 0.00 0.00 0.00 0.00 0.00 0.00
0.00 0.00 0.00 0.00 0.00 0.00 0.00 0.00 0.00 0.00 0.00 0.00 0.00 0.00 0.00 0.00 0.00 0.00 0.00 0.00 0.00 0.00 0.00 0.00 0.00 0.00 0.00 0.00 0.00 0.00 0.00 0.00 0.00 0.00 0.00 0.00 0.00 0.00 0.00 0.00 0.00 0.00 0.00 0.00 0.00 0.00 0.00
0.00 0.00 0.00 0.00 0.00 0.00 0.00 0.00 0.00 0.00 0.00 0.00 0.00 0.00 0.00 0.00 0.00 0.00 0.00 0.00 0.00 0.00 0.00 0.00 0.00 0.00 0.00 0.00 0.00 0.00 0.00 0.00 0.00 0.00 0.00 0.00 0.00 0.00 0.00 0.00 0.00 0.00 0.00 0.00 0.00 0.00 0.00
0.00 0.00 0.00 0.00 0.00 0.00 0.00 0.00 0.00 0.00 0.00 0.00 0.00 0.00 0.00 0.00 0.00 0.00 0.00 0.00 0.00 0.00 0.00 0.00 0.00 0.00 0.00 0.00 0.00 0.00 0.00 0.00 0.00 0.00 0.00 0.00 0.00 0.00 0.00 0.00 0.00 0.00 0.00 0.00 0.00 0.00 0.00
0.00 0.00 0.00 0.00 0.00 0.00 0.00 0.00 0.00 0.00 0.00 0.00 0.00 0.00 0.00 0.00 0.00 0.00 0.00 0.00 0.00 0.00 0.00 0.00 0.00 0.00 0.00 0.00 0.00 0.00 0.00 0.00 0.00 0.00 0.00 0.00 0.00 0.00 0.00 0.00 0.00 0.00 0.00 0.00 0.00 0.00 0.00
0.01 0.00 0.00 0.00 0.00 0.00 0.00 0.00 0.00 0.00 0.00 0.00 0.00 0.00 0.00 0.00 0.00 0.00 0.00 0.00 0.00 0.00 0.00 0.00 0.00 0.00 0.00 0.00 0.00 0.00 0.00 0.00 0.00 0.00 0.00 0.00 0.00 0.00 0.00 0.00 0.00 0.00 0.00 0.00 0.00 0.00 0.00
0.02 0.01 0.01 0.01 0.01 0.00 0.00 0.00 0.00 0.00 0.00 0.00 0.00 0.00 0.00 0.00 0.00 0.00 0.00 0.00 0.00 0.00 0.00 0.00 0.00 0.00 0.00 0.00 0.00 0.00 0.00 0.00 0.00 0.00 0.00 0.00 0.00 0.00 0.00 0.00 0.00 0.00 0.00 0.00 0.00 0.00 0.00
0.01 0.01 0.01 0.02 0.01 0.00 0.00 0.00 0.00 0.00 0.00 0.00 0.00 0.00 0.00 0.00 0.00 0.00 0.00 0.00 0.00 0.00 0.00 0.00 0.00 0.00 0.00 0.00 0.00 0.00 0.00 0.00 0.00 0.00 0.00 0.00 0.00 0.00 0.00 0.00 0.00 0.00 0.00 0.00 0.00 0.00 0.00
0.01 0.01 0.01 0.02 0.02 0.02 0.01 0.01 0.00 0.00 0.00 0.00 0.00 0.00 0.00 0.00 0.00 0.00 0.00 0.00 0.00 0.00 0.00 0.00 0.00 0.00 0.00 0.00 0.00 0.00 0.00 0.00 0.00 0.00 0.00 0.00 0.00 0.00 0.00 0.00 0.00 0.00 0.00 0.00 0.00 0.00 0.00
0.01 0.02 0.02 0.02 0.03 0.03 0.03 0.02 0.01 0.00 0.00 0.00 0.00 0.00 0.00 0.00 0.00 0.00 0.00 0.00 0.00 0.00 0.00 0.00 0.00 0.00 0.00 0.00 0.00 0.00 0.00 0.00 0.00 0.00 0.00 0.00 0.00 0.00 0.00 0.00 0.00 0.00 0.00 0.00 0.00 0.00 0.00
0.02 0.02 0.03 0.03 0.03 0.04 0.04 0.05 0.03 0.03 0.02 0.00 0.00 0.00 0.00 0.00 0.00 0.00 0.00 0.00 0.00 0.00 0.00 0.00 0.00 0.00 0.00 0.00 0.00 0.00 0.00 0.00 0.00 0.00 0.00 0.00 0.00 0.00 0.00 0.00 0.00 0.00 0.00 0.00 0.00 0.00 0.00
0.01 0.02 0.03 0.06 0.04 0.04 0.04 0.06 0.07 0.08 0.06 0.04 0.00 0.00 0.00 0.00 0.00 0.00 0.00 0.00 0.00 0.00 0.00 0.00 0.00 0.00 0.00 0.00 0.00 0.00 0.00 0.00 0.00 0.00 0.00 0.00 0.00 0.00 0.00 0.00 0.00 0.00 0.00 0.00 0.00 0.00 0.00